<?xml version="1.0" encoding="UTF-8" standalone="no" ?>
<gpx xmlns="http://www.topografix.com/GPX/1/1" xmlns:xsi="http://www.w3.org/2001/XMLSchema-instance" xsi:schemaLocation="http://www.topografix.com/GPX/1/1 http://www.topografix.com/GPX/1/1/gpx.xsd" version="1.1" creator="VisuGPX - https://www.visugpx.com">
  <metadata>
    <name>Créon - Saint Germain du Puch</name>
    <desc><![CDATA[Randonnée VTT]]></desc>
  </metadata>
  <trk>
    <name><![CDATA[Creon St germain]]></name>
    <trkseg>
      <trkpt lat="44.777" lon="-0.35002">
        <ele>100</ele>
        <time>2013-10-20T12:12:00Z</time>
      </trkpt>
      <trkpt lat="44.77738" lon="-0.35034">
        <ele>101</ele>
        <time>2013-10-20T12:12:09Z</time>
      </trkpt>
      <trkpt lat="44.77754" lon="-0.35047">
        <ele>101</ele>
        <time>2013-10-20T12:12:15Z</time>
      </trkpt>
      <trkpt lat="44.77761" lon="-0.35052">
        <ele>101</ele>
        <time>2013-10-20T12:12:17Z</time>
      </trkpt>
      <trkpt lat="44.77782" lon="-0.35069">
        <ele>101</ele>
        <time>2013-10-20T12:12:24Z</time>
      </trkpt>
      <trkpt lat="44.77805" lon="-0.35089">
        <ele>102</ele>
        <time>2013-10-20T12:12:33Z</time>
      </trkpt>
      <trkpt lat="44.77824" lon="-0.35109">
        <ele>102</ele>
        <time>2013-10-20T12:12:40Z</time>
      </trkpt>
      <trkpt lat="44.77848" lon="-0.35144">
        <ele>102</ele>
        <time>2013-10-20T12:12:49Z</time>
      </trkpt>
      <trkpt lat="44.77871" lon="-0.35188">
        <ele>102</ele>
        <time>2013-10-20T12:12:58Z</time>
      </trkpt>
      <trkpt lat="44.77897" lon="-0.35233">
        <ele>102</ele>
        <time>2013-10-20T12:13:08Z</time>
      </trkpt>
      <trkpt lat="44.77919" lon="-0.35268">
        <ele>102</ele>
        <time>2013-10-20T12:13:17Z</time>
      </trkpt>
      <trkpt lat="44.77944" lon="-0.35307">
        <ele>102</ele>
        <time>2013-10-20T12:13:26Z</time>
      </trkpt>
      <trkpt lat="44.77962" lon="-0.3533">
        <ele>102</ele>
        <time>2013-10-20T12:13:32Z</time>
      </trkpt>
      <trkpt lat="44.77964" lon="-0.35334">
        <ele>102</ele>
        <time>2013-10-20T12:13:33Z</time>
      </trkpt>
      <trkpt lat="44.77984" lon="-0.35358">
        <ele>102</ele>
        <time>2013-10-20T12:13:39Z</time>
      </trkpt>
      <trkpt lat="44.77987" lon="-0.35363">
        <ele>102</ele>
        <time>2013-10-20T12:13:40Z</time>
      </trkpt>
      <trkpt lat="44.7799" lon="-0.35367">
        <ele>102</ele>
        <time>2013-10-20T12:13:41Z</time>
      </trkpt>
      <trkpt lat="44.78023" lon="-0.3542">
        <ele>102</ele>
        <time>2013-10-20T12:13:52Z</time>
      </trkpt>
      <trkpt lat="44.78052" lon="-0.35468">
        <ele>102</ele>
        <time>2013-10-20T12:14:02Z</time>
      </trkpt>
      <trkpt lat="44.78061" lon="-0.35483">
        <ele>102</ele>
        <time>2013-10-20T12:14:05Z</time>
      </trkpt>
      <trkpt lat="44.78064" lon="-0.35487">
        <ele>102</ele>
        <time>2013-10-20T12:14:06Z</time>
      </trkpt>
      <trkpt lat="44.78086" lon="-0.35519">
        <ele>102</ele>
        <time>2013-10-20T12:14:13Z</time>
      </trkpt>
      <trkpt lat="44.78089" lon="-0.35523">
        <ele>102</ele>
        <time>2013-10-20T12:14:14Z</time>
      </trkpt>
      <trkpt lat="44.78093" lon="-0.35527">
        <ele>102</ele>
        <time>2013-10-20T12:14:15Z</time>
      </trkpt>
      <trkpt lat="44.78096" lon="-0.35531">
        <ele>102</ele>
        <time>2013-10-20T12:14:16Z</time>
      </trkpt>
      <trkpt lat="44.78101" lon="-0.35535">
        <ele>102</ele>
        <time>2013-10-20T12:14:17Z</time>
      </trkpt>
      <trkpt lat="44.78122" lon="-0.35555">
        <ele>103</ele>
        <time>2013-10-20T12:14:23Z</time>
      </trkpt>
      <trkpt lat="44.78138" lon="-0.35565">
        <ele>103</ele>
        <time>2013-10-20T12:14:29Z</time>
      </trkpt>
      <trkpt lat="44.78161" lon="-0.35576">
        <ele>103</ele>
        <time>2013-10-20T12:14:36Z</time>
      </trkpt>
      <trkpt lat="44.78168" lon="-0.35581">
        <ele>103</ele>
        <time>2013-10-20T12:14:38Z</time>
      </trkpt>
      <trkpt lat="44.78172" lon="-0.35583">
        <ele>103</ele>
        <time>2013-10-20T12:14:39Z</time>
      </trkpt>
      <trkpt lat="44.78175" lon="-0.35585">
        <ele>103</ele>
        <time>2013-10-20T12:14:40Z</time>
      </trkpt>
      <trkpt lat="44.78193" lon="-0.35599">
        <ele>102</ele>
        <time>2013-10-20T12:14:45Z</time>
      </trkpt>
      <trkpt lat="44.7822" lon="-0.35617">
        <ele>102</ele>
        <time>2013-10-20T12:14:51Z</time>
      </trkpt>
      <trkpt lat="44.78257" lon="-0.35653">
        <ele>101</ele>
        <time>2013-10-20T12:14:59Z</time>
      </trkpt>
      <trkpt lat="44.78306" lon="-0.35697">
        <ele>99</ele>
        <time>2013-10-20T12:15:08Z</time>
      </trkpt>
      <trkpt lat="44.78357" lon="-0.35742">
        <ele>97</ele>
        <time>2013-10-20T12:15:17Z</time>
      </trkpt>
      <trkpt lat="44.7839" lon="-0.35767">
        <ele>98</ele>
        <time>2013-10-20T12:15:23Z</time>
      </trkpt>
      <trkpt lat="44.78407" lon="-0.35778">
        <ele>98</ele>
        <time>2013-10-20T12:15:26Z</time>
      </trkpt>
      <trkpt lat="44.78456" lon="-0.35801">
        <ele>98</ele>
        <time>2013-10-20T12:15:35Z</time>
      </trkpt>
      <trkpt lat="44.78494" lon="-0.35819">
        <ele>98</ele>
        <time>2013-10-20T12:15:42Z</time>
      </trkpt>
      <trkpt lat="44.78499" lon="-0.35823">
        <ele>98</ele>
        <time>2013-10-20T12:15:43Z</time>
      </trkpt>
      <trkpt lat="44.78504" lon="-0.35825">
        <ele>98</ele>
        <time>2013-10-20T12:15:44Z</time>
      </trkpt>
      <trkpt lat="44.78509" lon="-0.35827">
        <ele>98</ele>
        <time>2013-10-20T12:15:45Z</time>
      </trkpt>
      <trkpt lat="44.78514" lon="-0.3583">
        <ele>98</ele>
        <time>2013-10-20T12:15:46Z</time>
      </trkpt>
      <trkpt lat="44.78546" lon="-0.35846">
        <ele>99</ele>
        <time>2013-10-20T12:15:53Z</time>
      </trkpt>
      <trkpt lat="44.78574" lon="-0.35857">
        <ele>98</ele>
        <time>2013-10-20T12:16:00Z</time>
      </trkpt>
      <trkpt lat="44.78604" lon="-0.35873">
        <ele>97</ele>
        <time>2013-10-20T12:16:07Z</time>
      </trkpt>
      <trkpt lat="44.78641" lon="-0.3589">
        <ele>96</ele>
        <time>2013-10-20T12:16:15Z</time>
      </trkpt>
      <trkpt lat="44.78702" lon="-0.35911">
        <ele>96</ele>
        <time>2013-10-20T12:16:26Z</time>
      </trkpt>
      <trkpt lat="44.78744" lon="-0.35917">
        <ele>97</ele>
        <time>2013-10-20T12:16:34Z</time>
      </trkpt>
      <trkpt lat="44.78787" lon="-0.35919">
        <ele>97</ele>
        <time>2013-10-20T12:16:43Z</time>
      </trkpt>
      <trkpt lat="44.78834" lon="-0.35924">
        <ele>97</ele>
        <time>2013-10-20T12:16:52Z</time>
      </trkpt>
      <trkpt lat="44.78866" lon="-0.35931">
        <ele>97</ele>
        <time>2013-10-20T12:16:59Z</time>
      </trkpt>
      <trkpt lat="44.78871" lon="-0.35932">
        <ele>97</ele>
        <time>2013-10-20T12:17:00Z</time>
      </trkpt>
      <trkpt lat="44.78924" lon="-0.35937">
        <ele>97</ele>
        <time>2013-10-20T12:17:10Z</time>
      </trkpt>
      <trkpt lat="44.78967" lon="-0.35942">
        <ele>97</ele>
        <time>2013-10-20T12:17:19Z</time>
      </trkpt>
      <trkpt lat="44.79005" lon="-0.35948">
        <ele>97</ele>
        <time>2013-10-20T12:17:28Z</time>
      </trkpt>
      <trkpt lat="44.79015" lon="-0.35957">
        <ele>96</ele>
        <time>2013-10-20T12:17:31Z</time>
      </trkpt>
      <trkpt lat="44.79016" lon="-0.35963">
        <ele>96</ele>
        <time>2013-10-20T12:17:32Z</time>
      </trkpt>
      <trkpt lat="44.79016" lon="-0.3597">
        <ele>96</ele>
        <time>2013-10-20T12:17:33Z</time>
      </trkpt>
      <trkpt lat="44.79011" lon="-0.36025">
        <ele>95</ele>
        <time>2013-10-20T12:17:39Z</time>
      </trkpt>
      <trkpt lat="44.79009" lon="-0.36057">
        <ele>95</ele>
        <time>2013-10-20T12:17:42Z</time>
      </trkpt>
      <trkpt lat="44.7901" lon="-0.36068">
        <ele>95</ele>
        <time>2013-10-20T12:17:43Z</time>
      </trkpt>
      <trkpt lat="44.79012" lon="-0.36077">
        <ele>95</ele>
        <time>2013-10-20T12:17:44Z</time>
      </trkpt>
      <trkpt lat="44.79015" lon="-0.36086">
        <ele>95</ele>
        <time>2013-10-20T12:17:45Z</time>
      </trkpt>
      <trkpt lat="44.79018" lon="-0.36095">
        <ele>94</ele>
        <time>2013-10-20T12:17:46Z</time>
      </trkpt>
      <trkpt lat="44.79021" lon="-0.36103">
        <ele>94</ele>
        <time>2013-10-20T12:17:47Z</time>
      </trkpt>
      <trkpt lat="44.79042" lon="-0.36155">
        <ele>92</ele>
        <time>2013-10-20T12:17:54Z</time>
      </trkpt>
      <trkpt lat="44.7905" lon="-0.36175">
        <ele>92</ele>
        <time>2013-10-20T12:17:57Z</time>
      </trkpt>
      <trkpt lat="44.79052" lon="-0.36183">
        <ele>92</ele>
        <time>2013-10-20T12:17:58Z</time>
      </trkpt>
      <trkpt lat="44.7906" lon="-0.36211">
        <ele>91</ele>
        <time>2013-10-20T12:18:02Z</time>
      </trkpt>
      <trkpt lat="44.79062" lon="-0.36218">
        <ele>91</ele>
        <time>2013-10-20T12:18:03Z</time>
      </trkpt>
      <trkpt lat="44.79064" lon="-0.36225">
        <ele>91</ele>
        <time>2013-10-20T12:18:04Z</time>
      </trkpt>
      <trkpt lat="44.79072" lon="-0.36288">
        <ele>90</ele>
        <time>2013-10-20T12:18:12Z</time>
      </trkpt>
      <trkpt lat="44.79081" lon="-0.36364">
        <ele>88</ele>
        <time>2013-10-20T12:18:21Z</time>
      </trkpt>
      <trkpt lat="44.79083" lon="-0.36371">
        <ele>87</ele>
        <time>2013-10-20T12:18:22Z</time>
      </trkpt>
      <trkpt lat="44.791" lon="-0.36413">
        <ele>87</ele>
        <time>2013-10-20T12:18:30Z</time>
      </trkpt>
      <trkpt lat="44.79114" lon="-0.36442">
        <ele>87</ele>
        <time>2013-10-20T12:18:37Z</time>
      </trkpt>
      <trkpt lat="44.79125" lon="-0.36468">
        <ele>87</ele>
        <time>2013-10-20T12:18:42Z</time>
      </trkpt>
      <trkpt lat="44.79131" lon="-0.36489">
        <ele>88</ele>
        <time>2013-10-20T12:18:46Z</time>
      </trkpt>
      <trkpt lat="44.79131" lon="-0.36494">
        <ele>88</ele>
        <time>2013-10-20T12:18:47Z</time>
      </trkpt>
      <trkpt lat="44.79133" lon="-0.365">
        <ele>88</ele>
        <time>2013-10-20T12:18:48Z</time>
      </trkpt>
      <trkpt lat="44.79136" lon="-0.36505">
        <ele>88</ele>
        <time>2013-10-20T12:18:49Z</time>
      </trkpt>
      <trkpt lat="44.7914" lon="-0.36511">
        <ele>88</ele>
        <time>2013-10-20T12:18:50Z</time>
      </trkpt>
      <trkpt lat="44.79166" lon="-0.36551">
        <ele>85</ele>
        <time>2013-10-20T12:18:55Z</time>
      </trkpt>
      <trkpt lat="44.79201" lon="-0.36596">
        <ele>80</ele>
        <time>2013-10-20T12:19:00Z</time>
      </trkpt>
      <trkpt lat="44.79208" lon="-0.36605">
        <ele>78</ele>
        <time>2013-10-20T12:19:01Z</time>
      </trkpt>
      <trkpt lat="44.7924" lon="-0.3666">
        <ele>73</ele>
        <time>2013-10-20T12:19:06Z</time>
      </trkpt>
      <trkpt lat="44.7927" lon="-0.36712">
        <ele>71</ele>
        <time>2013-10-20T12:19:11Z</time>
      </trkpt>
      <trkpt lat="44.79288" lon="-0.36732">
        <ele>70</ele>
        <time>2013-10-20T12:19:14Z</time>
      </trkpt>
      <trkpt lat="44.79293" lon="-0.36734">
        <ele>70</ele>
        <time>2013-10-20T12:19:15Z</time>
      </trkpt>
      <trkpt lat="44.79297" lon="-0.36734">
        <ele>70</ele>
        <time>2013-10-20T12:19:16Z</time>
      </trkpt>
      <trkpt lat="44.7931" lon="-0.36737">
        <ele>70</ele>
        <time>2013-10-20T12:19:20Z</time>
      </trkpt>
      <trkpt lat="44.79312" lon="-0.3674">
        <ele>70</ele>
        <time>2013-10-20T12:19:21Z</time>
      </trkpt>
      <trkpt lat="44.79313" lon="-0.36742">
        <ele>70</ele>
        <time>2013-10-20T12:19:22Z</time>
      </trkpt>
      <trkpt lat="44.79313" lon="-0.36745">
        <ele>70</ele>
        <time>2013-10-20T12:19:23Z</time>
      </trkpt>
      <trkpt lat="44.79314" lon="-0.36747">
        <ele>70</ele>
        <time>2013-10-20T12:19:24Z</time>
      </trkpt>
      <trkpt lat="44.79315" lon="-0.36749">
        <ele>70</ele>
        <time>2013-10-20T12:19:25Z</time>
      </trkpt>
      <trkpt lat="44.79315" lon="-0.36752">
        <ele>70</ele>
        <time>2013-10-20T12:19:26Z</time>
      </trkpt>
      <trkpt lat="44.79316" lon="-0.36754">
        <ele>70</ele>
        <time>2013-10-20T12:19:27Z</time>
      </trkpt>
      <trkpt lat="44.79318" lon="-0.36756">
        <ele>70</ele>
        <time>2013-10-20T12:19:33Z</time>
      </trkpt>
      <trkpt lat="44.79318" lon="-0.36757">
        <ele>70</ele>
        <time>2013-10-20T12:19:43Z</time>
      </trkpt>
      <trkpt lat="44.79318" lon="-0.36763">
        <ele>70</ele>
        <time>2013-10-20T12:19:48Z</time>
      </trkpt>
      <trkpt lat="44.79318" lon="-0.36764">
        <ele>70</ele>
        <time>2013-10-20T12:19:51Z</time>
      </trkpt>
      <trkpt lat="44.79321" lon="-0.36766">
        <ele>70</ele>
        <time>2013-10-20T12:19:53Z</time>
      </trkpt>
      <trkpt lat="44.79322" lon="-0.36767">
        <ele>70</ele>
        <time>2013-10-20T12:19:55Z</time>
      </trkpt>
      <trkpt lat="44.79323" lon="-0.36769">
        <ele>70</ele>
        <time>2013-10-20T12:19:56Z</time>
      </trkpt>
      <trkpt lat="44.79323" lon="-0.3677">
        <ele>70</ele>
        <time>2013-10-20T12:19:57Z</time>
      </trkpt>
      <trkpt lat="44.79324" lon="-0.36771">
        <ele>71</ele>
        <time>2013-10-20T12:19:58Z</time>
      </trkpt>
      <trkpt lat="44.79325" lon="-0.36772">
        <ele>71</ele>
        <time>2013-10-20T12:19:59Z</time>
      </trkpt>
      <trkpt lat="44.79326" lon="-0.36773">
        <ele>71</ele>
        <time>2013-10-20T12:20:00Z</time>
      </trkpt>
      <trkpt lat="44.79334" lon="-0.36776">
        <ele>71</ele>
        <time>2013-10-20T12:20:07Z</time>
      </trkpt>
      <trkpt lat="44.79339" lon="-0.36776">
        <ele>71</ele>
        <time>2013-10-20T12:20:14Z</time>
      </trkpt>
      <trkpt lat="44.79343" lon="-0.36777">
        <ele>71</ele>
        <time>2013-10-20T12:20:19Z</time>
      </trkpt>
      <trkpt lat="44.79347" lon="-0.36777">
        <ele>71</ele>
        <time>2013-10-20T12:20:23Z</time>
      </trkpt>
      <trkpt lat="44.79359" lon="-0.36776">
        <ele>71</ele>
        <time>2013-10-20T12:20:29Z</time>
      </trkpt>
      <trkpt lat="44.79375" lon="-0.36777">
        <ele>71</ele>
        <time>2013-10-20T12:20:35Z</time>
      </trkpt>
      <trkpt lat="44.79391" lon="-0.36775">
        <ele>71</ele>
        <time>2013-10-20T12:20:41Z</time>
      </trkpt>
      <trkpt lat="44.79392" lon="-0.36775">
        <ele>71</ele>
        <time>2013-10-20T12:20:42Z</time>
      </trkpt>
      <trkpt lat="44.79402" lon="-0.3678">
        <ele>71</ele>
        <time>2013-10-20T12:20:48Z</time>
      </trkpt>
      <trkpt lat="44.79412" lon="-0.36787">
        <ele>71</ele>
        <time>2013-10-20T12:20:54Z</time>
      </trkpt>
      <trkpt lat="44.79422" lon="-0.36796">
        <ele>72</ele>
        <time>2013-10-20T12:20:59Z</time>
      </trkpt>
      <trkpt lat="44.79427" lon="-0.36815">
        <ele>73</ele>
        <time>2013-10-20T12:21:07Z</time>
      </trkpt>
      <trkpt lat="44.79432" lon="-0.36828">
        <ele>73</ele>
        <time>2013-10-20T12:21:12Z</time>
      </trkpt>
      <trkpt lat="44.79437" lon="-0.36841">
        <ele>74</ele>
        <time>2013-10-20T12:21:17Z</time>
      </trkpt>
      <trkpt lat="44.79438" lon="-0.3685">
        <ele>75</ele>
        <time>2013-10-20T12:21:20Z</time>
      </trkpt>
      <trkpt lat="44.79439" lon="-0.36864">
        <ele>76</ele>
        <time>2013-10-20T12:21:24Z</time>
      </trkpt>
      <trkpt lat="44.79446" lon="-0.36874">
        <ele>77</ele>
        <time>2013-10-20T12:21:29Z</time>
      </trkpt>
      <trkpt lat="44.79458" lon="-0.36875">
        <ele>77</ele>
        <time>2013-10-20T12:21:35Z</time>
      </trkpt>
      <trkpt lat="44.79469" lon="-0.36873">
        <ele>77</ele>
        <time>2013-10-20T12:21:40Z</time>
      </trkpt>
      <trkpt lat="44.79482" lon="-0.3687">
        <ele>77</ele>
        <time>2013-10-20T12:21:45Z</time>
      </trkpt>
      <trkpt lat="44.79486" lon="-0.36868">
        <ele>77</ele>
        <time>2013-10-20T12:21:47Z</time>
      </trkpt>
      <trkpt lat="44.79497" lon="-0.36867">
        <ele>77</ele>
        <time>2013-10-20T12:21:51Z</time>
      </trkpt>
      <trkpt lat="44.79505" lon="-0.3687">
        <ele>78</ele>
        <time>2013-10-20T12:21:55Z</time>
      </trkpt>
      <trkpt lat="44.79518" lon="-0.36875">
        <ele>78</ele>
        <time>2013-10-20T12:22:02Z</time>
      </trkpt>
      <trkpt lat="44.79524" lon="-0.3688">
        <ele>79</ele>
        <time>2013-10-20T12:22:10Z</time>
      </trkpt>
      <trkpt lat="44.79526" lon="-0.36882">
        <ele>79</ele>
        <time>2013-10-20T12:22:14Z</time>
      </trkpt>
      <trkpt lat="44.7953" lon="-0.36893">
        <ele>81</ele>
        <time>2013-10-20T12:22:21Z</time>
      </trkpt>
      <trkpt lat="44.79533" lon="-0.36896">
        <ele>81</ele>
        <time>2013-10-20T12:22:25Z</time>
      </trkpt>
      <trkpt lat="44.79538" lon="-0.369">
        <ele>81</ele>
        <time>2013-10-20T12:22:29Z</time>
      </trkpt>
      <trkpt lat="44.79544" lon="-0.36904">
        <ele>82</ele>
        <time>2013-10-20T12:22:34Z</time>
      </trkpt>
      <trkpt lat="44.7955" lon="-0.3691">
        <ele>82</ele>
        <time>2013-10-20T12:22:41Z</time>
      </trkpt>
      <trkpt lat="44.79553" lon="-0.36915">
        <ele>83</ele>
        <time>2013-10-20T12:22:48Z</time>
      </trkpt>
      <trkpt lat="44.79556" lon="-0.36915">
        <ele>83</ele>
        <time>2013-10-20T12:22:56Z</time>
      </trkpt>
      <trkpt lat="44.79557" lon="-0.36916">
        <ele>83</ele>
        <time>2013-10-20T12:23:04Z</time>
      </trkpt>
      <trkpt lat="44.79558" lon="-0.36916">
        <ele>83</ele>
        <time>2013-10-20T12:23:09Z</time>
      </trkpt>
      <trkpt lat="44.79561" lon="-0.36916">
        <ele>83</ele>
        <time>2013-10-20T12:23:12Z</time>
      </trkpt>
      <trkpt lat="44.79568" lon="-0.36927">
        <ele>84</ele>
        <time>2013-10-20T12:23:18Z</time>
      </trkpt>
      <trkpt lat="44.79572" lon="-0.36936">
        <ele>86</ele>
        <time>2013-10-20T12:23:24Z</time>
      </trkpt>
      <trkpt lat="44.79577" lon="-0.36944">
        <ele>87</ele>
        <time>2013-10-20T12:23:29Z</time>
      </trkpt>
      <trkpt lat="44.79581" lon="-0.3695">
        <ele>88</ele>
        <time>2013-10-20T12:23:33Z</time>
      </trkpt>
      <trkpt lat="44.79583" lon="-0.36953">
        <ele>88</ele>
        <time>2013-10-20T12:23:35Z</time>
      </trkpt>
      <trkpt lat="44.79594" lon="-0.36959">
        <ele>89</ele>
        <time>2013-10-20T12:23:43Z</time>
      </trkpt>
      <trkpt lat="44.79606" lon="-0.36966">
        <ele>91</ele>
        <time>2013-10-20T12:23:51Z</time>
      </trkpt>
      <trkpt lat="44.79612" lon="-0.36966">
        <ele>91</ele>
        <time>2013-10-20T12:23:57Z</time>
      </trkpt>
      <trkpt lat="44.79617" lon="-0.36967">
        <ele>91</ele>
        <time>2013-10-20T12:24:03Z</time>
      </trkpt>
      <trkpt lat="44.79626" lon="-0.3697">
        <ele>92</ele>
        <time>2013-10-20T12:24:09Z</time>
      </trkpt>
      <trkpt lat="44.79644" lon="-0.36972">
        <ele>94</ele>
        <time>2013-10-20T12:24:17Z</time>
      </trkpt>
      <trkpt lat="44.79667" lon="-0.36968">
        <ele>95</ele>
        <time>2013-10-20T12:24:25Z</time>
      </trkpt>
      <trkpt lat="44.79681" lon="-0.36966">
        <ele>95</ele>
        <time>2013-10-20T12:24:31Z</time>
      </trkpt>
      <trkpt lat="44.79693" lon="-0.36978">
        <ele>97</ele>
        <time>2013-10-20T12:24:37Z</time>
      </trkpt>
      <trkpt lat="44.79702" lon="-0.3699">
        <ele>98</ele>
        <time>2013-10-20T12:24:42Z</time>
      </trkpt>
      <trkpt lat="44.79704" lon="-0.36991">
        <ele>98</ele>
        <time>2013-10-20T12:24:47Z</time>
      </trkpt>
      <trkpt lat="44.79705" lon="-0.36993">
        <ele>99</ele>
        <time>2013-10-20T12:24:59Z</time>
      </trkpt>
      <trkpt lat="44.79706" lon="-0.36995">
        <ele>99</ele>
        <time>2013-10-20T12:25:10Z</time>
      </trkpt>
      <trkpt lat="44.79712" lon="-0.37003">
        <ele>99</ele>
        <time>2013-10-20T12:25:16Z</time>
      </trkpt>
      <trkpt lat="44.79719" lon="-0.3703">
        <ele>99</ele>
        <time>2013-10-20T12:25:23Z</time>
      </trkpt>
      <trkpt lat="44.79729" lon="-0.37064">
        <ele>99</ele>
        <time>2013-10-20T12:25:30Z</time>
      </trkpt>
      <trkpt lat="44.79735" lon="-0.37075">
        <ele>99</ele>
        <time>2013-10-20T12:25:32Z</time>
      </trkpt>
      <trkpt lat="44.79746" lon="-0.37108">
        <ele>98</ele>
        <time>2013-10-20T12:25:37Z</time>
      </trkpt>
      <trkpt lat="44.79754" lon="-0.37135">
        <ele>96</ele>
        <time>2013-10-20T12:25:41Z</time>
      </trkpt>
      <trkpt lat="44.79753" lon="-0.37153">
        <ele>96</ele>
        <time>2013-10-20T12:25:45Z</time>
      </trkpt>
      <trkpt lat="44.79752" lon="-0.37155">
        <ele>96</ele>
        <time>2013-10-20T12:25:53Z</time>
      </trkpt>
      <trkpt lat="44.79752" lon="-0.37154">
        <ele>96</ele>
        <time>2013-10-20T12:26:00Z</time>
      </trkpt>
      <trkpt lat="44.79752" lon="-0.37153">
        <ele>96</ele>
        <time>2013-10-20T12:26:04Z</time>
      </trkpt>
      <trkpt lat="44.79753" lon="-0.37148">
        <ele>96</ele>
        <time>2013-10-20T12:26:11Z</time>
      </trkpt>
      <trkpt lat="44.79753" lon="-0.37148">
        <ele>96</ele>
        <time>2013-10-20T12:26:18Z</time>
      </trkpt>
      <trkpt lat="44.79753" lon="-0.37148">
        <ele>96</ele>
        <time>2013-10-20T12:26:30Z</time>
      </trkpt>
      <trkpt lat="44.79754" lon="-0.37149">
        <ele>96</ele>
        <time>2013-10-20T12:26:39Z</time>
      </trkpt>
      <trkpt lat="44.79754" lon="-0.37149">
        <ele>96</ele>
        <time>2013-10-20T12:26:45Z</time>
      </trkpt>
      <trkpt lat="44.79754" lon="-0.37149">
        <ele>96</ele>
        <time>2013-10-20T12:26:56Z</time>
      </trkpt>
      <trkpt lat="44.79754" lon="-0.37149">
        <ele>96</ele>
        <time>2013-10-20T12:27:10Z</time>
      </trkpt>
      <trkpt lat="44.79754" lon="-0.37149">
        <ele>96</ele>
        <time>2013-10-20T12:27:19Z</time>
      </trkpt>
      <trkpt lat="44.79754" lon="-0.3715">
        <ele>96</ele>
        <time>2013-10-20T12:27:28Z</time>
      </trkpt>
      <trkpt lat="44.79754" lon="-0.3715">
        <ele>96</ele>
        <time>2013-10-20T12:27:29Z</time>
      </trkpt>
      <trkpt lat="44.79746" lon="-0.37159">
        <ele>96</ele>
        <time>2013-10-20T12:27:36Z</time>
      </trkpt>
      <trkpt lat="44.7974" lon="-0.37163">
        <ele>96</ele>
        <time>2013-10-20T12:27:43Z</time>
      </trkpt>
      <trkpt lat="44.79738" lon="-0.37167">
        <ele>96</ele>
        <time>2013-10-20T12:27:46Z</time>
      </trkpt>
      <trkpt lat="44.79744" lon="-0.37167">
        <ele>96</ele>
        <time>2013-10-20T12:27:52Z</time>
      </trkpt>
      <trkpt lat="44.79747" lon="-0.37167">
        <ele>96</ele>
        <time>2013-10-20T12:27:58Z</time>
      </trkpt>
      <trkpt lat="44.79749" lon="-0.37167">
        <ele>95</ele>
        <time>2013-10-20T12:28:10Z</time>
      </trkpt>
      <trkpt lat="44.7975" lon="-0.37168">
        <ele>95</ele>
        <time>2013-10-20T12:28:19Z</time>
      </trkpt>
      <trkpt lat="44.7975" lon="-0.37169">
        <ele>95</ele>
        <time>2013-10-20T12:28:32Z</time>
      </trkpt>
      <trkpt lat="44.7975" lon="-0.37169">
        <ele>95</ele>
        <time>2013-10-20T12:28:33Z</time>
      </trkpt>
      <trkpt lat="44.79762" lon="-0.37164">
        <ele>94</ele>
        <time>2013-10-20T12:28:39Z</time>
      </trkpt>
      <trkpt lat="44.79774" lon="-0.37162">
        <ele>94</ele>
        <time>2013-10-20T12:28:42Z</time>
      </trkpt>
      <trkpt lat="44.79778" lon="-0.3716">
        <ele>93</ele>
        <time>2013-10-20T12:28:43Z</time>
      </trkpt>
      <trkpt lat="44.79809" lon="-0.37143">
        <ele>91</ele>
        <time>2013-10-20T12:28:49Z</time>
      </trkpt>
      <trkpt lat="44.79823" lon="-0.37128">
        <ele>91</ele>
        <time>2013-10-20T12:28:52Z</time>
      </trkpt>
      <trkpt lat="44.79827" lon="-0.37122">
        <ele>91</ele>
        <time>2013-10-20T12:28:53Z</time>
      </trkpt>
      <trkpt lat="44.79852" lon="-0.37077">
        <ele>90</ele>
        <time>2013-10-20T12:29:00Z</time>
      </trkpt>
      <trkpt lat="44.79854" lon="-0.37072">
        <ele>90</ele>
        <time>2013-10-20T12:29:01Z</time>
      </trkpt>
      <trkpt lat="44.79856" lon="-0.37067">
        <ele>90</ele>
        <time>2013-10-20T12:29:02Z</time>
      </trkpt>
      <trkpt lat="44.79859" lon="-0.37063">
        <ele>90</ele>
        <time>2013-10-20T12:29:03Z</time>
      </trkpt>
      <trkpt lat="44.79863" lon="-0.3706">
        <ele>90</ele>
        <time>2013-10-20T12:29:04Z</time>
      </trkpt>
      <trkpt lat="44.79872" lon="-0.37053">
        <ele>90</ele>
        <time>2013-10-20T12:29:06Z</time>
      </trkpt>
      <trkpt lat="44.79886" lon="-0.37042">
        <ele>90</ele>
        <time>2013-10-20T12:29:09Z</time>
      </trkpt>
      <trkpt lat="44.79902" lon="-0.37027">
        <ele>89</ele>
        <time>2013-10-20T12:29:13Z</time>
      </trkpt>
      <trkpt lat="44.7991" lon="-0.37019">
        <ele>89</ele>
        <time>2013-10-20T12:29:15Z</time>
      </trkpt>
      <trkpt lat="44.79913" lon="-0.37015">
        <ele>89</ele>
        <time>2013-10-20T12:29:16Z</time>
      </trkpt>
      <trkpt lat="44.7993" lon="-0.36997">
        <ele>89</ele>
        <time>2013-10-20T12:29:21Z</time>
      </trkpt>
      <trkpt lat="44.79938" lon="-0.36989">
        <ele>89</ele>
        <time>2013-10-20T12:29:23Z</time>
      </trkpt>
      <trkpt lat="44.79953" lon="-0.36982">
        <ele>87</ele>
        <time>2013-10-20T12:29:27Z</time>
      </trkpt>
      <trkpt lat="44.79969" lon="-0.36983">
        <ele>86</ele>
        <time>2013-10-20T12:29:33Z</time>
      </trkpt>
      <trkpt lat="44.79974" lon="-0.36983">
        <ele>86</ele>
        <time>2013-10-20T12:29:34Z</time>
      </trkpt>
      <trkpt lat="44.80004" lon="-0.36986">
        <ele>83</ele>
        <time>2013-10-20T12:29:39Z</time>
      </trkpt>
      <trkpt lat="44.80046" lon="-0.36996">
        <ele>78</ele>
        <time>2013-10-20T12:29:46Z</time>
      </trkpt>
      <trkpt lat="44.80078" lon="-0.36996">
        <ele>75</ele>
        <time>2013-10-20T12:29:51Z</time>
      </trkpt>
      <trkpt lat="44.80094" lon="-0.36997">
        <ele>74</ele>
        <time>2013-10-20T12:29:54Z</time>
      </trkpt>
      <trkpt lat="44.80104" lon="-0.36996">
        <ele>73</ele>
        <time>2013-10-20T12:29:56Z</time>
      </trkpt>
      <trkpt lat="44.80125" lon="-0.36994">
        <ele>72</ele>
        <time>2013-10-20T12:30:00Z</time>
      </trkpt>
      <trkpt lat="44.80145" lon="-0.36997">
        <ele>72</ele>
        <time>2013-10-20T12:30:03Z</time>
      </trkpt>
      <trkpt lat="44.80179" lon="-0.37006">
        <ele>71</ele>
        <time>2013-10-20T12:30:09Z</time>
      </trkpt>
      <trkpt lat="44.80203" lon="-0.37024">
        <ele>69</ele>
        <time>2013-10-20T12:30:14Z</time>
      </trkpt>
      <trkpt lat="44.80218" lon="-0.37025">
        <ele>68</ele>
        <time>2013-10-20T12:30:17Z</time>
      </trkpt>
      <trkpt lat="44.80238" lon="-0.37033">
        <ele>67</ele>
        <time>2013-10-20T12:30:22Z</time>
      </trkpt>
      <trkpt lat="44.80247" lon="-0.37024">
        <ele>67</ele>
        <time>2013-10-20T12:30:26Z</time>
      </trkpt>
      <trkpt lat="44.80256" lon="-0.37014">
        <ele>66</ele>
        <time>2013-10-20T12:30:30Z</time>
      </trkpt>
      <trkpt lat="44.80266" lon="-0.37019">
        <ele>65</ele>
        <time>2013-10-20T12:30:32Z</time>
      </trkpt>
      <trkpt lat="44.80275" lon="-0.37025">
        <ele>64</ele>
        <time>2013-10-20T12:30:34Z</time>
      </trkpt>
      <trkpt lat="44.80285" lon="-0.37032">
        <ele>64</ele>
        <time>2013-10-20T12:30:36Z</time>
      </trkpt>
      <trkpt lat="44.80308" lon="-0.37043">
        <ele>61</ele>
        <time>2013-10-20T12:30:41Z</time>
      </trkpt>
      <trkpt lat="44.80317" lon="-0.37043">
        <ele>61</ele>
        <time>2013-10-20T12:30:43Z</time>
      </trkpt>
      <trkpt lat="44.8033" lon="-0.37046">
        <ele>59</ele>
        <time>2013-10-20T12:30:46Z</time>
      </trkpt>
      <trkpt lat="44.80355" lon="-0.3704">
        <ele>57</ele>
        <time>2013-10-20T12:30:51Z</time>
      </trkpt>
      <trkpt lat="44.80367" lon="-0.37034">
        <ele>56</ele>
        <time>2013-10-20T12:30:54Z</time>
      </trkpt>
      <trkpt lat="44.80379" lon="-0.37033">
        <ele>55</ele>
        <time>2013-10-20T12:31:00Z</time>
      </trkpt>
      <trkpt lat="44.80382" lon="-0.37034">
        <ele>55</ele>
        <time>2013-10-20T12:31:05Z</time>
      </trkpt>
      <trkpt lat="44.80393" lon="-0.37038">
        <ele>55</ele>
        <time>2013-10-20T12:31:11Z</time>
      </trkpt>
      <trkpt lat="44.80405" lon="-0.3704">
        <ele>54</ele>
        <time>2013-10-20T12:31:18Z</time>
      </trkpt>
      <trkpt lat="44.8041" lon="-0.37041">
        <ele>54</ele>
        <time>2013-10-20T12:31:25Z</time>
      </trkpt>
      <trkpt lat="44.80413" lon="-0.37042">
        <ele>54</ele>
        <time>2013-10-20T12:31:35Z</time>
      </trkpt>
      <trkpt lat="44.80415" lon="-0.37044">
        <ele>54</ele>
        <time>2013-10-20T12:31:42Z</time>
      </trkpt>
      <trkpt lat="44.80417" lon="-0.37045">
        <ele>54</ele>
        <time>2013-10-20T12:31:54Z</time>
      </trkpt>
      <trkpt lat="44.80417" lon="-0.37045">
        <ele>54</ele>
        <time>2013-10-20T12:32:04Z</time>
      </trkpt>
      <trkpt lat="44.80418" lon="-0.37046">
        <ele>54</ele>
        <time>2013-10-20T12:32:20Z</time>
      </trkpt>
      <trkpt lat="44.80419" lon="-0.37046">
        <ele>54</ele>
        <time>2013-10-20T12:32:35Z</time>
      </trkpt>
      <trkpt lat="44.80422" lon="-0.37047">
        <ele>54</ele>
        <time>2013-10-20T12:32:42Z</time>
      </trkpt>
      <trkpt lat="44.8043" lon="-0.37052">
        <ele>55</ele>
        <time>2013-10-20T12:32:48Z</time>
      </trkpt>
      <trkpt lat="44.80437" lon="-0.37058">
        <ele>55</ele>
        <time>2013-10-20T12:32:53Z</time>
      </trkpt>
      <trkpt lat="44.8045" lon="-0.37071">
        <ele>57</ele>
        <time>2013-10-20T12:33:00Z</time>
      </trkpt>
      <trkpt lat="44.80457" lon="-0.37089">
        <ele>58</ele>
        <time>2013-10-20T12:33:07Z</time>
      </trkpt>
      <trkpt lat="44.80463" lon="-0.37104">
        <ele>60</ele>
        <time>2013-10-20T12:33:13Z</time>
      </trkpt>
      <trkpt lat="44.80464" lon="-0.37106">
        <ele>60</ele>
        <time>2013-10-20T12:33:14Z</time>
      </trkpt>
      <trkpt lat="44.80465" lon="-0.37114">
        <ele>60</ele>
        <time>2013-10-20T12:33:17Z</time>
      </trkpt>
      <trkpt lat="44.80469" lon="-0.37127">
        <ele>62</ele>
        <time>2013-10-20T12:33:22Z</time>
      </trkpt>
      <trkpt lat="44.8047" lon="-0.3715">
        <ele>62</ele>
        <time>2013-10-20T12:33:29Z</time>
      </trkpt>
      <trkpt lat="44.80472" lon="-0.37167">
        <ele>63</ele>
        <time>2013-10-20T12:33:35Z</time>
      </trkpt>
      <trkpt lat="44.80476" lon="-0.3717">
        <ele>63</ele>
        <time>2013-10-20T12:33:37Z</time>
      </trkpt>
      <trkpt lat="44.80481" lon="-0.37173">
        <ele>63</ele>
        <time>2013-10-20T12:33:39Z</time>
      </trkpt>
      <trkpt lat="44.80493" lon="-0.37181">
        <ele>64</ele>
        <time>2013-10-20T12:33:45Z</time>
      </trkpt>
      <trkpt lat="44.80494" lon="-0.37184">
        <ele>64</ele>
        <time>2013-10-20T12:33:52Z</time>
      </trkpt>
      <trkpt lat="44.80498" lon="-0.37187">
        <ele>64</ele>
        <time>2013-10-20T12:33:59Z</time>
      </trkpt>
      <trkpt lat="44.805" lon="-0.37189">
        <ele>65</ele>
        <time>2013-10-20T12:34:01Z</time>
      </trkpt>
      <trkpt lat="44.80502" lon="-0.3719">
        <ele>65</ele>
        <time>2013-10-20T12:34:03Z</time>
      </trkpt>
      <trkpt lat="44.80513" lon="-0.37196">
        <ele>65</ele>
        <time>2013-10-20T12:34:11Z</time>
      </trkpt>
      <trkpt lat="44.80517" lon="-0.37197">
        <ele>65</ele>
        <time>2013-10-20T12:34:13Z</time>
      </trkpt>
      <trkpt lat="44.80537" lon="-0.37205">
        <ele>66</ele>
        <time>2013-10-20T12:34:20Z</time>
      </trkpt>
      <trkpt lat="44.80556" lon="-0.37215">
        <ele>66</ele>
        <time>2013-10-20T12:34:26Z</time>
      </trkpt>
      <trkpt lat="44.80566" lon="-0.3722">
        <ele>66</ele>
        <time>2013-10-20T12:34:31Z</time>
      </trkpt>
      <trkpt lat="44.80569" lon="-0.37222">
        <ele>66</ele>
        <time>2013-10-20T12:34:40Z</time>
      </trkpt>
      <trkpt lat="44.80571" lon="-0.37222">
        <ele>66</ele>
        <time>2013-10-20T12:34:49Z</time>
      </trkpt>
      <trkpt lat="44.80578" lon="-0.37211">
        <ele>65</ele>
        <time>2013-10-20T12:34:54Z</time>
      </trkpt>
      <trkpt lat="44.80598" lon="-0.37181">
        <ele>64</ele>
        <time>2013-10-20T12:35:03Z</time>
      </trkpt>
      <trkpt lat="44.80612" lon="-0.37157">
        <ele>63</ele>
        <time>2013-10-20T12:35:11Z</time>
      </trkpt>
      <trkpt lat="44.80628" lon="-0.37131">
        <ele>61</ele>
        <time>2013-10-20T12:35:19Z</time>
      </trkpt>
      <trkpt lat="44.80648" lon="-0.37098">
        <ele>59</ele>
        <time>2013-10-20T12:35:25Z</time>
      </trkpt>
      <trkpt lat="44.80662" lon="-0.37075">
        <ele>57</ele>
        <time>2013-10-20T12:35:28Z</time>
      </trkpt>
      <trkpt lat="44.80668" lon="-0.37067">
        <ele>56</ele>
        <time>2013-10-20T12:35:29Z</time>
      </trkpt>
      <trkpt lat="44.80682" lon="-0.37053">
        <ele>54</ele>
        <time>2013-10-20T12:35:31Z</time>
      </trkpt>
      <trkpt lat="44.80732" lon="-0.37021">
        <ele>51</ele>
        <time>2013-10-20T12:35:37Z</time>
      </trkpt>
      <trkpt lat="44.80793" lon="-0.36995">
        <ele>48</ele>
        <time>2013-10-20T12:35:44Z</time>
      </trkpt>
      <trkpt lat="44.80843" lon="-0.36981">
        <ele>47</ele>
        <time>2013-10-20T12:35:50Z</time>
      </trkpt>
      <trkpt lat="44.80906" lon="-0.36971">
        <ele>46</ele>
        <time>2013-10-20T12:35:58Z</time>
      </trkpt>
      <trkpt lat="44.80949" lon="-0.36963">
        <ele>47</ele>
        <time>2013-10-20T12:36:04Z</time>
      </trkpt>
      <trkpt lat="44.80994" lon="-0.36954">
        <ele>48</ele>
        <time>2013-10-20T12:36:11Z</time>
      </trkpt>
      <trkpt lat="44.8104" lon="-0.36938">
        <ele>47</ele>
        <time>2013-10-20T12:36:19Z</time>
      </trkpt>
      <trkpt lat="44.81049" lon="-0.36933">
        <ele>47</ele>
        <time>2013-10-20T12:36:21Z</time>
      </trkpt>
      <trkpt lat="44.81052" lon="-0.36927">
        <ele>47</ele>
        <time>2013-10-20T12:36:22Z</time>
      </trkpt>
      <trkpt lat="44.81055" lon="-0.36921">
        <ele>46</ele>
        <time>2013-10-20T12:36:23Z</time>
      </trkpt>
      <trkpt lat="44.81056" lon="-0.36913">
        <ele>46</ele>
        <time>2013-10-20T12:36:24Z</time>
      </trkpt>
      <trkpt lat="44.81056" lon="-0.36905">
        <ele>46</ele>
        <time>2013-10-20T12:36:25Z</time>
      </trkpt>
      <trkpt lat="44.81056" lon="-0.36897">
        <ele>45</ele>
        <time>2013-10-20T12:36:26Z</time>
      </trkpt>
      <trkpt lat="44.81055" lon="-0.36889">
        <ele>45</ele>
        <time>2013-10-20T12:36:27Z</time>
      </trkpt>
      <trkpt lat="44.81053" lon="-0.36872">
        <ele>45</ele>
        <time>2013-10-20T12:36:29Z</time>
      </trkpt>
      <trkpt lat="44.81049" lon="-0.36849">
        <ele>44</ele>
        <time>2013-10-20T12:36:32Z</time>
      </trkpt>
      <trkpt lat="44.81044" lon="-0.36807">
        <ele>44</ele>
        <time>2013-10-20T12:36:37Z</time>
      </trkpt>
      <trkpt lat="44.81045" lon="-0.36799">
        <ele>44</ele>
        <time>2013-10-20T12:36:38Z</time>
      </trkpt>
      <trkpt lat="44.81045" lon="-0.36792">
        <ele>44</ele>
        <time>2013-10-20T12:36:39Z</time>
      </trkpt>
      <trkpt lat="44.81047" lon="-0.36784">
        <ele>44</ele>
        <time>2013-10-20T12:36:40Z</time>
      </trkpt>
      <trkpt lat="44.81049" lon="-0.36777">
        <ele>44</ele>
        <time>2013-10-20T12:36:41Z</time>
      </trkpt>
      <trkpt lat="44.81052" lon="-0.36762">
        <ele>44</ele>
        <time>2013-10-20T12:36:43Z</time>
      </trkpt>
      <trkpt lat="44.81054" lon="-0.36754">
        <ele>45</ele>
        <time>2013-10-20T12:36:44Z</time>
      </trkpt>
      <trkpt lat="44.81063" lon="-0.36717">
        <ele>45</ele>
        <time>2013-10-20T12:36:49Z</time>
      </trkpt>
      <trkpt lat="44.81065" lon="-0.3671">
        <ele>45</ele>
        <time>2013-10-20T12:36:50Z</time>
      </trkpt>
      <trkpt lat="44.81066" lon="-0.36704">
        <ele>45</ele>
        <time>2013-10-20T12:36:51Z</time>
      </trkpt>
      <trkpt lat="44.81074" lon="-0.36679">
        <ele>46</ele>
        <time>2013-10-20T12:36:55Z</time>
      </trkpt>
      <trkpt lat="44.81076" lon="-0.36674">
        <ele>46</ele>
        <time>2013-10-20T12:36:56Z</time>
      </trkpt>
      <trkpt lat="44.8108" lon="-0.36647">
        <ele>46</ele>
        <time>2013-10-20T12:37:02Z</time>
      </trkpt>
      <trkpt lat="44.81079" lon="-0.36644">
        <ele>47</ele>
        <time>2013-10-20T12:37:03Z</time>
      </trkpt>
      <trkpt lat="44.81067" lon="-0.3663">
        <ele>48</ele>
        <time>2013-10-20T12:37:09Z</time>
      </trkpt>
      <trkpt lat="44.81053" lon="-0.36615">
        <ele>51</ele>
        <time>2013-10-20T12:37:14Z</time>
      </trkpt>
      <trkpt lat="44.81038" lon="-0.36598">
        <ele>54</ele>
        <time>2013-10-20T12:37:21Z</time>
      </trkpt>
      <trkpt lat="44.81029" lon="-0.36585">
        <ele>55</ele>
        <time>2013-10-20T12:37:27Z</time>
      </trkpt>
      <trkpt lat="44.81021" lon="-0.36573">
        <ele>56</ele>
        <time>2013-10-20T12:37:33Z</time>
      </trkpt>
      <trkpt lat="44.81016" lon="-0.36563">
        <ele>57</ele>
        <time>2013-10-20T12:37:37Z</time>
      </trkpt>
      <trkpt lat="44.81005" lon="-0.36547">
        <ele>58</ele>
        <time>2013-10-20T12:37:44Z</time>
      </trkpt>
      <trkpt lat="44.80994" lon="-0.36528">
        <ele>60</ele>
        <time>2013-10-20T12:37:53Z</time>
      </trkpt>
      <trkpt lat="44.80984" lon="-0.36511">
        <ele>61</ele>
        <time>2013-10-20T12:38:01Z</time>
      </trkpt>
      <trkpt lat="44.80973" lon="-0.36493">
        <ele>64</ele>
        <time>2013-10-20T12:38:08Z</time>
      </trkpt>
      <trkpt lat="44.80971" lon="-0.36488">
        <ele>64</ele>
        <time>2013-10-20T12:38:10Z</time>
      </trkpt>
      <trkpt lat="44.8097" lon="-0.36486">
        <ele>64</ele>
        <time>2013-10-20T12:38:11Z</time>
      </trkpt>
      <trkpt lat="44.80966" lon="-0.36475">
        <ele>65</ele>
        <time>2013-10-20T12:38:15Z</time>
      </trkpt>
      <trkpt lat="44.80965" lon="-0.36472">
        <ele>65</ele>
        <time>2013-10-20T12:38:16Z</time>
      </trkpt>
      <trkpt lat="44.80965" lon="-0.3647">
        <ele>65</ele>
        <time>2013-10-20T12:38:17Z</time>
      </trkpt>
      <trkpt lat="44.80964" lon="-0.36467">
        <ele>65</ele>
        <time>2013-10-20T12:38:18Z</time>
      </trkpt>
      <trkpt lat="44.80963" lon="-0.36464">
        <ele>66</ele>
        <time>2013-10-20T12:38:19Z</time>
      </trkpt>
      <trkpt lat="44.80962" lon="-0.36462">
        <ele>66</ele>
        <time>2013-10-20T12:38:20Z</time>
      </trkpt>
      <trkpt lat="44.80959" lon="-0.36445">
        <ele>67</ele>
        <time>2013-10-20T12:38:27Z</time>
      </trkpt>
      <trkpt lat="44.80957" lon="-0.36428">
        <ele>68</ele>
        <time>2013-10-20T12:38:36Z</time>
      </trkpt>
      <trkpt lat="44.80956" lon="-0.36415">
        <ele>69</ele>
        <time>2013-10-20T12:38:42Z</time>
      </trkpt>
      <trkpt lat="44.80954" lon="-0.36401">
        <ele>70</ele>
        <time>2013-10-20T12:38:48Z</time>
      </trkpt>
      <trkpt lat="44.80953" lon="-0.36399">
        <ele>71</ele>
        <time>2013-10-20T12:38:49Z</time>
      </trkpt>
      <trkpt lat="44.80952" lon="-0.36396">
        <ele>71</ele>
        <time>2013-10-20T12:38:50Z</time>
      </trkpt>
      <trkpt lat="44.80951" lon="-0.36394">
        <ele>71</ele>
        <time>2013-10-20T12:38:51Z</time>
      </trkpt>
      <trkpt lat="44.8095" lon="-0.36393">
        <ele>71</ele>
        <time>2013-10-20T12:38:52Z</time>
      </trkpt>
      <trkpt lat="44.8095" lon="-0.36391">
        <ele>72</ele>
        <time>2013-10-20T12:38:53Z</time>
      </trkpt>
      <trkpt lat="44.80949" lon="-0.36389">
        <ele>72</ele>
        <time>2013-10-20T12:38:54Z</time>
      </trkpt>
      <trkpt lat="44.80948" lon="-0.36387">
        <ele>72</ele>
        <time>2013-10-20T12:38:55Z</time>
      </trkpt>
      <trkpt lat="44.80947" lon="-0.36385">
        <ele>72</ele>
        <time>2013-10-20T12:38:56Z</time>
      </trkpt>
      <trkpt lat="44.80947" lon="-0.36383">
        <ele>72</ele>
        <time>2013-10-20T12:38:57Z</time>
      </trkpt>
      <trkpt lat="44.80946" lon="-0.36381">
        <ele>73</ele>
        <time>2013-10-20T12:38:58Z</time>
      </trkpt>
      <trkpt lat="44.80945" lon="-0.36379">
        <ele>73</ele>
        <time>2013-10-20T12:38:59Z</time>
      </trkpt>
      <trkpt lat="44.80944" lon="-0.36378">
        <ele>73</ele>
        <time>2013-10-20T12:39:00Z</time>
      </trkpt>
      <trkpt lat="44.80943" lon="-0.36376">
        <ele>73</ele>
        <time>2013-10-20T12:39:01Z</time>
      </trkpt>
      <trkpt lat="44.80942" lon="-0.36374">
        <ele>74</ele>
        <time>2013-10-20T12:39:02Z</time>
      </trkpt>
      <trkpt lat="44.80934" lon="-0.36358">
        <ele>76</ele>
        <time>2013-10-20T12:39:10Z</time>
      </trkpt>
      <trkpt lat="44.80925" lon="-0.36342">
        <ele>78</ele>
        <time>2013-10-20T12:39:19Z</time>
      </trkpt>
      <trkpt lat="44.80922" lon="-0.36336">
        <ele>79</ele>
        <time>2013-10-20T12:39:22Z</time>
      </trkpt>
      <trkpt lat="44.80921" lon="-0.36335">
        <ele>79</ele>
        <time>2013-10-20T12:39:23Z</time>
      </trkpt>
      <trkpt lat="44.8092" lon="-0.36333">
        <ele>79</ele>
        <time>2013-10-20T12:39:24Z</time>
      </trkpt>
      <trkpt lat="44.80919" lon="-0.36331">
        <ele>79</ele>
        <time>2013-10-20T12:39:25Z</time>
      </trkpt>
      <trkpt lat="44.80918" lon="-0.36329">
        <ele>79</ele>
        <time>2013-10-20T12:39:26Z</time>
      </trkpt>
      <trkpt lat="44.80917" lon="-0.36327">
        <ele>80</ele>
        <time>2013-10-20T12:39:27Z</time>
      </trkpt>
      <trkpt lat="44.80916" lon="-0.36325">
        <ele>80</ele>
        <time>2013-10-20T12:39:28Z</time>
      </trkpt>
      <trkpt lat="44.80915" lon="-0.36323">
        <ele>80</ele>
        <time>2013-10-20T12:39:29Z</time>
      </trkpt>
      <trkpt lat="44.80914" lon="-0.36321">
        <ele>80</ele>
        <time>2013-10-20T12:39:30Z</time>
      </trkpt>
      <trkpt lat="44.80913" lon="-0.3632">
        <ele>81</ele>
        <time>2013-10-20T12:39:31Z</time>
      </trkpt>
      <trkpt lat="44.80912" lon="-0.36318">
        <ele>81</ele>
        <time>2013-10-20T12:39:32Z</time>
      </trkpt>
      <trkpt lat="44.80911" lon="-0.36315">
        <ele>81</ele>
        <time>2013-10-20T12:39:33Z</time>
      </trkpt>
      <trkpt lat="44.80911" lon="-0.36313">
        <ele>81</ele>
        <time>2013-10-20T12:39:34Z</time>
      </trkpt>
      <trkpt lat="44.8091" lon="-0.36311">
        <ele>82</ele>
        <time>2013-10-20T12:39:35Z</time>
      </trkpt>
      <trkpt lat="44.8091" lon="-0.36308">
        <ele>82</ele>
        <time>2013-10-20T12:39:36Z</time>
      </trkpt>
      <trkpt lat="44.80909" lon="-0.36306">
        <ele>82</ele>
        <time>2013-10-20T12:39:37Z</time>
      </trkpt>
      <trkpt lat="44.80908" lon="-0.36304">
        <ele>82</ele>
        <time>2013-10-20T12:39:38Z</time>
      </trkpt>
      <trkpt lat="44.80901" lon="-0.36289">
        <ele>85</ele>
        <time>2013-10-20T12:39:45Z</time>
      </trkpt>
      <trkpt lat="44.80894" lon="-0.36278">
        <ele>86</ele>
        <time>2013-10-20T12:39:51Z</time>
      </trkpt>
      <trkpt lat="44.80875" lon="-0.36259">
        <ele>87</ele>
        <time>2013-10-20T12:40:01Z</time>
      </trkpt>
      <trkpt lat="44.80858" lon="-0.36239">
        <ele>88</ele>
        <time>2013-10-20T12:40:11Z</time>
      </trkpt>
      <trkpt lat="44.80859" lon="-0.36223">
        <ele>89</ele>
        <time>2013-10-20T12:40:16Z</time>
      </trkpt>
      <trkpt lat="44.80868" lon="-0.36208">
        <ele>89</ele>
        <time>2013-10-20T12:40:23Z</time>
      </trkpt>
      <trkpt lat="44.80871" lon="-0.36199">
        <ele>88</ele>
        <time>2013-10-20T12:40:27Z</time>
      </trkpt>
      <trkpt lat="44.80871" lon="-0.36196">
        <ele>88</ele>
        <time>2013-10-20T12:40:28Z</time>
      </trkpt>
      <trkpt lat="44.80873" lon="-0.36173">
        <ele>88</ele>
        <time>2013-10-20T12:40:35Z</time>
      </trkpt>
      <trkpt lat="44.80873" lon="-0.36172">
        <ele>88</ele>
        <time>2013-10-20T12:40:41Z</time>
      </trkpt>
      <trkpt lat="44.80873" lon="-0.36171">
        <ele>88</ele>
        <time>2013-10-20T12:40:49Z</time>
      </trkpt>
      <trkpt lat="44.80873" lon="-0.36172">
        <ele>88</ele>
        <time>2013-10-20T12:41:03Z</time>
      </trkpt>
      <trkpt lat="44.80873" lon="-0.36172">
        <ele>88</ele>
        <time>2013-10-20T12:41:13Z</time>
      </trkpt>
      <trkpt lat="44.80873" lon="-0.36172">
        <ele>88</ele>
        <time>2013-10-20T12:41:27Z</time>
      </trkpt>
      <trkpt lat="44.80873" lon="-0.36172">
        <ele>88</ele>
        <time>2013-10-20T12:41:38Z</time>
      </trkpt>
      <trkpt lat="44.80873" lon="-0.36172">
        <ele>88</ele>
        <time>2013-10-20T12:41:48Z</time>
      </trkpt>
      <trkpt lat="44.80873" lon="-0.36172">
        <ele>88</ele>
        <time>2013-10-20T12:41:57Z</time>
      </trkpt>
      <trkpt lat="44.80874" lon="-0.36171">
        <ele>88</ele>
        <time>2013-10-20T12:42:09Z</time>
      </trkpt>
      <trkpt lat="44.80874" lon="-0.36171">
        <ele>88</ele>
        <time>2013-10-20T12:42:21Z</time>
      </trkpt>
      <trkpt lat="44.80874" lon="-0.36171">
        <ele>88</ele>
        <time>2013-10-20T12:42:24Z</time>
      </trkpt>
      <trkpt lat="44.80874" lon="-0.3617">
        <ele>88</ele>
        <time>2013-10-20T12:42:25Z</time>
      </trkpt>
      <trkpt lat="44.80875" lon="-0.36168">
        <ele>88</ele>
        <time>2013-10-20T12:42:26Z</time>
      </trkpt>
      <trkpt lat="44.80878" lon="-0.36145">
        <ele>87</ele>
        <time>2013-10-20T12:42:32Z</time>
      </trkpt>
      <trkpt lat="44.80879" lon="-0.3614">
        <ele>87</ele>
        <time>2013-10-20T12:42:33Z</time>
      </trkpt>
      <trkpt lat="44.8088" lon="-0.36134">
        <ele>87</ele>
        <time>2013-10-20T12:42:34Z</time>
      </trkpt>
      <trkpt lat="44.8088" lon="-0.36129">
        <ele>87</ele>
        <time>2013-10-20T12:42:35Z</time>
      </trkpt>
      <trkpt lat="44.80881" lon="-0.36123">
        <ele>86</ele>
        <time>2013-10-20T12:42:36Z</time>
      </trkpt>
      <trkpt lat="44.80882" lon="-0.36117">
        <ele>86</ele>
        <time>2013-10-20T12:42:37Z</time>
      </trkpt>
      <trkpt lat="44.80889" lon="-0.36059">
        <ele>85</ele>
        <time>2013-10-20T12:42:45Z</time>
      </trkpt>
      <trkpt lat="44.80897" lon="-0.36006">
        <ele>87</ele>
        <time>2013-10-20T12:42:54Z</time>
      </trkpt>
      <trkpt lat="44.809" lon="-0.35997">
        <ele>87</ele>
        <time>2013-10-20T12:42:56Z</time>
      </trkpt>
      <trkpt lat="44.80903" lon="-0.35992">
        <ele>87</ele>
        <time>2013-10-20T12:42:57Z</time>
      </trkpt>
      <trkpt lat="44.80926" lon="-0.35957">
        <ele>86</ele>
        <time>2013-10-20T12:43:04Z</time>
      </trkpt>
      <trkpt lat="44.80935" lon="-0.35944">
        <ele>85</ele>
        <time>2013-10-20T12:43:07Z</time>
      </trkpt>
      <trkpt lat="44.80948" lon="-0.35927">
        <ele>83</ele>
        <time>2013-10-20T12:43:13Z</time>
      </trkpt>
      <trkpt lat="44.80951" lon="-0.35927">
        <ele>82</ele>
        <time>2013-10-20T12:43:14Z</time>
      </trkpt>
      <trkpt lat="44.80955" lon="-0.35928">
        <ele>82</ele>
        <time>2013-10-20T12:43:15Z</time>
      </trkpt>
      <trkpt lat="44.80959" lon="-0.35931">
        <ele>81</ele>
        <time>2013-10-20T12:43:16Z</time>
      </trkpt>
      <trkpt lat="44.80963" lon="-0.35934">
        <ele>81</ele>
        <time>2013-10-20T12:43:17Z</time>
      </trkpt>
      <trkpt lat="44.80968" lon="-0.35938">
        <ele>80</ele>
        <time>2013-10-20T12:43:18Z</time>
      </trkpt>
      <trkpt lat="44.80999" lon="-0.35961">
        <ele>77</ele>
        <time>2013-10-20T12:43:23Z</time>
      </trkpt>
      <trkpt lat="44.8105" lon="-0.35992">
        <ele>72</ele>
        <time>2013-10-20T12:43:29Z</time>
      </trkpt>
      <trkpt lat="44.81059" lon="-0.35995">
        <ele>72</ele>
        <time>2013-10-20T12:43:30Z</time>
      </trkpt>
      <trkpt lat="44.81098" lon="-0.36007">
        <ele>69</ele>
        <time>2013-10-20T12:43:34Z</time>
      </trkpt>
      <trkpt lat="44.81107" lon="-0.36013">
        <ele>68</ele>
        <time>2013-10-20T12:43:35Z</time>
      </trkpt>
      <trkpt lat="44.81116" lon="-0.36022">
        <ele>67</ele>
        <time>2013-10-20T12:43:36Z</time>
      </trkpt>
      <trkpt lat="44.81124" lon="-0.36032">
        <ele>67</ele>
        <time>2013-10-20T12:43:37Z</time>
      </trkpt>
      <trkpt lat="44.81133" lon="-0.36043">
        <ele>66</ele>
        <time>2013-10-20T12:43:38Z</time>
      </trkpt>
      <trkpt lat="44.81164" lon="-0.3608">
        <ele>62</ele>
        <time>2013-10-20T12:43:42Z</time>
      </trkpt>
      <trkpt lat="44.81171" lon="-0.36086">
        <ele>61</ele>
        <time>2013-10-20T12:43:43Z</time>
      </trkpt>
      <trkpt lat="44.81177" lon="-0.3609">
        <ele>60</ele>
        <time>2013-10-20T12:43:44Z</time>
      </trkpt>
      <trkpt lat="44.81183" lon="-0.36092">
        <ele>60</ele>
        <time>2013-10-20T12:43:45Z</time>
      </trkpt>
      <trkpt lat="44.81189" lon="-0.36091">
        <ele>60</ele>
        <time>2013-10-20T12:43:46Z</time>
      </trkpt>
      <trkpt lat="44.81194" lon="-0.36086">
        <ele>59</ele>
        <time>2013-10-20T12:43:47Z</time>
      </trkpt>
      <trkpt lat="44.81197" lon="-0.36079">
        <ele>59</ele>
        <time>2013-10-20T12:43:48Z</time>
      </trkpt>
      <trkpt lat="44.81199" lon="-0.3607">
        <ele>59</ele>
        <time>2013-10-20T12:43:49Z</time>
      </trkpt>
      <trkpt lat="44.812" lon="-0.36061">
        <ele>59</ele>
        <time>2013-10-20T12:43:50Z</time>
      </trkpt>
      <trkpt lat="44.81202" lon="-0.36052">
        <ele>59</ele>
        <time>2013-10-20T12:43:51Z</time>
      </trkpt>
      <trkpt lat="44.81205" lon="-0.36032">
        <ele>59</ele>
        <time>2013-10-20T12:43:53Z</time>
      </trkpt>
      <trkpt lat="44.81208" lon="-0.36024">
        <ele>59</ele>
        <time>2013-10-20T12:43:54Z</time>
      </trkpt>
      <trkpt lat="44.81213" lon="-0.36017">
        <ele>58</ele>
        <time>2013-10-20T12:43:55Z</time>
      </trkpt>
      <trkpt lat="44.81219" lon="-0.36013">
        <ele>58</ele>
        <time>2013-10-20T12:43:56Z</time>
      </trkpt>
      <trkpt lat="44.81226" lon="-0.36013">
        <ele>58</ele>
        <time>2013-10-20T12:43:57Z</time>
      </trkpt>
      <trkpt lat="44.81232" lon="-0.36015">
        <ele>57</ele>
        <time>2013-10-20T12:43:58Z</time>
      </trkpt>
      <trkpt lat="44.81239" lon="-0.36017">
        <ele>57</ele>
        <time>2013-10-20T12:43:59Z</time>
      </trkpt>
      <trkpt lat="44.8128" lon="-0.3603">
        <ele>55</ele>
        <time>2013-10-20T12:44:06Z</time>
      </trkpt>
      <trkpt lat="44.81318" lon="-0.36045">
        <ele>52</ele>
        <time>2013-10-20T12:44:12Z</time>
      </trkpt>
      <trkpt lat="44.81325" lon="-0.36049">
        <ele>52</ele>
        <time>2013-10-20T12:44:13Z</time>
      </trkpt>
      <trkpt lat="44.81331" lon="-0.36054">
        <ele>51</ele>
        <time>2013-10-20T12:44:14Z</time>
      </trkpt>
      <trkpt lat="44.81338" lon="-0.36061">
        <ele>51</ele>
        <time>2013-10-20T12:44:15Z</time>
      </trkpt>
      <trkpt lat="44.81345" lon="-0.36069">
        <ele>51</ele>
        <time>2013-10-20T12:44:16Z</time>
      </trkpt>
      <trkpt lat="44.81351" lon="-0.36079">
        <ele>50</ele>
        <time>2013-10-20T12:44:17Z</time>
      </trkpt>
      <trkpt lat="44.81358" lon="-0.36089">
        <ele>49</ele>
        <time>2013-10-20T12:44:18Z</time>
      </trkpt>
      <trkpt lat="44.81365" lon="-0.36099">
        <ele>48</ele>
        <time>2013-10-20T12:44:19Z</time>
      </trkpt>
      <trkpt lat="44.81372" lon="-0.36109">
        <ele>47</ele>
        <time>2013-10-20T12:44:20Z</time>
      </trkpt>
      <trkpt lat="44.81381" lon="-0.36117">
        <ele>46</ele>
        <time>2013-10-20T12:44:21Z</time>
      </trkpt>
      <trkpt lat="44.81391" lon="-0.36123">
        <ele>46</ele>
        <time>2013-10-20T12:44:22Z</time>
      </trkpt>
      <trkpt lat="44.81401" lon="-0.36128">
        <ele>45</ele>
        <time>2013-10-20T12:44:23Z</time>
      </trkpt>
      <trkpt lat="44.81412" lon="-0.36132">
        <ele>44</ele>
        <time>2013-10-20T12:44:24Z</time>
      </trkpt>
      <trkpt lat="44.81458" lon="-0.36154">
        <ele>41</ele>
        <time>2013-10-20T12:44:29Z</time>
      </trkpt>
      <trkpt lat="44.81518" lon="-0.36171">
        <ele>42</ele>
        <time>2013-10-20T12:44:36Z</time>
      </trkpt>
      <trkpt lat="44.81556" lon="-0.36185">
        <ele>44</ele>
        <time>2013-10-20T12:44:41Z</time>
      </trkpt>
      <trkpt lat="44.81564" lon="-0.3619">
        <ele>44</ele>
        <time>2013-10-20T12:44:42Z</time>
      </trkpt>
      <trkpt lat="44.8157" lon="-0.36195">
        <ele>45</ele>
        <time>2013-10-20T12:44:43Z</time>
      </trkpt>
      <trkpt lat="44.8161" lon="-0.3623">
        <ele>48</ele>
        <time>2013-10-20T12:44:49Z</time>
      </trkpt>
      <trkpt lat="44.81617" lon="-0.36231">
        <ele>48</ele>
        <time>2013-10-20T12:44:50Z</time>
      </trkpt>
      <trkpt lat="44.81624" lon="-0.3623">
        <ele>49</ele>
        <time>2013-10-20T12:44:51Z</time>
      </trkpt>
      <trkpt lat="44.8163" lon="-0.36226">
        <ele>49</ele>
        <time>2013-10-20T12:44:52Z</time>
      </trkpt>
      <trkpt lat="44.81636" lon="-0.3622">
        <ele>49</ele>
        <time>2013-10-20T12:44:53Z</time>
      </trkpt>
      <trkpt lat="44.81642" lon="-0.36215">
        <ele>50</ele>
        <time>2013-10-20T12:44:54Z</time>
      </trkpt>
      <trkpt lat="44.81647" lon="-0.36209">
        <ele>50</ele>
        <time>2013-10-20T12:44:55Z</time>
      </trkpt>
      <trkpt lat="44.81679" lon="-0.36176">
        <ele>52</ele>
        <time>2013-10-20T12:45:02Z</time>
      </trkpt>
      <trkpt lat="44.81698" lon="-0.36158">
        <ele>53</ele>
        <time>2013-10-20T12:45:07Z</time>
      </trkpt>
      <trkpt lat="44.81715" lon="-0.36145">
        <ele>54</ele>
        <time>2013-10-20T12:45:13Z</time>
      </trkpt>
      <trkpt lat="44.8173" lon="-0.36135">
        <ele>56</ele>
        <time>2013-10-20T12:45:20Z</time>
      </trkpt>
      <trkpt lat="44.81742" lon="-0.36131">
        <ele>57</ele>
        <time>2013-10-20T12:45:26Z</time>
      </trkpt>
      <trkpt lat="44.81757" lon="-0.36131">
        <ele>58</ele>
        <time>2013-10-20T12:45:32Z</time>
      </trkpt>
      <trkpt lat="44.81771" lon="-0.36139">
        <ele>59</ele>
        <time>2013-10-20T12:45:37Z</time>
      </trkpt>
      <trkpt lat="44.81786" lon="-0.36151">
        <ele>60</ele>
        <time>2013-10-20T12:45:44Z</time>
      </trkpt>
      <trkpt lat="44.81804" lon="-0.36168">
        <ele>61</ele>
        <time>2013-10-20T12:45:52Z</time>
      </trkpt>
      <trkpt lat="44.81825" lon="-0.36173">
        <ele>63</ele>
        <time>2013-10-20T12:45:59Z</time>
      </trkpt>
      <trkpt lat="44.81852" lon="-0.36171">
        <ele>63</ele>
        <time>2013-10-20T12:46:06Z</time>
      </trkpt>
      <trkpt lat="44.81861" lon="-0.36178">
        <ele>63</ele>
        <time>2013-10-20T12:46:09Z</time>
      </trkpt>
      <trkpt lat="44.81862" lon="-0.36184">
        <ele>63</ele>
        <time>2013-10-20T12:46:10Z</time>
      </trkpt>
      <trkpt lat="44.81863" lon="-0.3619">
        <ele>63</ele>
        <time>2013-10-20T12:46:11Z</time>
      </trkpt>
      <trkpt lat="44.81864" lon="-0.36196">
        <ele>63</ele>
        <time>2013-10-20T12:46:12Z</time>
      </trkpt>
      <trkpt lat="44.81865" lon="-0.36201">
        <ele>63</ele>
        <time>2013-10-20T12:46:13Z</time>
      </trkpt>
      <trkpt lat="44.81866" lon="-0.36207">
        <ele>63</ele>
        <time>2013-10-20T12:46:14Z</time>
      </trkpt>
      <trkpt lat="44.81873" lon="-0.36256">
        <ele>64</ele>
        <time>2013-10-20T12:46:23Z</time>
      </trkpt>
      <trkpt lat="44.81872" lon="-0.36306">
        <ele>65</ele>
        <time>2013-10-20T12:46:32Z</time>
      </trkpt>
      <trkpt lat="44.81873" lon="-0.36356">
        <ele>65</ele>
        <time>2013-10-20T12:46:41Z</time>
      </trkpt>
      <trkpt lat="44.8188" lon="-0.36402">
        <ele>66</ele>
        <time>2013-10-20T12:46:49Z</time>
      </trkpt>
      <trkpt lat="44.81891" lon="-0.36447">
        <ele>66</ele>
        <time>2013-10-20T12:46:57Z</time>
      </trkpt>
      <trkpt lat="44.81903" lon="-0.36494">
        <ele>67</ele>
        <time>2013-10-20T12:47:06Z</time>
      </trkpt>
      <trkpt lat="44.81912" lon="-0.3654">
        <ele>69</ele>
        <time>2013-10-20T12:47:15Z</time>
      </trkpt>
      <trkpt lat="44.81915" lon="-0.3659">
        <ele>70</ele>
        <time>2013-10-20T12:47:25Z</time>
      </trkpt>
      <trkpt lat="44.81916" lon="-0.36632">
        <ele>71</ele>
        <time>2013-10-20T12:47:34Z</time>
      </trkpt>
      <trkpt lat="44.81915" lon="-0.36665">
        <ele>72</ele>
        <time>2013-10-20T12:47:42Z</time>
      </trkpt>
      <trkpt lat="44.81916" lon="-0.36692">
        <ele>73</ele>
        <time>2013-10-20T12:47:49Z</time>
      </trkpt>
      <trkpt lat="44.81918" lon="-0.36722">
        <ele>74</ele>
        <time>2013-10-20T12:47:57Z</time>
      </trkpt>
      <trkpt lat="44.81915" lon="-0.36752">
        <ele>76</ele>
        <time>2013-10-20T12:48:05Z</time>
      </trkpt>
      <trkpt lat="44.81914" lon="-0.36773">
        <ele>77</ele>
        <time>2013-10-20T12:48:11Z</time>
      </trkpt>
      <trkpt lat="44.81911" lon="-0.36801">
        <ele>79</ele>
        <time>2013-10-20T12:48:20Z</time>
      </trkpt>
      <trkpt lat="44.81905" lon="-0.36825">
        <ele>80</ele>
        <time>2013-10-20T12:48:27Z</time>
      </trkpt>
      <trkpt lat="44.81899" lon="-0.36852">
        <ele>82</ele>
        <time>2013-10-20T12:48:35Z</time>
      </trkpt>
      <trkpt lat="44.81892" lon="-0.36878">
        <ele>84</ele>
        <time>2013-10-20T12:48:43Z</time>
      </trkpt>
      <trkpt lat="44.81886" lon="-0.36902">
        <ele>86</ele>
        <time>2013-10-20T12:48:51Z</time>
      </trkpt>
      <trkpt lat="44.81879" lon="-0.36929">
        <ele>88</ele>
        <time>2013-10-20T12:49:00Z</time>
      </trkpt>
      <trkpt lat="44.81873" lon="-0.36952">
        <ele>90</ele>
        <time>2013-10-20T12:49:08Z</time>
      </trkpt>
      <trkpt lat="44.81866" lon="-0.36982">
        <ele>92</ele>
        <time>2013-10-20T12:49:18Z</time>
      </trkpt>
      <trkpt lat="44.81859" lon="-0.37011">
        <ele>94</ele>
        <time>2013-10-20T12:49:27Z</time>
      </trkpt>
      <trkpt lat="44.8185" lon="-0.37046">
        <ele>95</ele>
        <time>2013-10-20T12:49:38Z</time>
      </trkpt>
      <trkpt lat="44.81842" lon="-0.37078">
        <ele>95</ele>
        <time>2013-10-20T12:49:48Z</time>
      </trkpt>
      <trkpt lat="44.81834" lon="-0.37108">
        <ele>96</ele>
        <time>2013-10-20T12:49:58Z</time>
      </trkpt>
      <trkpt lat="44.81833" lon="-0.37115">
        <ele>96</ele>
        <time>2013-10-20T12:50:01Z</time>
      </trkpt>
      <trkpt lat="44.81834" lon="-0.37117">
        <ele>96</ele>
        <time>2013-10-20T12:50:02Z</time>
      </trkpt>
      <trkpt lat="44.81834" lon="-0.3712">
        <ele>96</ele>
        <time>2013-10-20T12:50:07Z</time>
      </trkpt>
      <trkpt lat="44.81834" lon="-0.37121">
        <ele>96</ele>
        <time>2013-10-20T12:50:18Z</time>
      </trkpt>
      <trkpt lat="44.81833" lon="-0.37121">
        <ele>96</ele>
        <time>2013-10-20T12:50:31Z</time>
      </trkpt>
      <trkpt lat="44.81833" lon="-0.37121">
        <ele>96</ele>
        <time>2013-10-20T12:50:43Z</time>
      </trkpt>
      <trkpt lat="44.81834" lon="-0.3712">
        <ele>96</ele>
        <time>2013-10-20T12:50:57Z</time>
      </trkpt>
      <trkpt lat="44.81834" lon="-0.3712">
        <ele>96</ele>
        <time>2013-10-20T12:51:13Z</time>
      </trkpt>
      <trkpt lat="44.81834" lon="-0.37121">
        <ele>96</ele>
        <time>2013-10-20T12:51:34Z</time>
      </trkpt>
      <trkpt lat="44.81834" lon="-0.37121">
        <ele>96</ele>
        <time>2013-10-20T12:51:49Z</time>
      </trkpt>
      <trkpt lat="44.81835" lon="-0.37124">
        <ele>96</ele>
        <time>2013-10-20T12:51:53Z</time>
      </trkpt>
      <trkpt lat="44.81836" lon="-0.37125">
        <ele>96</ele>
        <time>2013-10-20T12:51:54Z</time>
      </trkpt>
      <trkpt lat="44.81838" lon="-0.37126">
        <ele>96</ele>
        <time>2013-10-20T12:51:55Z</time>
      </trkpt>
      <trkpt lat="44.8184" lon="-0.37127">
        <ele>96</ele>
        <time>2013-10-20T12:51:56Z</time>
      </trkpt>
      <trkpt lat="44.81843" lon="-0.37127">
        <ele>96</ele>
        <time>2013-10-20T12:51:57Z</time>
      </trkpt>
      <trkpt lat="44.81846" lon="-0.37126">
        <ele>96</ele>
        <time>2013-10-20T12:51:58Z</time>
      </trkpt>
      <trkpt lat="44.81868" lon="-0.37118">
        <ele>95</ele>
        <time>2013-10-20T12:52:05Z</time>
      </trkpt>
      <trkpt lat="44.81903" lon="-0.37109">
        <ele>93</ele>
        <time>2013-10-20T12:52:12Z</time>
      </trkpt>
      <trkpt lat="44.81943" lon="-0.37097">
        <ele>92</ele>
        <time>2013-10-20T12:52:19Z</time>
      </trkpt>
      <trkpt lat="44.81965" lon="-0.37092">
        <ele>91</ele>
        <time>2013-10-20T12:52:25Z</time>
      </trkpt>
      <trkpt lat="44.81983" lon="-0.37087">
        <ele>91</ele>
        <time>2013-10-20T12:52:32Z</time>
      </trkpt>
      <trkpt lat="44.82003" lon="-0.37074">
        <ele>90</ele>
        <time>2013-10-20T12:52:39Z</time>
      </trkpt>
      <trkpt lat="44.82017" lon="-0.37066">
        <ele>89</ele>
        <time>2013-10-20T12:52:43Z</time>
      </trkpt>
      <trkpt lat="44.82021" lon="-0.37065">
        <ele>89</ele>
        <time>2013-10-20T12:52:44Z</time>
      </trkpt>
      <trkpt lat="44.82054" lon="-0.37066">
        <ele>88</ele>
        <time>2013-10-20T12:52:51Z</time>
      </trkpt>
      <trkpt lat="44.82065" lon="-0.37068">
        <ele>87</ele>
        <time>2013-10-20T12:52:54Z</time>
      </trkpt>
      <trkpt lat="44.82068" lon="-0.37071">
        <ele>87</ele>
        <time>2013-10-20T12:52:55Z</time>
      </trkpt>
      <trkpt lat="44.82069" lon="-0.37075">
        <ele>87</ele>
        <time>2013-10-20T12:52:56Z</time>
      </trkpt>
      <trkpt lat="44.8207" lon="-0.37079">
        <ele>86</ele>
        <time>2013-10-20T12:52:57Z</time>
      </trkpt>
      <trkpt lat="44.82071" lon="-0.37083">
        <ele>86</ele>
        <time>2013-10-20T12:52:58Z</time>
      </trkpt>
      <trkpt lat="44.82072" lon="-0.37086">
        <ele>86</ele>
        <time>2013-10-20T12:52:59Z</time>
      </trkpt>
      <trkpt lat="44.82088" lon="-0.37098">
        <ele>84</ele>
        <time>2013-10-20T12:53:06Z</time>
      </trkpt>
      <trkpt lat="44.82108" lon="-0.37112">
        <ele>80</ele>
        <time>2013-10-20T12:53:11Z</time>
      </trkpt>
      <trkpt lat="44.82112" lon="-0.37114">
        <ele>79</ele>
        <time>2013-10-20T12:53:12Z</time>
      </trkpt>
      <trkpt lat="44.82126" lon="-0.37119">
        <ele>77</ele>
        <time>2013-10-20T12:53:15Z</time>
      </trkpt>
      <trkpt lat="44.82138" lon="-0.37119">
        <ele>76</ele>
        <time>2013-10-20T12:53:17Z</time>
      </trkpt>
      <trkpt lat="44.82171" lon="-0.37119">
        <ele>74</ele>
        <time>2013-10-20T12:53:23Z</time>
      </trkpt>
      <trkpt lat="44.82182" lon="-0.3712">
        <ele>72</ele>
        <time>2013-10-20T12:53:25Z</time>
      </trkpt>
      <trkpt lat="44.82208" lon="-0.37123">
        <ele>69</ele>
        <time>2013-10-20T12:53:30Z</time>
      </trkpt>
      <trkpt lat="44.82248" lon="-0.37125">
        <ele>63</ele>
        <time>2013-10-20T12:53:37Z</time>
      </trkpt>
      <trkpt lat="44.82287" lon="-0.37121">
        <ele>59</ele>
        <time>2013-10-20T12:53:44Z</time>
      </trkpt>
      <trkpt lat="44.8231" lon="-0.37118">
        <ele>57</ele>
        <time>2013-10-20T12:53:50Z</time>
      </trkpt>
      <trkpt lat="44.82326" lon="-0.37117">
        <ele>56</ele>
        <time>2013-10-20T12:53:54Z</time>
      </trkpt>
      <trkpt lat="44.82339" lon="-0.37117">
        <ele>55</ele>
        <time>2013-10-20T12:53:57Z</time>
      </trkpt>
      <trkpt lat="44.82347" lon="-0.37123">
        <ele>55</ele>
        <time>2013-10-20T12:54:00Z</time>
      </trkpt>
      <trkpt lat="44.82369" lon="-0.37127">
        <ele>54</ele>
        <time>2013-10-20T12:54:05Z</time>
      </trkpt>
      <trkpt lat="44.82392" lon="-0.37126">
        <ele>53</ele>
        <time>2013-10-20T12:54:10Z</time>
      </trkpt>
      <trkpt lat="44.82406" lon="-0.37122">
        <ele>53</ele>
        <time>2013-10-20T12:54:13Z</time>
      </trkpt>
      <trkpt lat="44.82425" lon="-0.37109">
        <ele>52</ele>
        <time>2013-10-20T12:54:19Z</time>
      </trkpt>
      <trkpt lat="44.8244" lon="-0.37105">
        <ele>51</ele>
        <time>2013-10-20T12:54:23Z</time>
      </trkpt>
      <trkpt lat="44.82461" lon="-0.37099">
        <ele>51</ele>
        <time>2013-10-20T12:54:29Z</time>
      </trkpt>
      <trkpt lat="44.82472" lon="-0.37097">
        <ele>51</ele>
        <time>2013-10-20T12:54:36Z</time>
      </trkpt>
      <trkpt lat="44.82487" lon="-0.37096">
        <ele>51</ele>
        <time>2013-10-20T12:54:50Z</time>
      </trkpt>
      <trkpt lat="44.82491" lon="-0.37093">
        <ele>51</ele>
        <time>2013-10-20T12:55:05Z</time>
      </trkpt>
      <trkpt lat="44.82494" lon="-0.37095">
        <ele>51</ele>
        <time>2013-10-20T12:55:21Z</time>
      </trkpt>
      <trkpt lat="44.82494" lon="-0.37094">
        <ele>51</ele>
        <time>2013-10-20T12:55:37Z</time>
      </trkpt>
      <trkpt lat="44.82495" lon="-0.37095">
        <ele>51</ele>
        <time>2013-10-20T12:55:58Z</time>
      </trkpt>
      <trkpt lat="44.82495" lon="-0.37095">
        <ele>51</ele>
        <time>2013-10-20T12:55:59Z</time>
      </trkpt>
      <trkpt lat="44.82495" lon="-0.37093">
        <ele>51</ele>
        <time>2013-10-20T12:56:02Z</time>
      </trkpt>
      <trkpt lat="44.825" lon="-0.3709">
        <ele>51</ele>
        <time>2013-10-20T12:56:07Z</time>
      </trkpt>
      <trkpt lat="44.82513" lon="-0.37085">
        <ele>51</ele>
        <time>2013-10-20T12:56:14Z</time>
      </trkpt>
      <trkpt lat="44.82527" lon="-0.37076">
        <ele>52</ele>
        <time>2013-10-20T12:56:19Z</time>
      </trkpt>
      <trkpt lat="44.82538" lon="-0.37067">
        <ele>52</ele>
        <time>2013-10-20T12:56:24Z</time>
      </trkpt>
      <trkpt lat="44.82549" lon="-0.37048">
        <ele>53</ele>
        <time>2013-10-20T12:56:30Z</time>
      </trkpt>
      <trkpt lat="44.82559" lon="-0.37026">
        <ele>54</ele>
        <time>2013-10-20T12:56:36Z</time>
      </trkpt>
      <trkpt lat="44.82568" lon="-0.37008">
        <ele>54</ele>
        <time>2013-10-20T12:56:41Z</time>
      </trkpt>
      <trkpt lat="44.82576" lon="-0.36993">
        <ele>55</ele>
        <time>2013-10-20T12:56:46Z</time>
      </trkpt>
      <trkpt lat="44.82586" lon="-0.36976">
        <ele>57</ele>
        <time>2013-10-20T12:56:52Z</time>
      </trkpt>
      <trkpt lat="44.82598" lon="-0.36955">
        <ele>58</ele>
        <time>2013-10-20T12:56:59Z</time>
      </trkpt>
      <trkpt lat="44.82606" lon="-0.36936">
        <ele>60</ele>
        <time>2013-10-20T12:57:06Z</time>
      </trkpt>
      <trkpt lat="44.82616" lon="-0.36916">
        <ele>61</ele>
        <time>2013-10-20T12:57:13Z</time>
      </trkpt>
      <trkpt lat="44.82629" lon="-0.36893">
        <ele>62</ele>
        <time>2013-10-20T12:57:21Z</time>
      </trkpt>
      <trkpt lat="44.82643" lon="-0.36875">
        <ele>63</ele>
        <time>2013-10-20T12:57:28Z</time>
      </trkpt>
      <trkpt lat="44.82658" lon="-0.36865">
        <ele>65</ele>
        <time>2013-10-20T12:57:35Z</time>
      </trkpt>
      <trkpt lat="44.82676" lon="-0.36847">
        <ele>66</ele>
        <time>2013-10-20T12:57:43Z</time>
      </trkpt>
      <trkpt lat="44.82691" lon="-0.36833">
        <ele>68</ele>
        <time>2013-10-20T12:57:50Z</time>
      </trkpt>
      <trkpt lat="44.82706" lon="-0.36826">
        <ele>69</ele>
        <time>2013-10-20T12:57:57Z</time>
      </trkpt>
      <trkpt lat="44.82726" lon="-0.36818">
        <ele>71</ele>
        <time>2013-10-20T12:58:06Z</time>
      </trkpt>
      <trkpt lat="44.82741" lon="-0.36812">
        <ele>72</ele>
        <time>2013-10-20T12:58:14Z</time>
      </trkpt>
      <trkpt lat="44.82754" lon="-0.3681">
        <ele>74</ele>
        <time>2013-10-20T12:58:21Z</time>
      </trkpt>
      <trkpt lat="44.82757" lon="-0.36809">
        <ele>74</ele>
        <time>2013-10-20T12:58:23Z</time>
      </trkpt>
      <trkpt lat="44.82772" lon="-0.36808">
        <ele>75</ele>
        <time>2013-10-20T12:58:31Z</time>
      </trkpt>
      <trkpt lat="44.82789" lon="-0.3681">
        <ele>75</ele>
        <time>2013-10-20T12:58:38Z</time>
      </trkpt>
      <trkpt lat="44.82807" lon="-0.36813">
        <ele>75</ele>
        <time>2013-10-20T12:58:45Z</time>
      </trkpt>
      <trkpt lat="44.82826" lon="-0.3681">
        <ele>74</ele>
        <time>2013-10-20T12:58:52Z</time>
      </trkpt>
      <trkpt lat="44.82847" lon="-0.36797">
        <ele>73</ele>
        <time>2013-10-20T12:58:59Z</time>
      </trkpt>
      <trkpt lat="44.82848" lon="-0.36773">
        <ele>72</ele>
        <time>2013-10-20T12:59:05Z</time>
      </trkpt>
      <trkpt lat="44.82847" lon="-0.36744">
        <ele>70</ele>
        <time>2013-10-20T12:59:11Z</time>
      </trkpt>
      <trkpt lat="44.82848" lon="-0.36718">
        <ele>69</ele>
        <time>2013-10-20T12:59:15Z</time>
      </trkpt>
      <trkpt lat="44.82849" lon="-0.36711">
        <ele>69</ele>
        <time>2013-10-20T12:59:16Z</time>
      </trkpt>
      <trkpt lat="44.82851" lon="-0.36687">
        <ele>68</ele>
        <time>2013-10-20T12:59:19Z</time>
      </trkpt>
      <trkpt lat="44.82853" lon="-0.36634">
        <ele>65</ele>
        <time>2013-10-20T12:59:25Z</time>
      </trkpt>
      <trkpt lat="44.82852" lon="-0.36626">
        <ele>65</ele>
        <time>2013-10-20T12:59:26Z</time>
      </trkpt>
      <trkpt lat="44.8285" lon="-0.36619">
        <ele>64</ele>
        <time>2013-10-20T12:59:27Z</time>
      </trkpt>
      <trkpt lat="44.82833" lon="-0.36583">
        <ele>63</ele>
        <time>2013-10-20T12:59:32Z</time>
      </trkpt>
      <trkpt lat="44.82831" lon="-0.36575">
        <ele>63</ele>
        <time>2013-10-20T12:59:33Z</time>
      </trkpt>
      <trkpt lat="44.82817" lon="-0.36521">
        <ele>62</ele>
        <time>2013-10-20T12:59:40Z</time>
      </trkpt>
      <trkpt lat="44.8281" lon="-0.36497">
        <ele>61</ele>
        <time>2013-10-20T12:59:46Z</time>
      </trkpt>
      <trkpt lat="44.82812" lon="-0.36495">
        <ele>60</ele>
        <time>2013-10-20T12:59:50Z</time>
      </trkpt>
      <trkpt lat="44.82812" lon="-0.36495">
        <ele>60</ele>
        <time>2013-10-20T12:59:59Z</time>
      </trkpt>
      <trkpt lat="44.82813" lon="-0.36495">
        <ele>60</ele>
        <time>2013-10-20T13:00:11Z</time>
      </trkpt>
      <trkpt lat="44.82813" lon="-0.36495">
        <ele>60</ele>
        <time>2013-10-20T13:00:26Z</time>
      </trkpt>
      <trkpt lat="44.82813" lon="-0.36495">
        <ele>60</ele>
        <time>2013-10-20T13:00:43Z</time>
      </trkpt>
      <trkpt lat="44.82813" lon="-0.36495">
        <ele>60</ele>
        <time>2013-10-20T13:00:51Z</time>
      </trkpt>
      <trkpt lat="44.82814" lon="-0.36496">
        <ele>60</ele>
        <time>2013-10-20T13:00:52Z</time>
      </trkpt>
      <trkpt lat="44.82816" lon="-0.36499">
        <ele>60</ele>
        <time>2013-10-20T13:00:54Z</time>
      </trkpt>
      <trkpt lat="44.82817" lon="-0.365">
        <ele>60</ele>
        <time>2013-10-20T13:00:55Z</time>
      </trkpt>
      <trkpt lat="44.82818" lon="-0.36501">
        <ele>60</ele>
        <time>2013-10-20T13:01:02Z</time>
      </trkpt>
      <trkpt lat="44.82818" lon="-0.36502">
        <ele>60</ele>
        <time>2013-10-20T13:01:16Z</time>
      </trkpt>
      <trkpt lat="44.82818" lon="-0.36501">
        <ele>60</ele>
        <time>2013-10-20T13:01:27Z</time>
      </trkpt>
      <trkpt lat="44.82818" lon="-0.36501">
        <ele>60</ele>
        <time>2013-10-20T13:01:39Z</time>
      </trkpt>
      <trkpt lat="44.82818" lon="-0.36501">
        <ele>60</ele>
        <time>2013-10-20T13:01:52Z</time>
      </trkpt>
      <trkpt lat="44.82818" lon="-0.36501">
        <ele>60</ele>
        <time>2013-10-20T13:02:03Z</time>
      </trkpt>
      <trkpt lat="44.82817" lon="-0.36501">
        <ele>60</ele>
        <time>2013-10-20T13:02:16Z</time>
      </trkpt>
      <trkpt lat="44.82817" lon="-0.36501">
        <ele>60</ele>
        <time>2013-10-20T13:02:27Z</time>
      </trkpt>
      <trkpt lat="44.82819" lon="-0.36502">
        <ele>60</ele>
        <time>2013-10-20T13:02:28Z</time>
      </trkpt>
      <trkpt lat="44.8282" lon="-0.36503">
        <ele>60</ele>
        <time>2013-10-20T13:02:29Z</time>
      </trkpt>
      <trkpt lat="44.82822" lon="-0.36505">
        <ele>60</ele>
        <time>2013-10-20T13:02:30Z</time>
      </trkpt>
      <trkpt lat="44.82824" lon="-0.36507">
        <ele>60</ele>
        <time>2013-10-20T13:02:31Z</time>
      </trkpt>
      <trkpt lat="44.8285" lon="-0.36525">
        <ele>59</ele>
        <time>2013-10-20T13:02:39Z</time>
      </trkpt>
      <trkpt lat="44.82878" lon="-0.36538">
        <ele>58</ele>
        <time>2013-10-20T13:02:47Z</time>
      </trkpt>
      <trkpt lat="44.82897" lon="-0.3655">
        <ele>57</ele>
        <time>2013-10-20T13:02:55Z</time>
      </trkpt>
      <trkpt lat="44.82918" lon="-0.3656">
        <ele>56</ele>
        <time>2013-10-20T13:03:02Z</time>
      </trkpt>
      <trkpt lat="44.82935" lon="-0.36563">
        <ele>56</ele>
        <time>2013-10-20T13:03:07Z</time>
      </trkpt>
      <trkpt lat="44.82955" lon="-0.36559">
        <ele>55</ele>
        <time>2013-10-20T13:03:11Z</time>
      </trkpt>
      <trkpt lat="44.82961" lon="-0.36556">
        <ele>54</ele>
        <time>2013-10-20T13:03:12Z</time>
      </trkpt>
      <trkpt lat="44.82967" lon="-0.36552">
        <ele>53</ele>
        <time>2013-10-20T13:03:13Z</time>
      </trkpt>
      <trkpt lat="44.82974" lon="-0.36547">
        <ele>53</ele>
        <time>2013-10-20T13:03:14Z</time>
      </trkpt>
      <trkpt lat="44.8298" lon="-0.36541">
        <ele>52</ele>
        <time>2013-10-20T13:03:15Z</time>
      </trkpt>
      <trkpt lat="44.83021" lon="-0.36503">
        <ele>47</ele>
        <time>2013-10-20T13:03:20Z</time>
      </trkpt>
      <trkpt lat="44.83086" lon="-0.36441">
        <ele>43</ele>
        <time>2013-10-20T13:03:27Z</time>
      </trkpt>
      <trkpt lat="44.83103" lon="-0.36421">
        <ele>42</ele>
        <time>2013-10-20T13:03:30Z</time>
      </trkpt>
      <trkpt lat="44.83105" lon="-0.36413">
        <ele>42</ele>
        <time>2013-10-20T13:03:31Z</time>
      </trkpt>
      <trkpt lat="44.83104" lon="-0.36405">
        <ele>42</ele>
        <time>2013-10-20T13:03:32Z</time>
      </trkpt>
      <trkpt lat="44.83102" lon="-0.36398">
        <ele>42</ele>
        <time>2013-10-20T13:03:33Z</time>
      </trkpt>
      <trkpt lat="44.83099" lon="-0.36391">
        <ele>42</ele>
        <time>2013-10-20T13:03:34Z</time>
      </trkpt>
      <trkpt lat="44.83095" lon="-0.36384">
        <ele>42</ele>
        <time>2013-10-20T13:03:35Z</time>
      </trkpt>
      <trkpt lat="44.83087" lon="-0.36358">
        <ele>41</ele>
        <time>2013-10-20T13:03:40Z</time>
      </trkpt>
      <trkpt lat="44.83091" lon="-0.36348">
        <ele>41</ele>
        <time>2013-10-20T13:03:42Z</time>
      </trkpt>
      <trkpt lat="44.83094" lon="-0.36344">
        <ele>41</ele>
        <time>2013-10-20T13:03:43Z</time>
      </trkpt>
      <trkpt lat="44.83098" lon="-0.36341">
        <ele>41</ele>
        <time>2013-10-20T13:03:44Z</time>
      </trkpt>
      <trkpt lat="44.83127" lon="-0.36329">
        <ele>40</ele>
        <time>2013-10-20T13:03:50Z</time>
      </trkpt>
      <trkpt lat="44.83133" lon="-0.36328">
        <ele>40</ele>
        <time>2013-10-20T13:03:51Z</time>
      </trkpt>
      <trkpt lat="44.83139" lon="-0.36329">
        <ele>40</ele>
        <time>2013-10-20T13:03:52Z</time>
      </trkpt>
      <trkpt lat="44.83145" lon="-0.36332">
        <ele>40</ele>
        <time>2013-10-20T13:03:53Z</time>
      </trkpt>
      <trkpt lat="44.8315" lon="-0.36335">
        <ele>40</ele>
        <time>2013-10-20T13:03:54Z</time>
      </trkpt>
      <trkpt lat="44.83156" lon="-0.36339">
        <ele>40</ele>
        <time>2013-10-20T13:03:55Z</time>
      </trkpt>
      <trkpt lat="44.83197" lon="-0.36367">
        <ele>41</ele>
        <time>2013-10-20T13:04:03Z</time>
      </trkpt>
      <trkpt lat="44.83233" lon="-0.36402">
        <ele>42</ele>
        <time>2013-10-20T13:04:11Z</time>
      </trkpt>
      <trkpt lat="44.83254" lon="-0.36429">
        <ele>44</ele>
        <time>2013-10-20T13:04:17Z</time>
      </trkpt>
      <trkpt lat="44.83257" lon="-0.36429">
        <ele>44</ele>
        <time>2013-10-20T13:04:18Z</time>
      </trkpt>
      <trkpt lat="44.83261" lon="-0.36426">
        <ele>43</ele>
        <time>2013-10-20T13:04:19Z</time>
      </trkpt>
      <trkpt lat="44.83264" lon="-0.3642">
        <ele>43</ele>
        <time>2013-10-20T13:04:20Z</time>
      </trkpt>
      <trkpt lat="44.83266" lon="-0.36415">
        <ele>43</ele>
        <time>2013-10-20T13:04:21Z</time>
      </trkpt>
      <trkpt lat="44.8327" lon="-0.36411">
        <ele>42</ele>
        <time>2013-10-20T13:04:22Z</time>
      </trkpt>
      <trkpt lat="44.83274" lon="-0.36409">
        <ele>42</ele>
        <time>2013-10-20T13:04:23Z</time>
      </trkpt>
      <trkpt lat="44.83277" lon="-0.36408">
        <ele>42</ele>
        <time>2013-10-20T13:04:24Z</time>
      </trkpt>
      <trkpt lat="44.83279" lon="-0.36408">
        <ele>42</ele>
        <time>2013-10-20T13:04:25Z</time>
      </trkpt>
      <trkpt lat="44.83286" lon="-0.3641">
        <ele>42</ele>
        <time>2013-10-20T13:04:30Z</time>
      </trkpt>
      <trkpt lat="44.83288" lon="-0.36408">
        <ele>41</ele>
        <time>2013-10-20T13:04:31Z</time>
      </trkpt>
      <trkpt lat="44.83289" lon="-0.36406">
        <ele>41</ele>
        <time>2013-10-20T13:04:32Z</time>
      </trkpt>
      <trkpt lat="44.8329" lon="-0.36401">
        <ele>41</ele>
        <time>2013-10-20T13:04:33Z</time>
      </trkpt>
      <trkpt lat="44.83291" lon="-0.36397">
        <ele>40</ele>
        <time>2013-10-20T13:04:34Z</time>
      </trkpt>
      <trkpt lat="44.83292" lon="-0.36391">
        <ele>40</ele>
        <time>2013-10-20T13:04:35Z</time>
      </trkpt>
      <trkpt lat="44.83293" lon="-0.36385">
        <ele>39</ele>
        <time>2013-10-20T13:04:36Z</time>
      </trkpt>
      <trkpt lat="44.83298" lon="-0.36359">
        <ele>38</ele>
        <time>2013-10-20T13:04:39Z</time>
      </trkpt>
      <trkpt lat="44.833" lon="-0.3635">
        <ele>37</ele>
        <time>2013-10-20T13:04:40Z</time>
      </trkpt>
      <trkpt lat="44.83316" lon="-0.36279">
        <ele>32</ele>
        <time>2013-10-20T13:04:46Z</time>
      </trkpt>
      <trkpt lat="44.83339" lon="-0.36168">
        <ele>28</ele>
        <time>2013-10-20T13:04:54Z</time>
      </trkpt>
      <trkpt lat="44.83358" lon="-0.36081">
        <ele>26</ele>
        <time>2013-10-20T13:05:01Z</time>
      </trkpt>
      <trkpt lat="44.8337" lon="-0.36026">
        <ele>27</ele>
        <time>2013-10-20T13:05:07Z</time>
      </trkpt>
      <trkpt lat="44.83378" lon="-0.35989">
        <ele>29</ele>
        <time>2013-10-20T13:05:13Z</time>
      </trkpt>
      <trkpt lat="44.8338" lon="-0.35985">
        <ele>29</ele>
        <time>2013-10-20T13:05:14Z</time>
      </trkpt>
      <trkpt lat="44.8339" lon="-0.35987">
        <ele>30</ele>
        <time>2013-10-20T13:05:17Z</time>
      </trkpt>
      <trkpt lat="44.83393" lon="-0.35989">
        <ele>30</ele>
        <time>2013-10-20T13:05:18Z</time>
      </trkpt>
      <trkpt lat="44.83408" lon="-0.36003">
        <ele>30</ele>
        <time>2013-10-20T13:05:22Z</time>
      </trkpt>
      <trkpt lat="44.8341" lon="-0.36008">
        <ele>30</ele>
        <time>2013-10-20T13:05:23Z</time>
      </trkpt>
      <trkpt lat="44.83412" lon="-0.36012">
        <ele>29</ele>
        <time>2013-10-20T13:05:24Z</time>
      </trkpt>
      <trkpt lat="44.8342" lon="-0.36027">
        <ele>29</ele>
        <time>2013-10-20T13:05:29Z</time>
      </trkpt>
      <trkpt lat="44.83431" lon="-0.36035">
        <ele>29</ele>
        <time>2013-10-20T13:05:34Z</time>
      </trkpt>
      <trkpt lat="44.83444" lon="-0.3604">
        <ele>30</ele>
        <time>2013-10-20T13:05:39Z</time>
      </trkpt>
      <trkpt lat="44.83454" lon="-0.36043">
        <ele>30</ele>
        <time>2013-10-20T13:05:44Z</time>
      </trkpt>
      <trkpt lat="44.83468" lon="-0.3605">
        <ele>30</ele>
        <time>2013-10-20T13:05:49Z</time>
      </trkpt>
      <trkpt lat="44.83486" lon="-0.36056">
        <ele>30</ele>
        <time>2013-10-20T13:05:54Z</time>
      </trkpt>
      <trkpt lat="44.83506" lon="-0.36063">
        <ele>30</ele>
        <time>2013-10-20T13:05:59Z</time>
      </trkpt>
      <trkpt lat="44.83512" lon="-0.36064">
        <ele>30</ele>
        <time>2013-10-20T13:06:00Z</time>
      </trkpt>
      <trkpt lat="44.83522" lon="-0.36066">
        <ele>30</ele>
        <time>2013-10-20T13:06:02Z</time>
      </trkpt>
      <trkpt lat="44.83551" lon="-0.36071">
        <ele>31</ele>
        <time>2013-10-20T13:06:08Z</time>
      </trkpt>
      <trkpt lat="44.83575" lon="-0.36072">
        <ele>32</ele>
        <time>2013-10-20T13:06:14Z</time>
      </trkpt>
      <trkpt lat="44.83594" lon="-0.36077">
        <ele>33</ele>
        <time>2013-10-20T13:06:19Z</time>
      </trkpt>
      <trkpt lat="44.83597" lon="-0.36079">
        <ele>33</ele>
        <time>2013-10-20T13:06:20Z</time>
      </trkpt>
      <trkpt lat="44.83617" lon="-0.36082">
        <ele>34</ele>
        <time>2013-10-20T13:06:26Z</time>
      </trkpt>
      <trkpt lat="44.83623" lon="-0.36087">
        <ele>34</ele>
        <time>2013-10-20T13:06:28Z</time>
      </trkpt>
      <trkpt lat="44.83654" lon="-0.36102">
        <ele>35</ele>
        <time>2013-10-20T13:06:36Z</time>
      </trkpt>
      <trkpt lat="44.83678" lon="-0.36109">
        <ele>34</ele>
        <time>2013-10-20T13:06:42Z</time>
      </trkpt>
      <trkpt lat="44.837" lon="-0.36113">
        <ele>34</ele>
        <time>2013-10-20T13:06:49Z</time>
      </trkpt>
      <trkpt lat="44.83709" lon="-0.36112">
        <ele>34</ele>
        <time>2013-10-20T13:06:54Z</time>
      </trkpt>
      <trkpt lat="44.8373" lon="-0.36108">
        <ele>35</ele>
        <time>2013-10-20T13:07:00Z</time>
      </trkpt>
      <trkpt lat="44.83747" lon="-0.36101">
        <ele>35</ele>
        <time>2013-10-20T13:07:04Z</time>
      </trkpt>
      <trkpt lat="44.83772" lon="-0.36089">
        <ele>36</ele>
        <time>2013-10-20T13:07:10Z</time>
      </trkpt>
      <trkpt lat="44.83785" lon="-0.36092">
        <ele>36</ele>
        <time>2013-10-20T13:07:15Z</time>
      </trkpt>
      <trkpt lat="44.83789" lon="-0.36094">
        <ele>35</ele>
        <time>2013-10-20T13:07:17Z</time>
      </trkpt>
      <trkpt lat="44.83804" lon="-0.36105">
        <ele>34</ele>
        <time>2013-10-20T13:07:24Z</time>
      </trkpt>
      <trkpt lat="44.83835" lon="-0.36104">
        <ele>33</ele>
        <time>2013-10-20T13:07:31Z</time>
      </trkpt>
      <trkpt lat="44.83851" lon="-0.36099">
        <ele>33</ele>
        <time>2013-10-20T13:07:36Z</time>
      </trkpt>
      <trkpt lat="44.8387" lon="-0.36096">
        <ele>32</ele>
        <time>2013-10-20T13:07:42Z</time>
      </trkpt>
      <trkpt lat="44.83893" lon="-0.36094">
        <ele>32</ele>
        <time>2013-10-20T13:07:47Z</time>
      </trkpt>
      <trkpt lat="44.83916" lon="-0.36092">
        <ele>31</ele>
        <time>2013-10-20T13:07:52Z</time>
      </trkpt>
      <trkpt lat="44.83937" lon="-0.36087">
        <ele>31</ele>
        <time>2013-10-20T13:07:56Z</time>
      </trkpt>
      <trkpt lat="44.83969" lon="-0.36083">
        <ele>31</ele>
        <time>2013-10-20T13:08:01Z</time>
      </trkpt>
      <trkpt lat="44.83987" lon="-0.36083">
        <ele>31</ele>
        <time>2013-10-20T13:08:04Z</time>
      </trkpt>
      <trkpt lat="44.8401" lon="-0.36085">
        <ele>30</ele>
        <time>2013-10-20T13:08:08Z</time>
      </trkpt>
      <trkpt lat="44.84047" lon="-0.36079">
        <ele>30</ele>
        <time>2013-10-20T13:08:15Z</time>
      </trkpt>
      <trkpt lat="44.84067" lon="-0.3607">
        <ele>32</ele>
        <time>2013-10-20T13:08:21Z</time>
      </trkpt>
      <trkpt lat="44.84097" lon="-0.36062">
        <ele>34</ele>
        <time>2013-10-20T13:08:27Z</time>
      </trkpt>
      <trkpt lat="44.84122" lon="-0.36056">
        <ele>34</ele>
        <time>2013-10-20T13:08:32Z</time>
      </trkpt>
      <trkpt lat="44.84139" lon="-0.36054">
        <ele>34</ele>
        <time>2013-10-20T13:08:36Z</time>
      </trkpt>
      <trkpt lat="44.84164" lon="-0.36045">
        <ele>33</ele>
        <time>2013-10-20T13:08:42Z</time>
      </trkpt>
      <trkpt lat="44.84182" lon="-0.36029">
        <ele>34</ele>
        <time>2013-10-20T13:08:47Z</time>
      </trkpt>
      <trkpt lat="44.84199" lon="-0.3601">
        <ele>34</ele>
        <time>2013-10-20T13:08:53Z</time>
      </trkpt>
      <trkpt lat="44.84211" lon="-0.35985">
        <ele>34</ele>
        <time>2013-10-20T13:08:59Z</time>
      </trkpt>
      <trkpt lat="44.84214" lon="-0.35963">
        <ele>35</ele>
        <time>2013-10-20T13:09:04Z</time>
      </trkpt>
      <trkpt lat="44.84215" lon="-0.35956">
        <ele>35</ele>
        <time>2013-10-20T13:09:08Z</time>
      </trkpt>
      <trkpt lat="44.84216" lon="-0.35954">
        <ele>35</ele>
        <time>2013-10-20T13:09:09Z</time>
      </trkpt>
      <trkpt lat="44.84217" lon="-0.35949">
        <ele>35</ele>
        <time>2013-10-20T13:09:12Z</time>
      </trkpt>
      <trkpt lat="44.84221" lon="-0.35942">
        <ele>35</ele>
        <time>2013-10-20T13:09:19Z</time>
      </trkpt>
      <trkpt lat="44.84222" lon="-0.3594">
        <ele>35</ele>
        <time>2013-10-20T13:09:21Z</time>
      </trkpt>
      <trkpt lat="44.84229" lon="-0.35928">
        <ele>35</ele>
        <time>2013-10-20T13:09:27Z</time>
      </trkpt>
      <trkpt lat="44.84231" lon="-0.35922">
        <ele>34</ele>
        <time>2013-10-20T13:09:40Z</time>
      </trkpt>
      <trkpt lat="44.84232" lon="-0.3592">
        <ele>34</ele>
        <time>2013-10-20T13:09:48Z</time>
      </trkpt>
      <trkpt lat="44.84233" lon="-0.35919">
        <ele>34</ele>
        <time>2013-10-20T13:09:57Z</time>
      </trkpt>
      <trkpt lat="44.84235" lon="-0.3592">
        <ele>34</ele>
        <time>2013-10-20T13:10:10Z</time>
      </trkpt>
      <trkpt lat="44.84236" lon="-0.35919">
        <ele>34</ele>
        <time>2013-10-20T13:10:23Z</time>
      </trkpt>
      <trkpt lat="44.84237" lon="-0.35918">
        <ele>34</ele>
        <time>2013-10-20T13:10:37Z</time>
      </trkpt>
      <trkpt lat="44.84238" lon="-0.35917">
        <ele>34</ele>
        <time>2013-10-20T13:10:52Z</time>
      </trkpt>
      <trkpt lat="44.84237" lon="-0.35917">
        <ele>34</ele>
        <time>2013-10-20T13:11:04Z</time>
      </trkpt>
      <trkpt lat="44.84238" lon="-0.35917">
        <ele>34</ele>
        <time>2013-10-20T13:11:15Z</time>
      </trkpt>
      <trkpt lat="44.84239" lon="-0.35916">
        <ele>34</ele>
        <time>2013-10-20T13:11:31Z</time>
      </trkpt>
      <trkpt lat="44.84239" lon="-0.35916">
        <ele>33</ele>
        <time>2013-10-20T13:11:43Z</time>
      </trkpt>
      <trkpt lat="44.8424" lon="-0.35914">
        <ele>33</ele>
        <time>2013-10-20T13:11:49Z</time>
      </trkpt>
      <trkpt lat="44.84244" lon="-0.35906">
        <ele>33</ele>
        <time>2013-10-20T13:11:53Z</time>
      </trkpt>
      <trkpt lat="44.84245" lon="-0.35904">
        <ele>33</ele>
        <time>2013-10-20T13:11:55Z</time>
      </trkpt>
      <trkpt lat="44.84257" lon="-0.35892">
        <ele>32</ele>
        <time>2013-10-20T13:12:02Z</time>
      </trkpt>
      <trkpt lat="44.84261" lon="-0.35887">
        <ele>31</ele>
        <time>2013-10-20T13:12:05Z</time>
      </trkpt>
      <trkpt lat="44.84265" lon="-0.35883">
        <ele>31</ele>
        <time>2013-10-20T13:12:08Z</time>
      </trkpt>
      <trkpt lat="44.84276" lon="-0.35875">
        <ele>30</ele>
        <time>2013-10-20T13:12:14Z</time>
      </trkpt>
      <trkpt lat="44.84281" lon="-0.35872">
        <ele>30</ele>
        <time>2013-10-20T13:12:19Z</time>
      </trkpt>
      <trkpt lat="44.84288" lon="-0.35864">
        <ele>29</ele>
        <time>2013-10-20T13:12:25Z</time>
      </trkpt>
      <trkpt lat="44.843" lon="-0.35861">
        <ele>28</ele>
        <time>2013-10-20T13:12:31Z</time>
      </trkpt>
      <trkpt lat="44.8431" lon="-0.35854">
        <ele>28</ele>
        <time>2013-10-20T13:12:36Z</time>
      </trkpt>
      <trkpt lat="44.84327" lon="-0.35853">
        <ele>28</ele>
        <time>2013-10-20T13:12:42Z</time>
      </trkpt>
      <trkpt lat="44.84334" lon="-0.35853">
        <ele>29</ele>
        <time>2013-10-20T13:12:44Z</time>
      </trkpt>
      <trkpt lat="44.84352" lon="-0.35856">
        <ele>30</ele>
        <time>2013-10-20T13:12:50Z</time>
      </trkpt>
      <trkpt lat="44.84355" lon="-0.35856">
        <ele>30</ele>
        <time>2013-10-20T13:12:51Z</time>
      </trkpt>
      <trkpt lat="44.84363" lon="-0.35859">
        <ele>31</ele>
        <time>2013-10-20T13:12:54Z</time>
      </trkpt>
      <trkpt lat="44.84366" lon="-0.3586">
        <ele>31</ele>
        <time>2013-10-20T13:12:56Z</time>
      </trkpt>
      <trkpt lat="44.8437" lon="-0.35862">
        <ele>32</ele>
        <time>2013-10-20T13:12:59Z</time>
      </trkpt>
      <trkpt lat="44.84381" lon="-0.35865">
        <ele>34</ele>
        <time>2013-10-20T13:13:05Z</time>
      </trkpt>
      <trkpt lat="44.84391" lon="-0.35868">
        <ele>35</ele>
        <time>2013-10-20T13:13:11Z</time>
      </trkpt>
      <trkpt lat="44.84403" lon="-0.35869">
        <ele>37</ele>
        <time>2013-10-20T13:13:18Z</time>
      </trkpt>
      <trkpt lat="44.84424" lon="-0.35867">
        <ele>40</ele>
        <time>2013-10-20T13:13:27Z</time>
      </trkpt>
      <trkpt lat="44.84438" lon="-0.35863">
        <ele>41</ele>
        <time>2013-10-20T13:13:34Z</time>
      </trkpt>
      <trkpt lat="44.84455" lon="-0.35854">
        <ele>42</ele>
        <time>2013-10-20T13:13:42Z</time>
      </trkpt>
      <trkpt lat="44.84471" lon="-0.35848">
        <ele>42</ele>
        <time>2013-10-20T13:13:50Z</time>
      </trkpt>
      <trkpt lat="44.84489" lon="-0.35854">
        <ele>41</ele>
        <time>2013-10-20T13:13:57Z</time>
      </trkpt>
      <trkpt lat="44.84514" lon="-0.35863">
        <ele>39</ele>
        <time>2013-10-20T13:14:04Z</time>
      </trkpt>
      <trkpt lat="44.84544" lon="-0.35872">
        <ele>36</ele>
        <time>2013-10-20T13:14:10Z</time>
      </trkpt>
      <trkpt lat="44.84553" lon="-0.35877">
        <ele>37</ele>
        <time>2013-10-20T13:14:14Z</time>
      </trkpt>
      <trkpt lat="44.84553" lon="-0.35879">
        <ele>37</ele>
        <time>2013-10-20T13:14:15Z</time>
      </trkpt>
      <trkpt lat="44.84553" lon="-0.35883">
        <ele>37</ele>
        <time>2013-10-20T13:14:16Z</time>
      </trkpt>
      <trkpt lat="44.84551" lon="-0.35903">
        <ele>37</ele>
        <time>2013-10-20T13:14:23Z</time>
      </trkpt>
      <trkpt lat="44.84547" lon="-0.35918">
        <ele>37</ele>
        <time>2013-10-20T13:14:30Z</time>
      </trkpt>
      <trkpt lat="44.84545" lon="-0.35924">
        <ele>36</ele>
        <time>2013-10-20T13:14:36Z</time>
      </trkpt>
      <trkpt lat="44.84545" lon="-0.35924">
        <ele>36</ele>
        <time>2013-10-20T13:14:45Z</time>
      </trkpt>
      <trkpt lat="44.84543" lon="-0.35929">
        <ele>36</ele>
        <time>2013-10-20T13:14:52Z</time>
      </trkpt>
      <trkpt lat="44.84542" lon="-0.3593">
        <ele>36</ele>
        <time>2013-10-20T13:14:59Z</time>
      </trkpt>
      <trkpt lat="44.84542" lon="-0.35931">
        <ele>36</ele>
        <time>2013-10-20T13:15:07Z</time>
      </trkpt>
      <trkpt lat="44.84543" lon="-0.35932">
        <ele>36</ele>
        <time>2013-10-20T13:15:17Z</time>
      </trkpt>
      <trkpt lat="44.84542" lon="-0.35933">
        <ele>36</ele>
        <time>2013-10-20T13:15:31Z</time>
      </trkpt>
      <trkpt lat="44.84543" lon="-0.35933">
        <ele>36</ele>
        <time>2013-10-20T13:15:45Z</time>
      </trkpt>
      <trkpt lat="44.84543" lon="-0.35933">
        <ele>36</ele>
        <time>2013-10-20T13:15:57Z</time>
      </trkpt>
      <trkpt lat="44.84543" lon="-0.35933">
        <ele>36</ele>
        <time>2013-10-20T13:16:10Z</time>
      </trkpt>
      <trkpt lat="44.84542" lon="-0.35934">
        <ele>36</ele>
        <time>2013-10-20T13:16:19Z</time>
      </trkpt>
      <trkpt lat="44.84542" lon="-0.35935">
        <ele>36</ele>
        <time>2013-10-20T13:16:25Z</time>
      </trkpt>
      <trkpt lat="44.84542" lon="-0.35937">
        <ele>36</ele>
        <time>2013-10-20T13:16:30Z</time>
      </trkpt>
      <trkpt lat="44.84541" lon="-0.35939">
        <ele>36</ele>
        <time>2013-10-20T13:16:31Z</time>
      </trkpt>
      <trkpt lat="44.8454" lon="-0.3594">
        <ele>36</ele>
        <time>2013-10-20T13:16:32Z</time>
      </trkpt>
      <trkpt lat="44.8454" lon="-0.35942">
        <ele>36</ele>
        <time>2013-10-20T13:16:33Z</time>
      </trkpt>
      <trkpt lat="44.84539" lon="-0.35944">
        <ele>36</ele>
        <time>2013-10-20T13:16:34Z</time>
      </trkpt>
      <trkpt lat="44.84538" lon="-0.35947">
        <ele>36</ele>
        <time>2013-10-20T13:16:35Z</time>
      </trkpt>
      <trkpt lat="44.84537" lon="-0.3595">
        <ele>36</ele>
        <time>2013-10-20T13:16:36Z</time>
      </trkpt>
      <trkpt lat="44.84536" lon="-0.35954">
        <ele>36</ele>
        <time>2013-10-20T13:16:37Z</time>
      </trkpt>
      <trkpt lat="44.84529" lon="-0.35978">
        <ele>35</ele>
        <time>2013-10-20T13:16:43Z</time>
      </trkpt>
      <trkpt lat="44.84519" lon="-0.35994">
        <ele>34</ele>
        <time>2013-10-20T13:16:49Z</time>
      </trkpt>
      <trkpt lat="44.84509" lon="-0.36008">
        <ele>32</ele>
        <time>2013-10-20T13:16:53Z</time>
      </trkpt>
      <trkpt lat="44.84508" lon="-0.36013">
        <ele>31</ele>
        <time>2013-10-20T13:16:54Z</time>
      </trkpt>
      <trkpt lat="44.84507" lon="-0.36019">
        <ele>31</ele>
        <time>2013-10-20T13:16:55Z</time>
      </trkpt>
      <trkpt lat="44.84507" lon="-0.36024">
        <ele>30</ele>
        <time>2013-10-20T13:16:56Z</time>
      </trkpt>
      <trkpt lat="44.84507" lon="-0.3603">
        <ele>30</ele>
        <time>2013-10-20T13:16:57Z</time>
      </trkpt>
      <trkpt lat="44.84508" lon="-0.36036">
        <ele>29</ele>
        <time>2013-10-20T13:16:58Z</time>
      </trkpt>
      <trkpt lat="44.84509" lon="-0.36043">
        <ele>29</ele>
        <time>2013-10-20T13:16:59Z</time>
      </trkpt>
      <trkpt lat="44.84512" lon="-0.36091">
        <ele>25</ele>
        <time>2013-10-20T13:17:06Z</time>
      </trkpt>
      <trkpt lat="44.84514" lon="-0.36101">
        <ele>25</ele>
        <time>2013-10-20T13:17:09Z</time>
      </trkpt>
      <trkpt lat="44.84515" lon="-0.36103">
        <ele>25</ele>
        <time>2013-10-20T13:17:10Z</time>
      </trkpt>
      <trkpt lat="44.84519" lon="-0.36109">
        <ele>24</ele>
        <time>2013-10-20T13:17:15Z</time>
      </trkpt>
      <trkpt lat="44.84531" lon="-0.36124">
        <ele>24</ele>
        <time>2013-10-20T13:17:20Z</time>
      </trkpt>
      <trkpt lat="44.8455" lon="-0.36139">
        <ele>23</ele>
        <time>2013-10-20T13:17:26Z</time>
      </trkpt>
      <trkpt lat="44.84553" lon="-0.36141">
        <ele>23</ele>
        <time>2013-10-20T13:17:27Z</time>
      </trkpt>
      <trkpt lat="44.84574" lon="-0.36148">
        <ele>23</ele>
        <time>2013-10-20T13:17:34Z</time>
      </trkpt>
      <trkpt lat="44.84595" lon="-0.36153">
        <ele>23</ele>
        <time>2013-10-20T13:17:40Z</time>
      </trkpt>
      <trkpt lat="44.84618" lon="-0.3616">
        <ele>22</ele>
        <time>2013-10-20T13:17:46Z</time>
      </trkpt>
      <trkpt lat="44.84636" lon="-0.36163">
        <ele>23</ele>
        <time>2013-10-20T13:17:51Z</time>
      </trkpt>
      <trkpt lat="44.84644" lon="-0.36164">
        <ele>23</ele>
        <time>2013-10-20T13:17:54Z</time>
      </trkpt>
      <trkpt lat="44.84653" lon="-0.36169">
        <ele>23</ele>
        <time>2013-10-20T13:17:58Z</time>
      </trkpt>
      <trkpt lat="44.84669" lon="-0.36175">
        <ele>23</ele>
        <time>2013-10-20T13:18:04Z</time>
      </trkpt>
      <trkpt lat="44.84675" lon="-0.36176">
        <ele>24</ele>
        <time>2013-10-20T13:18:07Z</time>
      </trkpt>
      <trkpt lat="44.84692" lon="-0.36172">
        <ele>24</ele>
        <time>2013-10-20T13:18:13Z</time>
      </trkpt>
      <trkpt lat="44.84707" lon="-0.36177">
        <ele>25</ele>
        <time>2013-10-20T13:18:19Z</time>
      </trkpt>
      <trkpt lat="44.84724" lon="-0.36178">
        <ele>25</ele>
        <time>2013-10-20T13:18:25Z</time>
      </trkpt>
      <trkpt lat="44.84735" lon="-0.36175">
        <ele>25</ele>
        <time>2013-10-20T13:18:31Z</time>
      </trkpt>
      <trkpt lat="44.84741" lon="-0.36174">
        <ele>25</ele>
        <time>2013-10-20T13:18:38Z</time>
      </trkpt>
      <trkpt lat="44.84752" lon="-0.3617">
        <ele>25</ele>
        <time>2013-10-20T13:18:47Z</time>
      </trkpt>
      <trkpt lat="44.84759" lon="-0.3617">
        <ele>25</ele>
        <time>2013-10-20T13:18:54Z</time>
      </trkpt>
      <trkpt lat="44.84761" lon="-0.3617">
        <ele>25</ele>
        <time>2013-10-20T13:19:01Z</time>
      </trkpt>
      <trkpt lat="44.84763" lon="-0.3617">
        <ele>25</ele>
        <time>2013-10-20T13:19:09Z</time>
      </trkpt>
      <trkpt lat="44.84765" lon="-0.36171">
        <ele>24</ele>
        <time>2013-10-20T13:19:17Z</time>
      </trkpt>
      <trkpt lat="44.84767" lon="-0.36171">
        <ele>24</ele>
        <time>2013-10-20T13:19:24Z</time>
      </trkpt>
      <trkpt lat="44.8477" lon="-0.3617">
        <ele>24</ele>
        <time>2013-10-20T13:19:34Z</time>
      </trkpt>
      <trkpt lat="44.84772" lon="-0.36173">
        <ele>24</ele>
        <time>2013-10-20T13:19:40Z</time>
      </trkpt>
      <trkpt lat="44.84774" lon="-0.36175">
        <ele>24</ele>
        <time>2013-10-20T13:19:49Z</time>
      </trkpt>
      <trkpt lat="44.84774" lon="-0.36175">
        <ele>24</ele>
        <time>2013-10-20T13:20:00Z</time>
      </trkpt>
      <trkpt lat="44.84776" lon="-0.36175">
        <ele>24</ele>
        <time>2013-10-20T13:20:17Z</time>
      </trkpt>
      <trkpt lat="44.84777" lon="-0.36177">
        <ele>24</ele>
        <time>2013-10-20T13:20:27Z</time>
      </trkpt>
      <trkpt lat="44.84778" lon="-0.36176">
        <ele>24</ele>
        <time>2013-10-20T13:20:34Z</time>
      </trkpt>
      <trkpt lat="44.8478" lon="-0.36176">
        <ele>24</ele>
        <time>2013-10-20T13:20:40Z</time>
      </trkpt>
      <trkpt lat="44.8479" lon="-0.36169">
        <ele>24</ele>
        <time>2013-10-20T13:20:46Z</time>
      </trkpt>
      <trkpt lat="44.84805" lon="-0.36161">
        <ele>24</ele>
        <time>2013-10-20T13:20:53Z</time>
      </trkpt>
      <trkpt lat="44.8482" lon="-0.36148">
        <ele>24</ele>
        <time>2013-10-20T13:21:01Z</time>
      </trkpt>
      <trkpt lat="44.84828" lon="-0.36139">
        <ele>24</ele>
        <time>2013-10-20T13:21:07Z</time>
      </trkpt>
      <trkpt lat="44.84833" lon="-0.36125">
        <ele>24</ele>
        <time>2013-10-20T13:21:14Z</time>
      </trkpt>
      <trkpt lat="44.84836" lon="-0.36117">
        <ele>24</ele>
        <time>2013-10-20T13:21:21Z</time>
      </trkpt>
      <trkpt lat="44.84837" lon="-0.36113">
        <ele>24</ele>
        <time>2013-10-20T13:21:29Z</time>
      </trkpt>
      <trkpt lat="44.84836" lon="-0.36112">
        <ele>24</ele>
        <time>2013-10-20T13:21:30Z</time>
      </trkpt>
      <trkpt lat="44.84838" lon="-0.36101">
        <ele>24</ele>
        <time>2013-10-20T13:21:37Z</time>
      </trkpt>
      <trkpt lat="44.84843" lon="-0.3609">
        <ele>24</ele>
        <time>2013-10-20T13:21:42Z</time>
      </trkpt>
      <trkpt lat="44.84859" lon="-0.36076">
        <ele>23</ele>
        <time>2013-10-20T13:21:49Z</time>
      </trkpt>
      <trkpt lat="44.84879" lon="-0.36054">
        <ele>24</ele>
        <time>2013-10-20T13:21:57Z</time>
      </trkpt>
      <trkpt lat="44.84894" lon="-0.36041">
        <ele>23</ele>
        <time>2013-10-20T13:22:04Z</time>
      </trkpt>
      <trkpt lat="44.84895" lon="-0.3604">
        <ele>23</ele>
        <time>2013-10-20T13:22:10Z</time>
      </trkpt>
      <trkpt lat="44.84896" lon="-0.36039">
        <ele>23</ele>
        <time>2013-10-20T13:22:16Z</time>
      </trkpt>
      <trkpt lat="44.84896" lon="-0.36036">
        <ele>23</ele>
        <time>2013-10-20T13:22:25Z</time>
      </trkpt>
      <trkpt lat="44.84897" lon="-0.36035">
        <ele>23</ele>
        <time>2013-10-20T13:22:32Z</time>
      </trkpt>
      <trkpt lat="44.84898" lon="-0.36034">
        <ele>23</ele>
        <time>2013-10-20T13:22:39Z</time>
      </trkpt>
      <trkpt lat="44.84897" lon="-0.36033">
        <ele>23</ele>
        <time>2013-10-20T13:22:45Z</time>
      </trkpt>
      <trkpt lat="44.84895" lon="-0.3603">
        <ele>23</ele>
        <time>2013-10-20T13:22:51Z</time>
      </trkpt>
      <trkpt lat="44.84892" lon="-0.36027">
        <ele>24</ele>
        <time>2013-10-20T13:22:59Z</time>
      </trkpt>
      <trkpt lat="44.8489" lon="-0.36025">
        <ele>24</ele>
        <time>2013-10-20T13:23:07Z</time>
      </trkpt>
      <trkpt lat="44.84889" lon="-0.36025">
        <ele>24</ele>
        <time>2013-10-20T13:23:16Z</time>
      </trkpt>
      <trkpt lat="44.84888" lon="-0.36021">
        <ele>24</ele>
        <time>2013-10-20T13:23:22Z</time>
      </trkpt>
      <trkpt lat="44.84888" lon="-0.36021">
        <ele>24</ele>
        <time>2013-10-20T13:23:32Z</time>
      </trkpt>
      <trkpt lat="44.84888" lon="-0.3602">
        <ele>25</ele>
        <time>2013-10-20T13:23:38Z</time>
      </trkpt>
      <trkpt lat="44.84887" lon="-0.36019">
        <ele>25</ele>
        <time>2013-10-20T13:23:51Z</time>
      </trkpt>
      <trkpt lat="44.84887" lon="-0.36019">
        <ele>25</ele>
        <time>2013-10-20T13:24:04Z</time>
      </trkpt>
      <trkpt lat="44.84887" lon="-0.36019">
        <ele>25</ele>
        <time>2013-10-20T13:24:13Z</time>
      </trkpt>
      <trkpt lat="44.84886" lon="-0.36016">
        <ele>25</ele>
        <time>2013-10-20T13:24:18Z</time>
      </trkpt>
      <trkpt lat="44.84882" lon="-0.36002">
        <ele>27</ele>
        <time>2013-10-20T13:24:25Z</time>
      </trkpt>
      <trkpt lat="44.84881" lon="-0.35987">
        <ele>29</ele>
        <time>2013-10-20T13:24:32Z</time>
      </trkpt>
      <trkpt lat="44.84879" lon="-0.35979">
        <ele>30</ele>
        <time>2013-10-20T13:24:36Z</time>
      </trkpt>
      <trkpt lat="44.84878" lon="-0.35972">
        <ele>31</ele>
        <time>2013-10-20T13:24:39Z</time>
      </trkpt>
      <trkpt lat="44.84873" lon="-0.35955">
        <ele>33</ele>
        <time>2013-10-20T13:24:46Z</time>
      </trkpt>
      <trkpt lat="44.84872" lon="-0.35946">
        <ele>34</ele>
        <time>2013-10-20T13:24:51Z</time>
      </trkpt>
      <trkpt lat="44.84871" lon="-0.3594">
        <ele>34</ele>
        <time>2013-10-20T13:24:54Z</time>
      </trkpt>
      <trkpt lat="44.84865" lon="-0.35932">
        <ele>35</ele>
        <time>2013-10-20T13:24:59Z</time>
      </trkpt>
      <trkpt lat="44.84851" lon="-0.35926">
        <ele>36</ele>
        <time>2013-10-20T13:25:06Z</time>
      </trkpt>
      <trkpt lat="44.84848" lon="-0.35926">
        <ele>36</ele>
        <time>2013-10-20T13:25:08Z</time>
      </trkpt>
      <trkpt lat="44.84843" lon="-0.35928">
        <ele>36</ele>
        <time>2013-10-20T13:25:12Z</time>
      </trkpt>
      <trkpt lat="44.84841" lon="-0.35927">
        <ele>36</ele>
        <time>2013-10-20T13:25:14Z</time>
      </trkpt>
      <trkpt lat="44.84836" lon="-0.3592">
        <ele>37</ele>
        <time>2013-10-20T13:25:19Z</time>
      </trkpt>
      <trkpt lat="44.84834" lon="-0.35916">
        <ele>37</ele>
        <time>2013-10-20T13:25:22Z</time>
      </trkpt>
      <trkpt lat="44.84827" lon="-0.35907">
        <ele>38</ele>
        <time>2013-10-20T13:25:30Z</time>
      </trkpt>
      <trkpt lat="44.84818" lon="-0.35892">
        <ele>39</ele>
        <time>2013-10-20T13:25:39Z</time>
      </trkpt>
      <trkpt lat="44.84812" lon="-0.35884">
        <ele>39</ele>
        <time>2013-10-20T13:25:45Z</time>
      </trkpt>
      <trkpt lat="44.84808" lon="-0.35876">
        <ele>40</ele>
        <time>2013-10-20T13:25:49Z</time>
      </trkpt>
      <trkpt lat="44.84802" lon="-0.35864">
        <ele>40</ele>
        <time>2013-10-20T13:25:56Z</time>
      </trkpt>
      <trkpt lat="44.84803" lon="-0.35859">
        <ele>40</ele>
        <time>2013-10-20T13:26:03Z</time>
      </trkpt>
      <trkpt lat="44.84803" lon="-0.3586">
        <ele>40</ele>
        <time>2013-10-20T13:26:08Z</time>
      </trkpt>
      <trkpt lat="44.84803" lon="-0.3586">
        <ele>40</ele>
        <time>2013-10-20T13:26:18Z</time>
      </trkpt>
      <trkpt lat="44.84804" lon="-0.35861">
        <ele>40</ele>
        <time>2013-10-20T13:26:27Z</time>
      </trkpt>
      <trkpt lat="44.84804" lon="-0.35861">
        <ele>40</ele>
        <time>2013-10-20T13:26:33Z</time>
      </trkpt>
      <trkpt lat="44.84804" lon="-0.35861">
        <ele>40</ele>
        <time>2013-10-20T13:26:46Z</time>
      </trkpt>
      <trkpt lat="44.84804" lon="-0.35862">
        <ele>40</ele>
        <time>2013-10-20T13:26:59Z</time>
      </trkpt>
      <trkpt lat="44.84804" lon="-0.35861">
        <ele>40</ele>
        <time>2013-10-20T13:27:14Z</time>
      </trkpt>
      <trkpt lat="44.84804" lon="-0.35861">
        <ele>40</ele>
        <time>2013-10-20T13:27:34Z</time>
      </trkpt>
      <trkpt lat="44.84804" lon="-0.35861">
        <ele>40</ele>
        <time>2013-10-20T13:27:45Z</time>
      </trkpt>
      <trkpt lat="44.84804" lon="-0.35861">
        <ele>40</ele>
        <time>2013-10-20T13:27:57Z</time>
      </trkpt>
      <trkpt lat="44.84804" lon="-0.3586">
        <ele>40</ele>
        <time>2013-10-20T13:28:11Z</time>
      </trkpt>
      <trkpt lat="44.84804" lon="-0.3586">
        <ele>40</ele>
        <time>2013-10-20T13:28:12Z</time>
      </trkpt>
      <trkpt lat="44.84812" lon="-0.35854">
        <ele>40</ele>
        <time>2013-10-20T13:28:19Z</time>
      </trkpt>
      <trkpt lat="44.84818" lon="-0.35838">
        <ele>41</ele>
        <time>2013-10-20T13:28:28Z</time>
      </trkpt>
      <trkpt lat="44.84827" lon="-0.35824">
        <ele>41</ele>
        <time>2013-10-20T13:28:36Z</time>
      </trkpt>
      <trkpt lat="44.84836" lon="-0.35805">
        <ele>42</ele>
        <time>2013-10-20T13:28:44Z</time>
      </trkpt>
      <trkpt lat="44.84845" lon="-0.35786">
        <ele>42</ele>
        <time>2013-10-20T13:28:52Z</time>
      </trkpt>
      <trkpt lat="44.84853" lon="-0.35769">
        <ele>43</ele>
        <time>2013-10-20T13:29:01Z</time>
      </trkpt>
      <trkpt lat="44.84861" lon="-0.35755">
        <ele>44</ele>
        <time>2013-10-20T13:29:09Z</time>
      </trkpt>
      <trkpt lat="44.84868" lon="-0.35741">
        <ele>44</ele>
        <time>2013-10-20T13:29:16Z</time>
      </trkpt>
      <trkpt lat="44.84869" lon="-0.35739">
        <ele>44</ele>
        <time>2013-10-20T13:29:20Z</time>
      </trkpt>
      <trkpt lat="44.84869" lon="-0.35738">
        <ele>44</ele>
        <time>2013-10-20T13:29:26Z</time>
      </trkpt>
      <trkpt lat="44.8487" lon="-0.35737">
        <ele>44</ele>
        <time>2013-10-20T13:29:29Z</time>
      </trkpt>
      <trkpt lat="44.84876" lon="-0.3574">
        <ele>44</ele>
        <time>2013-10-20T13:29:37Z</time>
      </trkpt>
      <trkpt lat="44.84879" lon="-0.35743">
        <ele>44</ele>
        <time>2013-10-20T13:29:45Z</time>
      </trkpt>
      <trkpt lat="44.84886" lon="-0.35749">
        <ele>44</ele>
        <time>2013-10-20T13:29:51Z</time>
      </trkpt>
      <trkpt lat="44.84901" lon="-0.35757">
        <ele>44</ele>
        <time>2013-10-20T13:30:00Z</time>
      </trkpt>
      <trkpt lat="44.84911" lon="-0.35755">
        <ele>43</ele>
        <time>2013-10-20T13:30:05Z</time>
      </trkpt>
      <trkpt lat="44.84928" lon="-0.35738">
        <ele>43</ele>
        <time>2013-10-20T13:30:13Z</time>
      </trkpt>
      <trkpt lat="44.84943" lon="-0.35708">
        <ele>43</ele>
        <time>2013-10-20T13:30:21Z</time>
      </trkpt>
      <trkpt lat="44.84952" lon="-0.35685">
        <ele>43</ele>
        <time>2013-10-20T13:30:26Z</time>
      </trkpt>
      <trkpt lat="44.84953" lon="-0.35678">
        <ele>42</ele>
        <time>2013-10-20T13:30:27Z</time>
      </trkpt>
      <trkpt lat="44.84954" lon="-0.35672">
        <ele>42</ele>
        <time>2013-10-20T13:30:28Z</time>
      </trkpt>
      <trkpt lat="44.84954" lon="-0.35665">
        <ele>42</ele>
        <time>2013-10-20T13:30:29Z</time>
      </trkpt>
      <trkpt lat="44.84954" lon="-0.35659">
        <ele>42</ele>
        <time>2013-10-20T13:30:30Z</time>
      </trkpt>
      <trkpt lat="44.84955" lon="-0.35635">
        <ele>41</ele>
        <time>2013-10-20T13:30:33Z</time>
      </trkpt>
      <trkpt lat="44.84957" lon="-0.35626">
        <ele>41</ele>
        <time>2013-10-20T13:30:34Z</time>
      </trkpt>
      <trkpt lat="44.84959" lon="-0.35617">
        <ele>41</ele>
        <time>2013-10-20T13:30:35Z</time>
      </trkpt>
      <trkpt lat="44.84963" lon="-0.35607">
        <ele>40</ele>
        <time>2013-10-20T13:30:36Z</time>
      </trkpt>
      <trkpt lat="44.84966" lon="-0.35597">
        <ele>40</ele>
        <time>2013-10-20T13:30:37Z</time>
      </trkpt>
      <trkpt lat="44.8497" lon="-0.35587">
        <ele>39</ele>
        <time>2013-10-20T13:30:38Z</time>
      </trkpt>
      <trkpt lat="44.84999" lon="-0.35499">
        <ele>36</ele>
        <time>2013-10-20T13:30:46Z</time>
      </trkpt>
      <trkpt lat="44.85014" lon="-0.35461">
        <ele>38</ele>
        <time>2013-10-20T13:30:50Z</time>
      </trkpt>
      <trkpt lat="44.85027" lon="-0.35439">
        <ele>40</ele>
        <time>2013-10-20T13:30:53Z</time>
      </trkpt>
      <trkpt lat="44.85051" lon="-0.35382">
        <ele>43</ele>
        <time>2013-10-20T13:31:00Z</time>
      </trkpt>
      <trkpt lat="44.85073" lon="-0.35325">
        <ele>45</ele>
        <time>2013-10-20T13:31:08Z</time>
      </trkpt>
      <trkpt lat="44.8508" lon="-0.3531">
        <ele>45</ele>
        <time>2013-10-20T13:31:11Z</time>
      </trkpt>
      <trkpt lat="44.85084" lon="-0.35307">
        <ele>45</ele>
        <time>2013-10-20T13:31:12Z</time>
      </trkpt>
      <trkpt lat="44.85097" lon="-0.35296">
        <ele>45</ele>
        <time>2013-10-20T13:31:17Z</time>
      </trkpt>
      <trkpt lat="44.8511" lon="-0.35282">
        <ele>44</ele>
        <time>2013-10-20T13:31:23Z</time>
      </trkpt>
      <trkpt lat="44.85133" lon="-0.3526">
        <ele>44</ele>
        <time>2013-10-20T13:31:30Z</time>
      </trkpt>
      <trkpt lat="44.85144" lon="-0.35246">
        <ele>44</ele>
        <time>2013-10-20T13:31:33Z</time>
      </trkpt>
      <trkpt lat="44.85147" lon="-0.3524">
        <ele>44</ele>
        <time>2013-10-20T13:31:34Z</time>
      </trkpt>
      <trkpt lat="44.8515" lon="-0.35232">
        <ele>44</ele>
        <time>2013-10-20T13:31:35Z</time>
      </trkpt>
      <trkpt lat="44.85152" lon="-0.35225">
        <ele>44</ele>
        <time>2013-10-20T13:31:36Z</time>
      </trkpt>
      <trkpt lat="44.85154" lon="-0.35217">
        <ele>45</ele>
        <time>2013-10-20T13:31:37Z</time>
      </trkpt>
      <trkpt lat="44.85162" lon="-0.35187">
        <ele>45</ele>
        <time>2013-10-20T13:31:41Z</time>
      </trkpt>
      <trkpt lat="44.85182" lon="-0.35131">
        <ele>46</ele>
        <time>2013-10-20T13:31:50Z</time>
      </trkpt>
      <trkpt lat="44.85191" lon="-0.35095">
        <ele>47</ele>
        <time>2013-10-20T13:31:57Z</time>
      </trkpt>
      <trkpt lat="44.85197" lon="-0.35064">
        <ele>48</ele>
        <time>2013-10-20T13:32:04Z</time>
      </trkpt>
      <trkpt lat="44.852" lon="-0.35047">
        <ele>48</ele>
        <time>2013-10-20T13:32:11Z</time>
      </trkpt>
      <trkpt lat="44.85201" lon="-0.35046">
        <ele>48</ele>
        <time>2013-10-20T13:32:12Z</time>
      </trkpt>
      <trkpt lat="44.85207" lon="-0.35043">
        <ele>48</ele>
        <time>2013-10-20T13:32:19Z</time>
      </trkpt>
      <trkpt lat="44.85207" lon="-0.35043">
        <ele>48</ele>
        <time>2013-10-20T13:32:31Z</time>
      </trkpt>
      <trkpt lat="44.85207" lon="-0.35044">
        <ele>48</ele>
        <time>2013-10-20T13:32:46Z</time>
      </trkpt>
      <trkpt lat="44.85208" lon="-0.35045">
        <ele>48</ele>
        <time>2013-10-20T13:33:02Z</time>
      </trkpt>
      <trkpt lat="44.85207" lon="-0.35044">
        <ele>48</ele>
        <time>2013-10-20T13:33:11Z</time>
      </trkpt>
      <trkpt lat="44.85207" lon="-0.35044">
        <ele>48</ele>
        <time>2013-10-20T13:33:25Z</time>
      </trkpt>
      <trkpt lat="44.8521" lon="-0.35044">
        <ele>48</ele>
        <time>2013-10-20T13:33:30Z</time>
      </trkpt>
      <trkpt lat="44.8521" lon="-0.35044">
        <ele>48</ele>
        <time>2013-10-20T13:33:42Z</time>
      </trkpt>
      <trkpt lat="44.8521" lon="-0.35044">
        <ele>48</ele>
        <time>2013-10-20T13:33:46Z</time>
      </trkpt>
      <trkpt lat="44.85211" lon="-0.35043">
        <ele>48</ele>
        <time>2013-10-20T13:33:47Z</time>
      </trkpt>
      <trkpt lat="44.85222" lon="-0.35033">
        <ele>48</ele>
        <time>2013-10-20T13:33:52Z</time>
      </trkpt>
      <trkpt lat="44.85246" lon="-0.35008">
        <ele>46</ele>
        <time>2013-10-20T13:33:59Z</time>
      </trkpt>
      <trkpt lat="44.85268" lon="-0.34985">
        <ele>44</ele>
        <time>2013-10-20T13:34:05Z</time>
      </trkpt>
      <trkpt lat="44.85289" lon="-0.3496">
        <ele>42</ele>
        <time>2013-10-20T13:34:13Z</time>
      </trkpt>
      <trkpt lat="44.85291" lon="-0.34932">
        <ele>41</ele>
        <time>2013-10-20T13:34:19Z</time>
      </trkpt>
      <trkpt lat="44.85288" lon="-0.34905">
        <ele>41</ele>
        <time>2013-10-20T13:34:24Z</time>
      </trkpt>
      <trkpt lat="44.85286" lon="-0.34899">
        <ele>40</ele>
        <time>2013-10-20T13:34:25Z</time>
      </trkpt>
      <trkpt lat="44.85268" lon="-0.34845">
        <ele>38</ele>
        <time>2013-10-20T13:34:34Z</time>
      </trkpt>
      <trkpt lat="44.85255" lon="-0.34812">
        <ele>38</ele>
        <time>2013-10-20T13:34:41Z</time>
      </trkpt>
      <trkpt lat="44.85241" lon="-0.34774">
        <ele>37</ele>
        <time>2013-10-20T13:34:50Z</time>
      </trkpt>
      <trkpt lat="44.85232" lon="-0.34736">
        <ele>37</ele>
        <time>2013-10-20T13:34:58Z</time>
      </trkpt>
      <trkpt lat="44.85229" lon="-0.34708">
        <ele>36</ele>
        <time>2013-10-20T13:35:03Z</time>
      </trkpt>
      <trkpt lat="44.85229" lon="-0.34702">
        <ele>36</ele>
        <time>2013-10-20T13:35:04Z</time>
      </trkpt>
      <trkpt lat="44.85231" lon="-0.34665">
        <ele>34</ele>
        <time>2013-10-20T13:35:11Z</time>
      </trkpt>
      <trkpt lat="44.85233" lon="-0.34661">
        <ele>34</ele>
        <time>2013-10-20T13:35:12Z</time>
      </trkpt>
      <trkpt lat="44.85236" lon="-0.34656">
        <ele>34</ele>
        <time>2013-10-20T13:35:13Z</time>
      </trkpt>
      <trkpt lat="44.85257" lon="-0.34621">
        <ele>33</ele>
        <time>2013-10-20T13:35:22Z</time>
      </trkpt>
      <trkpt lat="44.85259" lon="-0.3462">
        <ele>33</ele>
        <time>2013-10-20T13:35:26Z</time>
      </trkpt>
      <trkpt lat="44.8526" lon="-0.34621">
        <ele>33</ele>
        <time>2013-10-20T13:35:33Z</time>
      </trkpt>
      <trkpt lat="44.85261" lon="-0.34621">
        <ele>33</ele>
        <time>2013-10-20T13:35:39Z</time>
      </trkpt>
      <trkpt lat="44.85261" lon="-0.34621">
        <ele>33</ele>
        <time>2013-10-20T13:35:43Z</time>
      </trkpt>
      <trkpt lat="44.85264" lon="-0.34619">
        <ele>33</ele>
        <time>2013-10-20T13:35:49Z</time>
      </trkpt>
      <trkpt lat="44.85264" lon="-0.34615">
        <ele>33</ele>
        <time>2013-10-20T13:35:56Z</time>
      </trkpt>
      <trkpt lat="44.85266" lon="-0.34608">
        <ele>33</ele>
        <time>2013-10-20T13:36:03Z</time>
      </trkpt>
      <trkpt lat="44.85266" lon="-0.34607">
        <ele>33</ele>
        <time>2013-10-20T13:36:09Z</time>
      </trkpt>
      <trkpt lat="44.85269" lon="-0.34603">
        <ele>34</ele>
        <time>2013-10-20T13:36:13Z</time>
      </trkpt>
      <trkpt lat="44.85277" lon="-0.34589">
        <ele>34</ele>
        <time>2013-10-20T13:36:20Z</time>
      </trkpt>
      <trkpt lat="44.85278" lon="-0.34586">
        <ele>35</ele>
        <time>2013-10-20T13:36:25Z</time>
      </trkpt>
      <trkpt lat="44.85278" lon="-0.34588">
        <ele>34</ele>
        <time>2013-10-20T13:36:30Z</time>
      </trkpt>
      <trkpt lat="44.85278" lon="-0.34591">
        <ele>34</ele>
        <time>2013-10-20T13:36:35Z</time>
      </trkpt>
      <trkpt lat="44.85276" lon="-0.34596">
        <ele>34</ele>
        <time>2013-10-20T13:36:45Z</time>
      </trkpt>
      <trkpt lat="44.85274" lon="-0.346">
        <ele>34</ele>
        <time>2013-10-20T13:36:49Z</time>
      </trkpt>
      <trkpt lat="44.85273" lon="-0.34599">
        <ele>34</ele>
        <time>2013-10-20T13:36:55Z</time>
      </trkpt>
      <trkpt lat="44.85273" lon="-0.346">
        <ele>34</ele>
        <time>2013-10-20T13:37:07Z</time>
      </trkpt>
      <trkpt lat="44.85273" lon="-0.346">
        <ele>34</ele>
        <time>2013-10-20T13:37:15Z</time>
      </trkpt>
      <trkpt lat="44.85273" lon="-0.346">
        <ele>34</ele>
        <time>2013-10-20T13:37:31Z</time>
      </trkpt>
      <trkpt lat="44.85272" lon="-0.34601">
        <ele>34</ele>
        <time>2013-10-20T13:37:41Z</time>
      </trkpt>
      <trkpt lat="44.85272" lon="-0.34602">
        <ele>34</ele>
        <time>2013-10-20T13:37:55Z</time>
      </trkpt>
      <trkpt lat="44.85272" lon="-0.34601">
        <ele>34</ele>
        <time>2013-10-20T13:38:12Z</time>
      </trkpt>
      <trkpt lat="44.85272" lon="-0.34601">
        <ele>34</ele>
        <time>2013-10-20T13:38:24Z</time>
      </trkpt>
      <trkpt lat="44.85272" lon="-0.34602">
        <ele>34</ele>
        <time>2013-10-20T13:38:41Z</time>
      </trkpt>
      <trkpt lat="44.85272" lon="-0.34602">
        <ele>34</ele>
        <time>2013-10-20T13:38:53Z</time>
      </trkpt>
      <trkpt lat="44.85272" lon="-0.34602">
        <ele>34</ele>
        <time>2013-10-20T13:39:04Z</time>
      </trkpt>
      <trkpt lat="44.85272" lon="-0.34602">
        <ele>34</ele>
        <time>2013-10-20T13:39:16Z</time>
      </trkpt>
      <trkpt lat="44.85272" lon="-0.34602">
        <ele>34</ele>
        <time>2013-10-20T13:39:32Z</time>
      </trkpt>
      <trkpt lat="44.85272" lon="-0.34602">
        <ele>34</ele>
        <time>2013-10-20T13:39:46Z</time>
      </trkpt>
      <trkpt lat="44.85272" lon="-0.34602">
        <ele>34</ele>
        <time>2013-10-20T13:40:00Z</time>
      </trkpt>
      <trkpt lat="44.85273" lon="-0.34603">
        <ele>34</ele>
        <time>2013-10-20T13:40:13Z</time>
      </trkpt>
      <trkpt lat="44.85273" lon="-0.34602">
        <ele>34</ele>
        <time>2013-10-20T13:40:33Z</time>
      </trkpt>
      <trkpt lat="44.85273" lon="-0.34603">
        <ele>34</ele>
        <time>2013-10-20T13:40:54Z</time>
      </trkpt>
      <trkpt lat="44.85272" lon="-0.34602">
        <ele>34</ele>
        <time>2013-10-20T13:41:13Z</time>
      </trkpt>
      <trkpt lat="44.85272" lon="-0.34602">
        <ele>34</ele>
        <time>2013-10-20T13:41:31Z</time>
      </trkpt>
      <trkpt lat="44.85273" lon="-0.34602">
        <ele>34</ele>
        <time>2013-10-20T13:41:46Z</time>
      </trkpt>
      <trkpt lat="44.85273" lon="-0.34602">
        <ele>34</ele>
        <time>2013-10-20T13:42:05Z</time>
      </trkpt>
      <trkpt lat="44.85273" lon="-0.34603">
        <ele>34</ele>
        <time>2013-10-20T13:42:20Z</time>
      </trkpt>
      <trkpt lat="44.85273" lon="-0.34603">
        <ele>34</ele>
        <time>2013-10-20T13:42:34Z</time>
      </trkpt>
      <trkpt lat="44.85273" lon="-0.34603">
        <ele>34</ele>
        <time>2013-10-20T13:42:50Z</time>
      </trkpt>
      <trkpt lat="44.85273" lon="-0.34603">
        <ele>34</ele>
        <time>2013-10-20T13:43:09Z</time>
      </trkpt>
      <trkpt lat="44.85273" lon="-0.34603">
        <ele>34</ele>
        <time>2013-10-20T13:43:23Z</time>
      </trkpt>
      <trkpt lat="44.85273" lon="-0.34603">
        <ele>34</ele>
        <time>2013-10-20T13:43:39Z</time>
      </trkpt>
      <trkpt lat="44.85273" lon="-0.34602">
        <ele>34</ele>
        <time>2013-10-20T13:43:52Z</time>
      </trkpt>
      <trkpt lat="44.85273" lon="-0.34602">
        <ele>34</ele>
        <time>2013-10-20T13:44:03Z</time>
      </trkpt>
      <trkpt lat="44.85273" lon="-0.34602">
        <ele>34</ele>
        <time>2013-10-20T13:44:17Z</time>
      </trkpt>
      <trkpt lat="44.85273" lon="-0.34603">
        <ele>34</ele>
        <time>2013-10-20T13:44:29Z</time>
      </trkpt>
      <trkpt lat="44.85273" lon="-0.34603">
        <ele>34</ele>
        <time>2013-10-20T13:44:47Z</time>
      </trkpt>
      <trkpt lat="44.85272" lon="-0.34602">
        <ele>34</ele>
        <time>2013-10-20T13:45:08Z</time>
      </trkpt>
      <trkpt lat="44.85272" lon="-0.34603">
        <ele>34</ele>
        <time>2013-10-20T13:45:22Z</time>
      </trkpt>
      <trkpt lat="44.85272" lon="-0.34603">
        <ele>34</ele>
        <time>2013-10-20T13:45:31Z</time>
      </trkpt>
      <trkpt lat="44.85273" lon="-0.34603">
        <ele>34</ele>
        <time>2013-10-20T13:45:48Z</time>
      </trkpt>
      <trkpt lat="44.85273" lon="-0.34603">
        <ele>34</ele>
        <time>2013-10-20T13:46:05Z</time>
      </trkpt>
      <trkpt lat="44.85273" lon="-0.34603">
        <ele>34</ele>
        <time>2013-10-20T13:46:21Z</time>
      </trkpt>
      <trkpt lat="44.85272" lon="-0.34603">
        <ele>34</ele>
        <time>2013-10-20T13:46:43Z</time>
      </trkpt>
      <trkpt lat="44.85272" lon="-0.34604">
        <ele>34</ele>
        <time>2013-10-20T13:47:01Z</time>
      </trkpt>
      <trkpt lat="44.85272" lon="-0.34603">
        <ele>34</ele>
        <time>2013-10-20T13:47:14Z</time>
      </trkpt>
      <trkpt lat="44.85273" lon="-0.34602">
        <ele>34</ele>
        <time>2013-10-20T13:47:22Z</time>
      </trkpt>
      <trkpt lat="44.85274" lon="-0.34598">
        <ele>34</ele>
        <time>2013-10-20T13:47:29Z</time>
      </trkpt>
      <trkpt lat="44.85274" lon="-0.34598">
        <ele>34</ele>
        <time>2013-10-20T13:47:32Z</time>
      </trkpt>
      <trkpt lat="44.85275" lon="-0.34596">
        <ele>34</ele>
        <time>2013-10-20T13:47:33Z</time>
      </trkpt>
      <trkpt lat="44.85276" lon="-0.34595">
        <ele>34</ele>
        <time>2013-10-20T13:47:34Z</time>
      </trkpt>
      <trkpt lat="44.85276" lon="-0.34594">
        <ele>34</ele>
        <time>2013-10-20T13:47:35Z</time>
      </trkpt>
      <trkpt lat="44.85277" lon="-0.34592">
        <ele>34</ele>
        <time>2013-10-20T13:47:36Z</time>
      </trkpt>
      <trkpt lat="44.85277" lon="-0.3459">
        <ele>34</ele>
        <time>2013-10-20T13:47:37Z</time>
      </trkpt>
      <trkpt lat="44.85279" lon="-0.34574">
        <ele>35</ele>
        <time>2013-10-20T13:47:44Z</time>
      </trkpt>
      <trkpt lat="44.8528" lon="-0.34572">
        <ele>35</ele>
        <time>2013-10-20T13:47:45Z</time>
      </trkpt>
      <trkpt lat="44.85283" lon="-0.34565">
        <ele>36</ele>
        <time>2013-10-20T13:47:49Z</time>
      </trkpt>
      <trkpt lat="44.85292" lon="-0.34557">
        <ele>37</ele>
        <time>2013-10-20T13:47:56Z</time>
      </trkpt>
      <trkpt lat="44.85297" lon="-0.34551">
        <ele>38</ele>
        <time>2013-10-20T13:48:01Z</time>
      </trkpt>
      <trkpt lat="44.85304" lon="-0.34544">
        <ele>39</ele>
        <time>2013-10-20T13:48:08Z</time>
      </trkpt>
      <trkpt lat="44.8531" lon="-0.34537">
        <ele>40</ele>
        <time>2013-10-20T13:48:15Z</time>
      </trkpt>
      <trkpt lat="44.85311" lon="-0.34536">
        <ele>40</ele>
        <time>2013-10-20T13:48:16Z</time>
      </trkpt>
      <trkpt lat="44.85318" lon="-0.34526">
        <ele>41</ele>
        <time>2013-10-20T13:48:24Z</time>
      </trkpt>
      <trkpt lat="44.85319" lon="-0.34525">
        <ele>41</ele>
        <time>2013-10-20T13:48:25Z</time>
      </trkpt>
      <trkpt lat="44.85325" lon="-0.34517">
        <ele>42</ele>
        <time>2013-10-20T13:48:32Z</time>
      </trkpt>
      <trkpt lat="44.85331" lon="-0.34508">
        <ele>43</ele>
        <time>2013-10-20T13:48:39Z</time>
      </trkpt>
      <trkpt lat="44.85333" lon="-0.34506">
        <ele>43</ele>
        <time>2013-10-20T13:48:44Z</time>
      </trkpt>
      <trkpt lat="44.85334" lon="-0.34504">
        <ele>43</ele>
        <time>2013-10-20T13:48:50Z</time>
      </trkpt>
      <trkpt lat="44.85334" lon="-0.34504">
        <ele>43</ele>
        <time>2013-10-20T13:49:00Z</time>
      </trkpt>
      <trkpt lat="44.85333" lon="-0.34503">
        <ele>43</ele>
        <time>2013-10-20T13:49:07Z</time>
      </trkpt>
      <trkpt lat="44.85333" lon="-0.34502">
        <ele>43</ele>
        <time>2013-10-20T13:49:15Z</time>
      </trkpt>
      <trkpt lat="44.85332" lon="-0.34501">
        <ele>43</ele>
        <time>2013-10-20T13:49:21Z</time>
      </trkpt>
      <trkpt lat="44.85331" lon="-0.34498">
        <ele>43</ele>
        <time>2013-10-20T13:49:26Z</time>
      </trkpt>
      <trkpt lat="44.85335" lon="-0.34494">
        <ele>44</ele>
        <time>2013-10-20T13:49:34Z</time>
      </trkpt>
      <trkpt lat="44.85336" lon="-0.34494">
        <ele>44</ele>
        <time>2013-10-20T13:49:42Z</time>
      </trkpt>
      <trkpt lat="44.85337" lon="-0.34497">
        <ele>44</ele>
        <time>2013-10-20T13:49:48Z</time>
      </trkpt>
      <trkpt lat="44.85339" lon="-0.34498">
        <ele>44</ele>
        <time>2013-10-20T13:49:50Z</time>
      </trkpt>
      <trkpt lat="44.8534" lon="-0.34497">
        <ele>44</ele>
        <time>2013-10-20T13:49:58Z</time>
      </trkpt>
      <trkpt lat="44.8534" lon="-0.34498">
        <ele>44</ele>
        <time>2013-10-20T13:50:06Z</time>
      </trkpt>
      <trkpt lat="44.85342" lon="-0.34503">
        <ele>44</ele>
        <time>2013-10-20T13:50:12Z</time>
      </trkpt>
      <trkpt lat="44.85346" lon="-0.34508">
        <ele>44</ele>
        <time>2013-10-20T13:50:19Z</time>
      </trkpt>
      <trkpt lat="44.85348" lon="-0.3451">
        <ele>44</ele>
        <time>2013-10-20T13:50:28Z</time>
      </trkpt>
      <trkpt lat="44.8535" lon="-0.34513">
        <ele>44</ele>
        <time>2013-10-20T13:50:33Z</time>
      </trkpt>
      <trkpt lat="44.85355" lon="-0.34524">
        <ele>45</ele>
        <time>2013-10-20T13:50:40Z</time>
      </trkpt>
      <trkpt lat="44.85361" lon="-0.34533">
        <ele>45</ele>
        <time>2013-10-20T13:50:46Z</time>
      </trkpt>
      <trkpt lat="44.85367" lon="-0.3454">
        <ele>45</ele>
        <time>2013-10-20T13:50:53Z</time>
      </trkpt>
      <trkpt lat="44.85373" lon="-0.34552">
        <ele>45</ele>
        <time>2013-10-20T13:50:59Z</time>
      </trkpt>
      <trkpt lat="44.85381" lon="-0.34566">
        <ele>45</ele>
        <time>2013-10-20T13:51:06Z</time>
      </trkpt>
      <trkpt lat="44.85389" lon="-0.3458">
        <ele>45</ele>
        <time>2013-10-20T13:51:13Z</time>
      </trkpt>
      <trkpt lat="44.85399" lon="-0.34596">
        <ele>44</ele>
        <time>2013-10-20T13:51:19Z</time>
      </trkpt>
      <trkpt lat="44.8541" lon="-0.34615">
        <ele>43</ele>
        <time>2013-10-20T13:51:24Z</time>
      </trkpt>
      <trkpt lat="44.8543" lon="-0.34647">
        <ele>41</ele>
        <time>2013-10-20T13:51:32Z</time>
      </trkpt>
      <trkpt lat="44.85455" lon="-0.34689">
        <ele>40</ele>
        <time>2013-10-20T13:51:42Z</time>
      </trkpt>
      <trkpt lat="44.85478" lon="-0.34727">
        <ele>39</ele>
        <time>2013-10-20T13:51:51Z</time>
      </trkpt>
      <trkpt lat="44.85493" lon="-0.34753">
        <ele>37</ele>
        <time>2013-10-20T13:51:58Z</time>
      </trkpt>
      <trkpt lat="44.85511" lon="-0.34781">
        <ele>37</ele>
        <time>2013-10-20T13:52:05Z</time>
      </trkpt>
      <trkpt lat="44.85536" lon="-0.34822">
        <ele>35</ele>
        <time>2013-10-20T13:52:12Z</time>
      </trkpt>
      <trkpt lat="44.8555" lon="-0.34846">
        <ele>34</ele>
        <time>2013-10-20T13:52:17Z</time>
      </trkpt>
      <trkpt lat="44.85552" lon="-0.34848">
        <ele>34</ele>
        <time>2013-10-20T13:52:18Z</time>
      </trkpt>
      <trkpt lat="44.85554" lon="-0.34847">
        <ele>34</ele>
        <time>2013-10-20T13:52:19Z</time>
      </trkpt>
      <trkpt lat="44.85562" lon="-0.34842">
        <ele>35</ele>
        <time>2013-10-20T13:52:24Z</time>
      </trkpt>
      <trkpt lat="44.85574" lon="-0.34827">
        <ele>37</ele>
        <time>2013-10-20T13:52:33Z</time>
      </trkpt>
      <trkpt lat="44.85581" lon="-0.34819">
        <ele>37</ele>
        <time>2013-10-20T13:52:39Z</time>
      </trkpt>
      <trkpt lat="44.85581" lon="-0.34819">
        <ele>37</ele>
        <time>2013-10-20T13:52:40Z</time>
      </trkpt>
      <trkpt lat="44.85592" lon="-0.34836">
        <ele>37</ele>
        <time>2013-10-20T13:52:48Z</time>
      </trkpt>
      <trkpt lat="44.85598" lon="-0.34844">
        <ele>37</ele>
        <time>2013-10-20T13:52:52Z</time>
      </trkpt>
      <trkpt lat="44.85605" lon="-0.34839">
        <ele>37</ele>
        <time>2013-10-20T13:52:57Z</time>
      </trkpt>
      <trkpt lat="44.85605" lon="-0.34836">
        <ele>37</ele>
        <time>2013-10-20T13:52:58Z</time>
      </trkpt>
      <trkpt lat="44.85596" lon="-0.34821">
        <ele>38</ele>
        <time>2013-10-20T13:53:06Z</time>
      </trkpt>
      <trkpt lat="44.85587" lon="-0.3481">
        <ele>38</ele>
        <time>2013-10-20T13:53:13Z</time>
      </trkpt>
      <trkpt lat="44.85581" lon="-0.34799">
        <ele>39</ele>
        <time>2013-10-20T13:53:19Z</time>
      </trkpt>
      <trkpt lat="44.85579" lon="-0.34794">
        <ele>39</ele>
        <time>2013-10-20T13:53:21Z</time>
      </trkpt>
      <trkpt lat="44.85584" lon="-0.34782">
        <ele>40</ele>
        <time>2013-10-20T13:53:27Z</time>
      </trkpt>
      <trkpt lat="44.85594" lon="-0.34769">
        <ele>41</ele>
        <time>2013-10-20T13:53:35Z</time>
      </trkpt>
      <trkpt lat="44.85604" lon="-0.34757">
        <ele>41</ele>
        <time>2013-10-20T13:53:42Z</time>
      </trkpt>
      <trkpt lat="44.85616" lon="-0.34742">
        <ele>41</ele>
        <time>2013-10-20T13:53:50Z</time>
      </trkpt>
      <trkpt lat="44.8563" lon="-0.34724">
        <ele>40</ele>
        <time>2013-10-20T13:53:59Z</time>
      </trkpt>
      <trkpt lat="44.85635" lon="-0.34715">
        <ele>41</ele>
        <time>2013-10-20T13:54:03Z</time>
      </trkpt>
      <trkpt lat="44.85629" lon="-0.34698">
        <ele>42</ele>
        <time>2013-10-20T13:54:10Z</time>
      </trkpt>
      <trkpt lat="44.85628" lon="-0.34696">
        <ele>42</ele>
        <time>2013-10-20T13:54:11Z</time>
      </trkpt>
      <trkpt lat="44.85624" lon="-0.34693">
        <ele>43</ele>
        <time>2013-10-20T13:54:13Z</time>
      </trkpt>
      <trkpt lat="44.85614" lon="-0.34678">
        <ele>45</ele>
        <time>2013-10-20T13:54:21Z</time>
      </trkpt>
      <trkpt lat="44.85605" lon="-0.34665">
        <ele>46</ele>
        <time>2013-10-20T13:54:29Z</time>
      </trkpt>
      <trkpt lat="44.85598" lon="-0.34649">
        <ele>48</ele>
        <time>2013-10-20T13:54:38Z</time>
      </trkpt>
      <trkpt lat="44.85591" lon="-0.34634">
        <ele>49</ele>
        <time>2013-10-20T13:54:47Z</time>
      </trkpt>
      <trkpt lat="44.85584" lon="-0.34619">
        <ele>50</ele>
        <time>2013-10-20T13:54:55Z</time>
      </trkpt>
      <trkpt lat="44.85581" lon="-0.34609">
        <ele>51</ele>
        <time>2013-10-20T13:55:00Z</time>
      </trkpt>
      <trkpt lat="44.85574" lon="-0.34587">
        <ele>52</ele>
        <time>2013-10-20T13:55:10Z</time>
      </trkpt>
      <trkpt lat="44.85565" lon="-0.34568">
        <ele>53</ele>
        <time>2013-10-20T13:55:18Z</time>
      </trkpt>
      <trkpt lat="44.85557" lon="-0.34552">
        <ele>54</ele>
        <time>2013-10-20T13:55:25Z</time>
      </trkpt>
      <trkpt lat="44.85543" lon="-0.34532">
        <ele>55</ele>
        <time>2013-10-20T13:55:35Z</time>
      </trkpt>
      <trkpt lat="44.8553" lon="-0.34525">
        <ele>55</ele>
        <time>2013-10-20T13:55:42Z</time>
      </trkpt>
      <trkpt lat="44.8552" lon="-0.34509">
        <ele>55</ele>
        <time>2013-10-20T13:55:50Z</time>
      </trkpt>
      <trkpt lat="44.85521" lon="-0.34504">
        <ele>56</ele>
        <time>2013-10-20T13:55:56Z</time>
      </trkpt>
      <trkpt lat="44.85521" lon="-0.34504">
        <ele>56</ele>
        <time>2013-10-20T13:56:03Z</time>
      </trkpt>
      <trkpt lat="44.85521" lon="-0.34504">
        <ele>56</ele>
        <time>2013-10-20T13:56:10Z</time>
      </trkpt>
      <trkpt lat="44.85521" lon="-0.34504">
        <ele>56</ele>
        <time>2013-10-20T13:56:22Z</time>
      </trkpt>
      <trkpt lat="44.85521" lon="-0.34504">
        <ele>56</ele>
        <time>2013-10-20T13:56:35Z</time>
      </trkpt>
      <trkpt lat="44.85521" lon="-0.34504">
        <ele>56</ele>
        <time>2013-10-20T13:56:41Z</time>
      </trkpt>
      <trkpt lat="44.85521" lon="-0.34505">
        <ele>56</ele>
        <time>2013-10-20T13:56:52Z</time>
      </trkpt>
      <trkpt lat="44.85521" lon="-0.34504">
        <ele>56</ele>
        <time>2013-10-20T13:57:03Z</time>
      </trkpt>
      <trkpt lat="44.85521" lon="-0.34504">
        <ele>56</ele>
        <time>2013-10-20T13:57:16Z</time>
      </trkpt>
      <trkpt lat="44.85523" lon="-0.34503">
        <ele>56</ele>
        <time>2013-10-20T13:57:21Z</time>
      </trkpt>
      <trkpt lat="44.85524" lon="-0.345">
        <ele>56</ele>
        <time>2013-10-20T13:57:23Z</time>
      </trkpt>
      <trkpt lat="44.85531" lon="-0.34494">
        <ele>56</ele>
        <time>2013-10-20T13:57:30Z</time>
      </trkpt>
      <trkpt lat="44.85534" lon="-0.34492">
        <ele>55</ele>
        <time>2013-10-20T13:57:36Z</time>
      </trkpt>
      <trkpt lat="44.85533" lon="-0.34492">
        <ele>56</ele>
        <time>2013-10-20T13:57:42Z</time>
      </trkpt>
      <trkpt lat="44.85531" lon="-0.3449">
        <ele>56</ele>
        <time>2013-10-20T13:57:48Z</time>
      </trkpt>
      <trkpt lat="44.85531" lon="-0.3449">
        <ele>56</ele>
        <time>2013-10-20T13:57:49Z</time>
      </trkpt>
      <trkpt lat="44.85546" lon="-0.34484">
        <ele>55</ele>
        <time>2013-10-20T13:57:57Z</time>
      </trkpt>
      <trkpt lat="44.85563" lon="-0.34475">
        <ele>55</ele>
        <time>2013-10-20T13:58:03Z</time>
      </trkpt>
      <trkpt lat="44.85582" lon="-0.34461">
        <ele>55</ele>
        <time>2013-10-20T13:58:10Z</time>
      </trkpt>
      <trkpt lat="44.8559" lon="-0.34456">
        <ele>54</ele>
        <time>2013-10-20T13:58:12Z</time>
      </trkpt>
      <trkpt lat="44.85622" lon="-0.34435">
        <ele>53</ele>
        <time>2013-10-20T13:58:20Z</time>
      </trkpt>
      <trkpt lat="44.85648" lon="-0.34417">
        <ele>51</ele>
        <time>2013-10-20T13:58:27Z</time>
      </trkpt>
      <trkpt lat="44.85647" lon="-0.34403">
        <ele>51</ele>
        <time>2013-10-20T13:58:31Z</time>
      </trkpt>
      <trkpt lat="44.85625" lon="-0.3436">
        <ele>50</ele>
        <time>2013-10-20T13:58:40Z</time>
      </trkpt>
      <trkpt lat="44.85613" lon="-0.34335">
        <ele>49</ele>
        <time>2013-10-20T13:58:45Z</time>
      </trkpt>
      <trkpt lat="44.85611" lon="-0.3433">
        <ele>49</ele>
        <time>2013-10-20T13:58:46Z</time>
      </trkpt>
      <trkpt lat="44.85586" lon="-0.34277">
        <ele>48</ele>
        <time>2013-10-20T13:58:56Z</time>
      </trkpt>
      <trkpt lat="44.85571" lon="-0.34243">
        <ele>48</ele>
        <time>2013-10-20T13:59:03Z</time>
      </trkpt>
      <trkpt lat="44.85557" lon="-0.34213">
        <ele>48</ele>
        <time>2013-10-20T13:59:10Z</time>
      </trkpt>
      <trkpt lat="44.85539" lon="-0.34173">
        <ele>48</ele>
        <time>2013-10-20T13:59:21Z</time>
      </trkpt>
      <trkpt lat="44.85527" lon="-0.34145">
        <ele>48</ele>
        <time>2013-10-20T13:59:30Z</time>
      </trkpt>
      <trkpt lat="44.85516" lon="-0.34124">
        <ele>48</ele>
        <time>2013-10-20T13:59:37Z</time>
      </trkpt>
      <trkpt lat="44.85502" lon="-0.34108">
        <ele>49</ele>
        <time>2013-10-20T13:59:44Z</time>
      </trkpt>
      <trkpt lat="44.85479" lon="-0.34083">
        <ele>50</ele>
        <time>2013-10-20T13:59:53Z</time>
      </trkpt>
      <trkpt lat="44.85458" lon="-0.34059">
        <ele>49</ele>
        <time>2013-10-20T14:00:01Z</time>
      </trkpt>
      <trkpt lat="44.85443" lon="-0.34044">
        <ele>48</ele>
        <time>2013-10-20T14:00:08Z</time>
      </trkpt>
      <trkpt lat="44.85432" lon="-0.34035">
        <ele>48</ele>
        <time>2013-10-20T14:00:15Z</time>
      </trkpt>
      <trkpt lat="44.85415" lon="-0.34038">
        <ele>48</ele>
        <time>2013-10-20T14:00:21Z</time>
      </trkpt>
      <trkpt lat="44.85398" lon="-0.34036">
        <ele>48</ele>
        <time>2013-10-20T14:00:27Z</time>
      </trkpt>
      <trkpt lat="44.85376" lon="-0.34023">
        <ele>49</ele>
        <time>2013-10-20T14:00:34Z</time>
      </trkpt>
      <trkpt lat="44.85351" lon="-0.34007">
        <ele>49</ele>
        <time>2013-10-20T14:00:42Z</time>
      </trkpt>
      <trkpt lat="44.85328" lon="-0.34002">
        <ele>49</ele>
        <time>2013-10-20T14:00:49Z</time>
      </trkpt>
      <trkpt lat="44.8531" lon="-0.34015">
        <ele>51</ele>
        <time>2013-10-20T14:00:55Z</time>
      </trkpt>
      <trkpt lat="44.85287" lon="-0.34009">
        <ele>51</ele>
        <time>2013-10-20T14:01:02Z</time>
      </trkpt>
      <trkpt lat="44.85264" lon="-0.34009">
        <ele>52</ele>
        <time>2013-10-20T14:01:09Z</time>
      </trkpt>
      <trkpt lat="44.85241" lon="-0.3401">
        <ele>52</ele>
        <time>2013-10-20T14:01:16Z</time>
      </trkpt>
      <trkpt lat="44.85217" lon="-0.34011">
        <ele>51</ele>
        <time>2013-10-20T14:01:23Z</time>
      </trkpt>
      <trkpt lat="44.85199" lon="-0.34006">
        <ele>51</ele>
        <time>2013-10-20T14:01:29Z</time>
      </trkpt>
      <trkpt lat="44.85196" lon="-0.34003">
        <ele>51</ele>
        <time>2013-10-20T14:01:30Z</time>
      </trkpt>
      <trkpt lat="44.85194" lon="-0.34">
        <ele>51</ele>
        <time>2013-10-20T14:01:31Z</time>
      </trkpt>
      <trkpt lat="44.8518" lon="-0.33968">
        <ele>52</ele>
        <time>2013-10-20T14:01:39Z</time>
      </trkpt>
      <trkpt lat="44.85162" lon="-0.33939">
        <ele>52</ele>
        <time>2013-10-20T14:01:47Z</time>
      </trkpt>
      <trkpt lat="44.85145" lon="-0.33908">
        <ele>52</ele>
        <time>2013-10-20T14:01:55Z</time>
      </trkpt>
      <trkpt lat="44.85127" lon="-0.33881">
        <ele>53</ele>
        <time>2013-10-20T14:02:02Z</time>
      </trkpt>
      <trkpt lat="44.85119" lon="-0.33864">
        <ele>54</ele>
        <time>2013-10-20T14:02:07Z</time>
      </trkpt>
      <trkpt lat="44.85119" lon="-0.33861">
        <ele>54</ele>
        <time>2013-10-20T14:02:08Z</time>
      </trkpt>
      <trkpt lat="44.8512" lon="-0.33857">
        <ele>54</ele>
        <time>2013-10-20T14:02:09Z</time>
      </trkpt>
      <trkpt lat="44.85128" lon="-0.33828">
        <ele>54</ele>
        <time>2013-10-20T14:02:17Z</time>
      </trkpt>
      <trkpt lat="44.8514" lon="-0.33801">
        <ele>53</ele>
        <time>2013-10-20T14:02:24Z</time>
      </trkpt>
      <trkpt lat="44.85157" lon="-0.33766">
        <ele>51</ele>
        <time>2013-10-20T14:02:32Z</time>
      </trkpt>
      <trkpt lat="44.85158" lon="-0.3376">
        <ele>51</ele>
        <time>2013-10-20T14:02:33Z</time>
      </trkpt>
      <trkpt lat="44.85158" lon="-0.33755">
        <ele>51</ele>
        <time>2013-10-20T14:02:34Z</time>
      </trkpt>
      <trkpt lat="44.85156" lon="-0.33749">
        <ele>51</ele>
        <time>2013-10-20T14:02:35Z</time>
      </trkpt>
      <trkpt lat="44.85153" lon="-0.33745">
        <ele>51</ele>
        <time>2013-10-20T14:02:36Z</time>
      </trkpt>
      <trkpt lat="44.8515" lon="-0.33742">
        <ele>51</ele>
        <time>2013-10-20T14:02:37Z</time>
      </trkpt>
      <trkpt lat="44.85146" lon="-0.33739">
        <ele>51</ele>
        <time>2013-10-20T14:02:38Z</time>
      </trkpt>
      <trkpt lat="44.85125" lon="-0.33714">
        <ele>52</ele>
        <time>2013-10-20T14:02:45Z</time>
      </trkpt>
      <trkpt lat="44.85108" lon="-0.33676">
        <ele>52</ele>
        <time>2013-10-20T14:02:53Z</time>
      </trkpt>
      <trkpt lat="44.85089" lon="-0.33631">
        <ele>50</ele>
        <time>2013-10-20T14:03:02Z</time>
      </trkpt>
      <trkpt lat="44.85077" lon="-0.33602">
        <ele>50</ele>
        <time>2013-10-20T14:03:07Z</time>
      </trkpt>
      <trkpt lat="44.85075" lon="-0.33595">
        <ele>50</ele>
        <time>2013-10-20T14:03:08Z</time>
      </trkpt>
      <trkpt lat="44.85075" lon="-0.33589">
        <ele>49</ele>
        <time>2013-10-20T14:03:09Z</time>
      </trkpt>
      <trkpt lat="44.85073" lon="-0.33564">
        <ele>49</ele>
        <time>2013-10-20T14:03:15Z</time>
      </trkpt>
      <trkpt lat="44.85071" lon="-0.33563">
        <ele>49</ele>
        <time>2013-10-20T14:08:38Z</time>
      </trkpt>
      <trkpt lat="44.85068" lon="-0.33562">
        <ele>49</ele>
        <time>2013-10-20T14:08:39Z</time>
      </trkpt>
      <trkpt lat="44.85066" lon="-0.3356">
        <ele>49</ele>
        <time>2013-10-20T14:08:40Z</time>
      </trkpt>
      <trkpt lat="44.85052" lon="-0.33545">
        <ele>49</ele>
        <time>2013-10-20T14:08:47Z</time>
      </trkpt>
      <trkpt lat="44.85036" lon="-0.33528">
        <ele>49</ele>
        <time>2013-10-20T14:08:54Z</time>
      </trkpt>
      <trkpt lat="44.85006" lon="-0.33499">
        <ele>50</ele>
        <time>2013-10-20T14:09:03Z</time>
      </trkpt>
      <trkpt lat="44.84978" lon="-0.33469">
        <ele>50</ele>
        <time>2013-10-20T14:09:12Z</time>
      </trkpt>
      <trkpt lat="44.8496" lon="-0.33449">
        <ele>50</ele>
        <time>2013-10-20T14:09:19Z</time>
      </trkpt>
      <trkpt lat="44.84942" lon="-0.33429">
        <ele>50</ele>
        <time>2013-10-20T14:09:26Z</time>
      </trkpt>
      <trkpt lat="44.84925" lon="-0.33404">
        <ele>51</ele>
        <time>2013-10-20T14:09:33Z</time>
      </trkpt>
      <trkpt lat="44.84915" lon="-0.33383">
        <ele>51</ele>
        <time>2013-10-20T14:09:39Z</time>
      </trkpt>
      <trkpt lat="44.84914" lon="-0.33364">
        <ele>51</ele>
        <time>2013-10-20T14:09:45Z</time>
      </trkpt>
      <trkpt lat="44.84908" lon="-0.33342">
        <ele>51</ele>
        <time>2013-10-20T14:09:52Z</time>
      </trkpt>
      <trkpt lat="44.84893" lon="-0.33318">
        <ele>52</ele>
        <time>2013-10-20T14:10:01Z</time>
      </trkpt>
      <trkpt lat="44.84869" lon="-0.33288">
        <ele>53</ele>
        <time>2013-10-20T14:10:11Z</time>
      </trkpt>
      <trkpt lat="44.84853" lon="-0.33262">
        <ele>53</ele>
        <time>2013-10-20T14:10:18Z</time>
      </trkpt>
      <trkpt lat="44.84834" lon="-0.33223">
        <ele>55</ele>
        <time>2013-10-20T14:10:27Z</time>
      </trkpt>
      <trkpt lat="44.84815" lon="-0.33184">
        <ele>56</ele>
        <time>2013-10-20T14:10:36Z</time>
      </trkpt>
      <trkpt lat="44.84801" lon="-0.33155">
        <ele>57</ele>
        <time>2013-10-20T14:10:43Z</time>
      </trkpt>
      <trkpt lat="44.84789" lon="-0.33129">
        <ele>57</ele>
        <time>2013-10-20T14:10:49Z</time>
      </trkpt>
      <trkpt lat="44.84769" lon="-0.3309">
        <ele>59</ele>
        <time>2013-10-20T14:10:58Z</time>
      </trkpt>
      <trkpt lat="44.84755" lon="-0.33064">
        <ele>60</ele>
        <time>2013-10-20T14:11:05Z</time>
      </trkpt>
      <trkpt lat="44.84747" lon="-0.33045">
        <ele>60</ele>
        <time>2013-10-20T14:11:11Z</time>
      </trkpt>
      <trkpt lat="44.84744" lon="-0.33042">
        <ele>60</ele>
        <time>2013-10-20T14:11:16Z</time>
      </trkpt>
      <trkpt lat="44.84742" lon="-0.33041">
        <ele>60</ele>
        <time>2013-10-20T14:11:25Z</time>
      </trkpt>
      <trkpt lat="44.84735" lon="-0.33045">
        <ele>60</ele>
        <time>2013-10-20T14:11:29Z</time>
      </trkpt>
      <trkpt lat="44.84734" lon="-0.33047">
        <ele>60</ele>
        <time>2013-10-20T14:11:30Z</time>
      </trkpt>
      <trkpt lat="44.84719" lon="-0.33068">
        <ele>60</ele>
        <time>2013-10-20T14:11:37Z</time>
      </trkpt>
      <trkpt lat="44.84706" lon="-0.33091">
        <ele>60</ele>
        <time>2013-10-20T14:11:44Z</time>
      </trkpt>
      <trkpt lat="44.84678" lon="-0.33131">
        <ele>59</ele>
        <time>2013-10-20T14:11:55Z</time>
      </trkpt>
      <trkpt lat="44.8466" lon="-0.33156">
        <ele>60</ele>
        <time>2013-10-20T14:12:02Z</time>
      </trkpt>
      <trkpt lat="44.84633" lon="-0.33196">
        <ele>60</ele>
        <time>2013-10-20T14:12:11Z</time>
      </trkpt>
      <trkpt lat="44.84609" lon="-0.33218">
        <ele>60</ele>
        <time>2013-10-20T14:12:18Z</time>
      </trkpt>
      <trkpt lat="44.84605" lon="-0.3322">
        <ele>60</ele>
        <time>2013-10-20T14:12:19Z</time>
      </trkpt>
      <trkpt lat="44.84601" lon="-0.33222">
        <ele>60</ele>
        <time>2013-10-20T14:12:20Z</time>
      </trkpt>
      <trkpt lat="44.84576" lon="-0.33231">
        <ele>59</ele>
        <time>2013-10-20T14:12:27Z</time>
      </trkpt>
      <trkpt lat="44.84547" lon="-0.33242">
        <ele>58</ele>
        <time>2013-10-20T14:12:36Z</time>
      </trkpt>
      <trkpt lat="44.84534" lon="-0.33245">
        <ele>58</ele>
        <time>2013-10-20T14:12:40Z</time>
      </trkpt>
      <trkpt lat="44.84531" lon="-0.33243">
        <ele>58</ele>
        <time>2013-10-20T14:12:41Z</time>
      </trkpt>
      <trkpt lat="44.84529" lon="-0.33239">
        <ele>58</ele>
        <time>2013-10-20T14:12:42Z</time>
      </trkpt>
      <trkpt lat="44.84526" lon="-0.33235">
        <ele>57</ele>
        <time>2013-10-20T14:12:43Z</time>
      </trkpt>
      <trkpt lat="44.84525" lon="-0.3323">
        <ele>57</ele>
        <time>2013-10-20T14:12:44Z</time>
      </trkpt>
      <trkpt lat="44.84524" lon="-0.33226">
        <ele>57</ele>
        <time>2013-10-20T14:12:45Z</time>
      </trkpt>
      <trkpt lat="44.84519" lon="-0.33199">
        <ele>57</ele>
        <time>2013-10-20T14:12:51Z</time>
      </trkpt>
      <trkpt lat="44.84515" lon="-0.33179">
        <ele>58</ele>
        <time>2013-10-20T14:12:55Z</time>
      </trkpt>
      <trkpt lat="44.84513" lon="-0.33173">
        <ele>58</ele>
        <time>2013-10-20T14:12:56Z</time>
      </trkpt>
      <trkpt lat="44.84503" lon="-0.33141">
        <ele>57</ele>
        <time>2013-10-20T14:13:01Z</time>
      </trkpt>
      <trkpt lat="44.84494" lon="-0.331">
        <ele>57</ele>
        <time>2013-10-20T14:13:07Z</time>
      </trkpt>
      <trkpt lat="44.84492" lon="-0.33043">
        <ele>57</ele>
        <time>2013-10-20T14:13:14Z</time>
      </trkpt>
      <trkpt lat="44.84492" lon="-0.33034">
        <ele>57</ele>
        <time>2013-10-20T14:13:15Z</time>
      </trkpt>
      <trkpt lat="44.84488" lon="-0.32978">
        <ele>57</ele>
        <time>2013-10-20T14:13:22Z</time>
      </trkpt>
      <trkpt lat="44.84487" lon="-0.32955">
        <ele>57</ele>
        <time>2013-10-20T14:13:27Z</time>
      </trkpt>
      <trkpt lat="44.84484" lon="-0.32925">
        <ele>58</ele>
        <time>2013-10-20T14:13:32Z</time>
      </trkpt>
      <trkpt lat="44.84483" lon="-0.32919">
        <ele>58</ele>
        <time>2013-10-20T14:13:33Z</time>
      </trkpt>
      <trkpt lat="44.84476" lon="-0.32858">
        <ele>58</ele>
        <time>2013-10-20T14:13:42Z</time>
      </trkpt>
      <trkpt lat="44.84472" lon="-0.32824">
        <ele>57</ele>
        <time>2013-10-20T14:13:47Z</time>
      </trkpt>
      <trkpt lat="44.84472" lon="-0.32773">
        <ele>56</ele>
        <time>2013-10-20T14:13:54Z</time>
      </trkpt>
      <trkpt lat="44.84476" lon="-0.32705">
        <ele>55</ele>
        <time>2013-10-20T14:14:03Z</time>
      </trkpt>
      <trkpt lat="44.84479" lon="-0.32652">
        <ele>54</ele>
        <time>2013-10-20T14:14:10Z</time>
      </trkpt>
      <trkpt lat="44.8448" lon="-0.32645">
        <ele>54</ele>
        <time>2013-10-20T14:14:11Z</time>
      </trkpt>
      <trkpt lat="44.8449" lon="-0.3259">
        <ele>53</ele>
        <time>2013-10-20T14:14:18Z</time>
      </trkpt>
      <trkpt lat="44.84497" lon="-0.32546">
        <ele>52</ele>
        <time>2013-10-20T14:14:23Z</time>
      </trkpt>
      <trkpt lat="44.84496" lon="-0.32538">
        <ele>52</ele>
        <time>2013-10-20T14:14:24Z</time>
      </trkpt>
      <trkpt lat="44.84492" lon="-0.32524">
        <ele>52</ele>
        <time>2013-10-20T14:14:26Z</time>
      </trkpt>
      <trkpt lat="44.84479" lon="-0.3251">
        <ele>51</ele>
        <time>2013-10-20T14:14:30Z</time>
      </trkpt>
      <trkpt lat="44.84463" lon="-0.32514">
        <ele>51</ele>
        <time>2013-10-20T14:14:35Z</time>
      </trkpt>
      <trkpt lat="44.84458" lon="-0.32501">
        <ele>51</ele>
        <time>2013-10-20T14:14:38Z</time>
      </trkpt>
      <trkpt lat="44.84442" lon="-0.32434">
        <ele>50</ele>
        <time>2013-10-20T14:14:47Z</time>
      </trkpt>
      <trkpt lat="44.84428" lon="-0.32375">
        <ele>49</ele>
        <time>2013-10-20T14:14:54Z</time>
      </trkpt>
      <trkpt lat="44.84425" lon="-0.32361">
        <ele>49</ele>
        <time>2013-10-20T14:14:56Z</time>
      </trkpt>
      <trkpt lat="44.84413" lon="-0.32346">
        <ele>48</ele>
        <time>2013-10-20T14:15:00Z</time>
      </trkpt>
      <trkpt lat="44.84405" lon="-0.32351">
        <ele>48</ele>
        <time>2013-10-20T14:15:02Z</time>
      </trkpt>
      <trkpt lat="44.84393" lon="-0.32364">
        <ele>48</ele>
        <time>2013-10-20T14:15:06Z</time>
      </trkpt>
      <trkpt lat="44.84374" lon="-0.32378">
        <ele>48</ele>
        <time>2013-10-20T14:15:11Z</time>
      </trkpt>
      <trkpt lat="44.84339" lon="-0.324">
        <ele>47</ele>
        <time>2013-10-20T14:15:18Z</time>
      </trkpt>
      <trkpt lat="44.84329" lon="-0.32406">
        <ele>47</ele>
        <time>2013-10-20T14:15:20Z</time>
      </trkpt>
      <trkpt lat="44.84308" lon="-0.32414">
        <ele>46</ele>
        <time>2013-10-20T14:15:24Z</time>
      </trkpt>
      <trkpt lat="44.84303" lon="-0.32417">
        <ele>46</ele>
        <time>2013-10-20T14:15:25Z</time>
      </trkpt>
      <trkpt lat="44.84272" lon="-0.3243">
        <ele>45</ele>
        <time>2013-10-20T14:15:32Z</time>
      </trkpt>
      <trkpt lat="44.84262" lon="-0.3244">
        <ele>44</ele>
        <time>2013-10-20T14:15:37Z</time>
      </trkpt>
      <trkpt lat="44.84258" lon="-0.32458">
        <ele>44</ele>
        <time>2013-10-20T14:15:42Z</time>
      </trkpt>
      <trkpt lat="44.84251" lon="-0.32454">
        <ele>43</ele>
        <time>2013-10-20T14:15:47Z</time>
      </trkpt>
      <trkpt lat="44.84242" lon="-0.32448">
        <ele>42</ele>
        <time>2013-10-20T14:15:55Z</time>
      </trkpt>
      <trkpt lat="44.8424" lon="-0.32447">
        <ele>42</ele>
        <time>2013-10-20T14:16:05Z</time>
      </trkpt>
      <trkpt lat="44.84235" lon="-0.32449">
        <ele>41</ele>
        <time>2013-10-20T14:16:12Z</time>
      </trkpt>
      <trkpt lat="44.84231" lon="-0.3245">
        <ele>41</ele>
        <time>2013-10-20T14:16:18Z</time>
      </trkpt>
      <trkpt lat="44.84231" lon="-0.3245">
        <ele>41</ele>
        <time>2013-10-20T14:16:29Z</time>
      </trkpt>
      <trkpt lat="44.84227" lon="-0.32452">
        <ele>41</ele>
        <time>2013-10-20T14:16:34Z</time>
      </trkpt>
      <trkpt lat="44.84225" lon="-0.32455">
        <ele>41</ele>
        <time>2013-10-20T14:16:42Z</time>
      </trkpt>
      <trkpt lat="44.84224" lon="-0.32457">
        <ele>41</ele>
        <time>2013-10-20T14:16:45Z</time>
      </trkpt>
      <trkpt lat="44.84224" lon="-0.3246">
        <ele>41</ele>
        <time>2013-10-20T14:16:47Z</time>
      </trkpt>
      <trkpt lat="44.84224" lon="-0.32477">
        <ele>41</ele>
        <time>2013-10-20T14:16:55Z</time>
      </trkpt>
      <trkpt lat="44.84224" lon="-0.3249">
        <ele>42</ele>
        <time>2013-10-20T14:17:00Z</time>
      </trkpt>
      <trkpt lat="44.84225" lon="-0.32497">
        <ele>42</ele>
        <time>2013-10-20T14:17:07Z</time>
      </trkpt>
      <trkpt lat="44.84223" lon="-0.32502">
        <ele>43</ele>
        <time>2013-10-20T14:17:13Z</time>
      </trkpt>
      <trkpt lat="44.84223" lon="-0.32503">
        <ele>43</ele>
        <time>2013-10-20T14:17:21Z</time>
      </trkpt>
      <trkpt lat="44.84223" lon="-0.32506">
        <ele>43</ele>
        <time>2013-10-20T14:17:28Z</time>
      </trkpt>
      <trkpt lat="44.84222" lon="-0.3251">
        <ele>43</ele>
        <time>2013-10-20T14:17:34Z</time>
      </trkpt>
      <trkpt lat="44.84222" lon="-0.32511">
        <ele>43</ele>
        <time>2013-10-20T14:17:35Z</time>
      </trkpt>
      <trkpt lat="44.84222" lon="-0.32517">
        <ele>43</ele>
        <time>2013-10-20T14:17:38Z</time>
      </trkpt>
      <trkpt lat="44.84217" lon="-0.32526">
        <ele>43</ele>
        <time>2013-10-20T14:18:49Z</time>
      </trkpt>
      <trkpt lat="44.84218" lon="-0.32518">
        <ele>43</ele>
        <time>2013-10-20T14:18:54Z</time>
      </trkpt>
      <trkpt lat="44.84214" lon="-0.32502">
        <ele>42</ele>
        <time>2013-10-20T14:19:00Z</time>
      </trkpt>
      <trkpt lat="44.8421" lon="-0.32488">
        <ele>41</ele>
        <time>2013-10-20T14:19:07Z</time>
      </trkpt>
      <trkpt lat="44.84209" lon="-0.32487">
        <ele>41</ele>
        <time>2013-10-20T14:19:08Z</time>
      </trkpt>
      <trkpt lat="44.84207" lon="-0.32483">
        <ele>40</ele>
        <time>2013-10-20T14:19:15Z</time>
      </trkpt>
      <trkpt lat="44.84208" lon="-0.32482">
        <ele>40</ele>
        <time>2013-10-20T14:19:22Z</time>
      </trkpt>
      <trkpt lat="44.84202" lon="-0.325">
        <ele>40</ele>
        <time>2013-10-20T14:19:31Z</time>
      </trkpt>
      <trkpt lat="44.84196" lon="-0.32509">
        <ele>40</ele>
        <time>2013-10-20T14:19:35Z</time>
      </trkpt>
      <trkpt lat="44.84181" lon="-0.32532">
        <ele>39</ele>
        <time>2013-10-20T14:19:45Z</time>
      </trkpt>
      <trkpt lat="44.8418" lon="-0.32533">
        <ele>39</ele>
        <time>2013-10-20T14:19:51Z</time>
      </trkpt>
      <trkpt lat="44.84179" lon="-0.32535">
        <ele>39</ele>
        <time>2013-10-20T14:19:59Z</time>
      </trkpt>
      <trkpt lat="44.84176" lon="-0.32538">
        <ele>39</ele>
        <time>2013-10-20T14:20:07Z</time>
      </trkpt>
      <trkpt lat="44.84173" lon="-0.32539">
        <ele>38</ele>
        <time>2013-10-20T14:20:13Z</time>
      </trkpt>
      <trkpt lat="44.84173" lon="-0.32541">
        <ele>38</ele>
        <time>2013-10-20T14:20:20Z</time>
      </trkpt>
      <trkpt lat="44.84172" lon="-0.32542">
        <ele>38</ele>
        <time>2013-10-20T14:20:27Z</time>
      </trkpt>
      <trkpt lat="44.84172" lon="-0.32542">
        <ele>38</ele>
        <time>2013-10-20T14:20:33Z</time>
      </trkpt>
      <trkpt lat="44.84168" lon="-0.32549">
        <ele>39</ele>
        <time>2013-10-20T14:20:38Z</time>
      </trkpt>
      <trkpt lat="44.84162" lon="-0.32564">
        <ele>39</ele>
        <time>2013-10-20T14:20:46Z</time>
      </trkpt>
      <trkpt lat="44.84158" lon="-0.32579">
        <ele>39</ele>
        <time>2013-10-20T14:20:53Z</time>
      </trkpt>
      <trkpt lat="44.84153" lon="-0.32595">
        <ele>39</ele>
        <time>2013-10-20T14:20:59Z</time>
      </trkpt>
      <trkpt lat="44.8415" lon="-0.32615">
        <ele>39</ele>
        <time>2013-10-20T14:21:06Z</time>
      </trkpt>
      <trkpt lat="44.84152" lon="-0.32631">
        <ele>39</ele>
        <time>2013-10-20T14:21:10Z</time>
      </trkpt>
      <trkpt lat="44.84156" lon="-0.32657">
        <ele>40</ele>
        <time>2013-10-20T14:21:18Z</time>
      </trkpt>
      <trkpt lat="44.84156" lon="-0.32661">
        <ele>40</ele>
        <time>2013-10-20T14:21:19Z</time>
      </trkpt>
      <trkpt lat="44.84158" lon="-0.32686">
        <ele>40</ele>
        <time>2013-10-20T14:21:25Z</time>
      </trkpt>
      <trkpt lat="44.84163" lon="-0.32707">
        <ele>40</ele>
        <time>2013-10-20T14:21:31Z</time>
      </trkpt>
      <trkpt lat="44.84169" lon="-0.32736">
        <ele>39</ele>
        <time>2013-10-20T14:21:38Z</time>
      </trkpt>
      <trkpt lat="44.84173" lon="-0.32766">
        <ele>39</ele>
        <time>2013-10-20T14:21:45Z</time>
      </trkpt>
      <trkpt lat="44.84179" lon="-0.328">
        <ele>41</ele>
        <time>2013-10-20T14:21:53Z</time>
      </trkpt>
      <trkpt lat="44.84187" lon="-0.32827">
        <ele>41</ele>
        <time>2013-10-20T14:22:00Z</time>
      </trkpt>
      <trkpt lat="44.84198" lon="-0.3286">
        <ele>42</ele>
        <time>2013-10-20T14:22:08Z</time>
      </trkpt>
      <trkpt lat="44.84201" lon="-0.32868">
        <ele>42</ele>
        <time>2013-10-20T14:22:10Z</time>
      </trkpt>
      <trkpt lat="44.84194" lon="-0.32879">
        <ele>42</ele>
        <time>2013-10-20T14:22:15Z</time>
      </trkpt>
      <trkpt lat="44.84167" lon="-0.32873">
        <ele>41</ele>
        <time>2013-10-20T14:22:23Z</time>
      </trkpt>
      <trkpt lat="44.84131" lon="-0.32864">
        <ele>42</ele>
        <time>2013-10-20T14:22:31Z</time>
      </trkpt>
      <trkpt lat="44.84105" lon="-0.32854">
        <ele>43</ele>
        <time>2013-10-20T14:22:38Z</time>
      </trkpt>
      <trkpt lat="44.84098" lon="-0.32857">
        <ele>44</ele>
        <time>2013-10-20T14:22:40Z</time>
      </trkpt>
      <trkpt lat="44.84096" lon="-0.32861">
        <ele>44</ele>
        <time>2013-10-20T14:22:41Z</time>
      </trkpt>
      <trkpt lat="44.84094" lon="-0.32865">
        <ele>44</ele>
        <time>2013-10-20T14:22:42Z</time>
      </trkpt>
      <trkpt lat="44.84086" lon="-0.32899">
        <ele>46</ele>
        <time>2013-10-20T14:22:49Z</time>
      </trkpt>
      <trkpt lat="44.84082" lon="-0.32932">
        <ele>47</ele>
        <time>2013-10-20T14:22:56Z</time>
      </trkpt>
      <trkpt lat="44.8408" lon="-0.32966">
        <ele>49</ele>
        <time>2013-10-20T14:23:04Z</time>
      </trkpt>
      <trkpt lat="44.8408" lon="-0.32993">
        <ele>49</ele>
        <time>2013-10-20T14:23:10Z</time>
      </trkpt>
      <trkpt lat="44.84088" lon="-0.33026">
        <ele>49</ele>
        <time>2013-10-20T14:23:18Z</time>
      </trkpt>
      <trkpt lat="44.84088" lon="-0.33052">
        <ele>50</ele>
        <time>2013-10-20T14:23:24Z</time>
      </trkpt>
      <trkpt lat="44.8408" lon="-0.3307">
        <ele>51</ele>
        <time>2013-10-20T14:23:30Z</time>
      </trkpt>
      <trkpt lat="44.84071" lon="-0.33085">
        <ele>52</ele>
        <time>2013-10-20T14:23:36Z</time>
      </trkpt>
      <trkpt lat="44.84063" lon="-0.33106">
        <ele>53</ele>
        <time>2013-10-20T14:23:43Z</time>
      </trkpt>
      <trkpt lat="44.84055" lon="-0.33128">
        <ele>53</ele>
        <time>2013-10-20T14:23:50Z</time>
      </trkpt>
      <trkpt lat="44.84045" lon="-0.33151">
        <ele>54</ele>
        <time>2013-10-20T14:23:58Z</time>
      </trkpt>
      <trkpt lat="44.84042" lon="-0.33155">
        <ele>54</ele>
        <time>2013-10-20T14:24:00Z</time>
      </trkpt>
      <trkpt lat="44.8404" lon="-0.33156">
        <ele>54</ele>
        <time>2013-10-20T14:24:01Z</time>
      </trkpt>
      <trkpt lat="44.84037" lon="-0.33156">
        <ele>54</ele>
        <time>2013-10-20T14:24:02Z</time>
      </trkpt>
      <trkpt lat="44.84035" lon="-0.33157">
        <ele>54</ele>
        <time>2013-10-20T14:24:03Z</time>
      </trkpt>
      <trkpt lat="44.84032" lon="-0.33158">
        <ele>54</ele>
        <time>2013-10-20T14:24:04Z</time>
      </trkpt>
      <trkpt lat="44.84029" lon="-0.33159">
        <ele>54</ele>
        <time>2013-10-20T14:24:05Z</time>
      </trkpt>
      <trkpt lat="44.84027" lon="-0.33161">
        <ele>54</ele>
        <time>2013-10-20T14:24:06Z</time>
      </trkpt>
      <trkpt lat="44.84025" lon="-0.33163">
        <ele>54</ele>
        <time>2013-10-20T14:24:07Z</time>
      </trkpt>
      <trkpt lat="44.84017" lon="-0.33178">
        <ele>55</ele>
        <time>2013-10-20T14:24:13Z</time>
      </trkpt>
      <trkpt lat="44.84013" lon="-0.33193">
        <ele>55</ele>
        <time>2013-10-20T14:24:18Z</time>
      </trkpt>
      <trkpt lat="44.84003" lon="-0.33199">
        <ele>55</ele>
        <time>2013-10-20T14:24:23Z</time>
      </trkpt>
      <trkpt lat="44.83986" lon="-0.33203">
        <ele>55</ele>
        <time>2013-10-20T14:24:30Z</time>
      </trkpt>
      <trkpt lat="44.8397" lon="-0.33207">
        <ele>55</ele>
        <time>2013-10-20T14:24:37Z</time>
      </trkpt>
      <trkpt lat="44.83954" lon="-0.33212">
        <ele>55</ele>
        <time>2013-10-20T14:24:44Z</time>
      </trkpt>
      <trkpt lat="44.83951" lon="-0.33219">
        <ele>55</ele>
        <time>2013-10-20T14:24:48Z</time>
      </trkpt>
      <trkpt lat="44.83954" lon="-0.33234">
        <ele>55</ele>
        <time>2013-10-20T14:24:55Z</time>
      </trkpt>
      <trkpt lat="44.83961" lon="-0.33266">
        <ele>56</ele>
        <time>2013-10-20T14:25:04Z</time>
      </trkpt>
      <trkpt lat="44.83964" lon="-0.33294">
        <ele>56</ele>
        <time>2013-10-20T14:25:10Z</time>
      </trkpt>
      <trkpt lat="44.83968" lon="-0.33332">
        <ele>57</ele>
        <time>2013-10-20T14:25:17Z</time>
      </trkpt>
      <trkpt lat="44.83972" lon="-0.33369">
        <ele>58</ele>
        <time>2013-10-20T14:25:24Z</time>
      </trkpt>
      <trkpt lat="44.83964" lon="-0.33385">
        <ele>58</ele>
        <time>2013-10-20T14:25:28Z</time>
      </trkpt>
      <trkpt lat="44.83934" lon="-0.33409">
        <ele>59</ele>
        <time>2013-10-20T14:25:37Z</time>
      </trkpt>
      <trkpt lat="44.83903" lon="-0.33435">
        <ele>59</ele>
        <time>2013-10-20T14:25:46Z</time>
      </trkpt>
      <trkpt lat="44.83874" lon="-0.33459">
        <ele>60</ele>
        <time>2013-10-20T14:25:54Z</time>
      </trkpt>
      <trkpt lat="44.83845" lon="-0.33483">
        <ele>61</ele>
        <time>2013-10-20T14:26:03Z</time>
      </trkpt>
      <trkpt lat="44.83844" lon="-0.33503">
        <ele>62</ele>
        <time>2013-10-20T14:26:08Z</time>
      </trkpt>
      <trkpt lat="44.83854" lon="-0.33537">
        <ele>62</ele>
        <time>2013-10-20T14:26:16Z</time>
      </trkpt>
      <trkpt lat="44.83858" lon="-0.33562">
        <ele>62</ele>
        <time>2013-10-20T14:26:22Z</time>
      </trkpt>
      <trkpt lat="44.83864" lon="-0.33591">
        <ele>62</ele>
        <time>2013-10-20T14:26:29Z</time>
      </trkpt>
      <trkpt lat="44.83874" lon="-0.33628">
        <ele>62</ele>
        <time>2013-10-20T14:26:36Z</time>
      </trkpt>
      <trkpt lat="44.83876" lon="-0.33634">
        <ele>62</ele>
        <time>2013-10-20T14:26:37Z</time>
      </trkpt>
      <trkpt lat="44.83879" lon="-0.3364">
        <ele>62</ele>
        <time>2013-10-20T14:26:38Z</time>
      </trkpt>
      <trkpt lat="44.83905" lon="-0.33681">
        <ele>61</ele>
        <time>2013-10-20T14:26:45Z</time>
      </trkpt>
      <trkpt lat="44.83936" lon="-0.33727">
        <ele>61</ele>
        <time>2013-10-20T14:26:54Z</time>
      </trkpt>
      <trkpt lat="44.83939" lon="-0.33732">
        <ele>61</ele>
        <time>2013-10-20T14:26:55Z</time>
      </trkpt>
      <trkpt lat="44.83942" lon="-0.33736">
        <ele>61</ele>
        <time>2013-10-20T14:26:56Z</time>
      </trkpt>
      <trkpt lat="44.83949" lon="-0.33745">
        <ele>61</ele>
        <time>2013-10-20T14:26:58Z</time>
      </trkpt>
      <trkpt lat="44.83952" lon="-0.33749">
        <ele>61</ele>
        <time>2013-10-20T14:26:59Z</time>
      </trkpt>
      <trkpt lat="44.83975" lon="-0.33779">
        <ele>61</ele>
        <time>2013-10-20T14:27:07Z</time>
      </trkpt>
      <trkpt lat="44.83981" lon="-0.33789">
        <ele>61</ele>
        <time>2013-10-20T14:27:12Z</time>
      </trkpt>
      <trkpt lat="44.83981" lon="-0.33792">
        <ele>61</ele>
        <time>2013-10-20T14:27:13Z</time>
      </trkpt>
      <trkpt lat="44.83981" lon="-0.33794">
        <ele>61</ele>
        <time>2013-10-20T14:27:14Z</time>
      </trkpt>
      <trkpt lat="44.8398" lon="-0.33795">
        <ele>61</ele>
        <time>2013-10-20T14:27:15Z</time>
      </trkpt>
      <trkpt lat="44.83978" lon="-0.33797">
        <ele>61</ele>
        <time>2013-10-20T14:27:16Z</time>
      </trkpt>
      <trkpt lat="44.83976" lon="-0.33799">
        <ele>61</ele>
        <time>2013-10-20T14:27:17Z</time>
      </trkpt>
      <trkpt lat="44.83974" lon="-0.338">
        <ele>61</ele>
        <time>2013-10-20T14:27:18Z</time>
      </trkpt>
      <trkpt lat="44.83957" lon="-0.33807">
        <ele>62</ele>
        <time>2013-10-20T14:27:24Z</time>
      </trkpt>
      <trkpt lat="44.83933" lon="-0.33818">
        <ele>64</ele>
        <time>2013-10-20T14:27:31Z</time>
      </trkpt>
      <trkpt lat="44.83912" lon="-0.33822">
        <ele>65</ele>
        <time>2013-10-20T14:27:38Z</time>
      </trkpt>
      <trkpt lat="44.83896" lon="-0.33825">
        <ele>66</ele>
        <time>2013-10-20T14:27:43Z</time>
      </trkpt>
      <trkpt lat="44.83876" lon="-0.33829">
        <ele>67</ele>
        <time>2013-10-20T14:27:48Z</time>
      </trkpt>
      <trkpt lat="44.83849" lon="-0.33832">
        <ele>68</ele>
        <time>2013-10-20T14:27:54Z</time>
      </trkpt>
      <trkpt lat="44.8384" lon="-0.33834">
        <ele>68</ele>
        <time>2013-10-20T14:27:56Z</time>
      </trkpt>
      <trkpt lat="44.83819" lon="-0.33838">
        <ele>69</ele>
        <time>2013-10-20T14:28:02Z</time>
      </trkpt>
      <trkpt lat="44.83816" lon="-0.33841">
        <ele>69</ele>
        <time>2013-10-20T14:28:03Z</time>
      </trkpt>
      <trkpt lat="44.83815" lon="-0.33846">
        <ele>69</ele>
        <time>2013-10-20T14:28:04Z</time>
      </trkpt>
      <trkpt lat="44.83816" lon="-0.33851">
        <ele>69</ele>
        <time>2013-10-20T14:28:05Z</time>
      </trkpt>
      <trkpt lat="44.83817" lon="-0.33856">
        <ele>69</ele>
        <time>2013-10-20T14:28:06Z</time>
      </trkpt>
      <trkpt lat="44.83817" lon="-0.33862">
        <ele>69</ele>
        <time>2013-10-20T14:28:07Z</time>
      </trkpt>
      <trkpt lat="44.83828" lon="-0.339">
        <ele>70</ele>
        <time>2013-10-20T14:28:15Z</time>
      </trkpt>
      <trkpt lat="44.83832" lon="-0.33926">
        <ele>70</ele>
        <time>2013-10-20T14:28:21Z</time>
      </trkpt>
      <trkpt lat="44.83833" lon="-0.33933">
        <ele>70</ele>
        <time>2013-10-20T14:28:26Z</time>
      </trkpt>
      <trkpt lat="44.83834" lon="-0.33934">
        <ele>70</ele>
        <time>2013-10-20T14:28:34Z</time>
      </trkpt>
      <trkpt lat="44.83834" lon="-0.33933">
        <ele>70</ele>
        <time>2013-10-20T14:28:43Z</time>
      </trkpt>
      <trkpt lat="44.83834" lon="-0.33933">
        <ele>70</ele>
        <time>2013-10-20T14:28:50Z</time>
      </trkpt>
      <trkpt lat="44.83834" lon="-0.33934">
        <ele>70</ele>
        <time>2013-10-20T14:29:07Z</time>
      </trkpt>
      <trkpt lat="44.83834" lon="-0.33934">
        <ele>70</ele>
        <time>2013-10-20T14:29:19Z</time>
      </trkpt>
      <trkpt lat="44.83834" lon="-0.33934">
        <ele>70</ele>
        <time>2013-10-20T14:29:28Z</time>
      </trkpt>
      <trkpt lat="44.83834" lon="-0.33933">
        <ele>70</ele>
        <time>2013-10-20T14:29:37Z</time>
      </trkpt>
      <trkpt lat="44.83834" lon="-0.33933">
        <ele>70</ele>
        <time>2013-10-20T14:29:50Z</time>
      </trkpt>
      <trkpt lat="44.83834" lon="-0.33933">
        <ele>70</ele>
        <time>2013-10-20T14:29:57Z</time>
      </trkpt>
      <trkpt lat="44.83834" lon="-0.33933">
        <ele>70</ele>
        <time>2013-10-20T14:30:10Z</time>
      </trkpt>
      <trkpt lat="44.83834" lon="-0.33933">
        <ele>70</ele>
        <time>2013-10-20T14:30:19Z</time>
      </trkpt>
      <trkpt lat="44.83834" lon="-0.33933">
        <ele>70</ele>
        <time>2013-10-20T14:30:36Z</time>
      </trkpt>
      <trkpt lat="44.83834" lon="-0.33933">
        <ele>70</ele>
        <time>2013-10-20T14:30:48Z</time>
      </trkpt>
      <trkpt lat="44.83834" lon="-0.33934">
        <ele>70</ele>
        <time>2013-10-20T14:30:51Z</time>
      </trkpt>
      <trkpt lat="44.83832" lon="-0.33931">
        <ele>70</ele>
        <time>2013-10-20T14:30:58Z</time>
      </trkpt>
      <trkpt lat="44.83831" lon="-0.33929">
        <ele>70</ele>
        <time>2013-10-20T14:31:01Z</time>
      </trkpt>
      <trkpt lat="44.83826" lon="-0.33903">
        <ele>70</ele>
        <time>2013-10-20T14:31:09Z</time>
      </trkpt>
      <trkpt lat="44.83815" lon="-0.3386">
        <ele>69</ele>
        <time>2013-10-20T14:31:17Z</time>
      </trkpt>
      <trkpt lat="44.83813" lon="-0.33844">
        <ele>69</ele>
        <time>2013-10-20T14:31:22Z</time>
      </trkpt>
      <trkpt lat="44.83813" lon="-0.33843">
        <ele>69</ele>
        <time>2013-10-20T14:31:28Z</time>
      </trkpt>
      <trkpt lat="44.83813" lon="-0.33843">
        <ele>69</ele>
        <time>2013-10-20T14:31:45Z</time>
      </trkpt>
      <trkpt lat="44.83813" lon="-0.33843">
        <ele>69</ele>
        <time>2013-10-20T14:32:04Z</time>
      </trkpt>
      <trkpt lat="44.83813" lon="-0.33844">
        <ele>69</ele>
        <time>2013-10-20T14:32:10Z</time>
      </trkpt>
      <trkpt lat="44.83813" lon="-0.33845">
        <ele>69</ele>
        <time>2013-10-20T14:32:20Z</time>
      </trkpt>
      <trkpt lat="44.83814" lon="-0.33846">
        <ele>69</ele>
        <time>2013-10-20T14:32:28Z</time>
      </trkpt>
      <trkpt lat="44.83818" lon="-0.3386">
        <ele>69</ele>
        <time>2013-10-20T14:32:34Z</time>
      </trkpt>
      <trkpt lat="44.83822" lon="-0.33879">
        <ele>70</ele>
        <time>2013-10-20T14:32:39Z</time>
      </trkpt>
      <trkpt lat="44.8383" lon="-0.33912">
        <ele>70</ele>
        <time>2013-10-20T14:32:46Z</time>
      </trkpt>
      <trkpt lat="44.83832" lon="-0.33928">
        <ele>70</ele>
        <time>2013-10-20T14:32:52Z</time>
      </trkpt>
      <trkpt lat="44.83832" lon="-0.3393">
        <ele>70</ele>
        <time>2013-10-20T14:32:57Z</time>
      </trkpt>
      <trkpt lat="44.83832" lon="-0.33928">
        <ele>70</ele>
        <time>2013-10-20T14:33:10Z</time>
      </trkpt>
      <trkpt lat="44.83832" lon="-0.33929">
        <ele>70</ele>
        <time>2013-10-20T14:33:18Z</time>
      </trkpt>
      <trkpt lat="44.83832" lon="-0.33928">
        <ele>70</ele>
        <time>2013-10-20T14:33:33Z</time>
      </trkpt>
      <trkpt lat="44.83832" lon="-0.33928">
        <ele>70</ele>
        <time>2013-10-20T14:33:47Z</time>
      </trkpt>
      <trkpt lat="44.83832" lon="-0.3393">
        <ele>70</ele>
        <time>2013-10-20T14:33:49Z</time>
      </trkpt>
      <trkpt lat="44.83839" lon="-0.33948">
        <ele>70</ele>
        <time>2013-10-20T14:33:55Z</time>
      </trkpt>
      <trkpt lat="44.83847" lon="-0.33978">
        <ele>70</ele>
        <time>2013-10-20T14:34:01Z</time>
      </trkpt>
      <trkpt lat="44.83853" lon="-0.34005">
        <ele>69</ele>
        <time>2013-10-20T14:34:06Z</time>
      </trkpt>
      <trkpt lat="44.83857" lon="-0.34026">
        <ele>69</ele>
        <time>2013-10-20T14:34:10Z</time>
      </trkpt>
      <trkpt lat="44.83862" lon="-0.34041">
        <ele>69</ele>
        <time>2013-10-20T14:34:13Z</time>
      </trkpt>
      <trkpt lat="44.83864" lon="-0.34053">
        <ele>69</ele>
        <time>2013-10-20T14:34:15Z</time>
      </trkpt>
      <trkpt lat="44.83869" lon="-0.3407">
        <ele>69</ele>
        <time>2013-10-20T14:34:18Z</time>
      </trkpt>
      <trkpt lat="44.83873" lon="-0.34092">
        <ele>69</ele>
        <time>2013-10-20T14:34:22Z</time>
      </trkpt>
      <trkpt lat="44.83879" lon="-0.34115">
        <ele>68</ele>
        <time>2013-10-20T14:34:26Z</time>
      </trkpt>
      <trkpt lat="44.83883" lon="-0.3413">
        <ele>68</ele>
        <time>2013-10-20T14:34:29Z</time>
      </trkpt>
      <trkpt lat="44.83888" lon="-0.34162">
        <ele>68</ele>
        <time>2013-10-20T14:34:35Z</time>
      </trkpt>
      <trkpt lat="44.83873" lon="-0.34175">
        <ele>68</ele>
        <time>2013-10-20T14:34:40Z</time>
      </trkpt>
      <trkpt lat="44.83852" lon="-0.34183">
        <ele>69</ele>
        <time>2013-10-20T14:34:46Z</time>
      </trkpt>
      <trkpt lat="44.83841" lon="-0.34187">
        <ele>69</ele>
        <time>2013-10-20T14:34:50Z</time>
      </trkpt>
      <trkpt lat="44.8384" lon="-0.34202">
        <ele>69</ele>
        <time>2013-10-20T14:34:55Z</time>
      </trkpt>
      <trkpt lat="44.83845" lon="-0.34215">
        <ele>68</ele>
        <time>2013-10-20T14:34:58Z</time>
      </trkpt>
      <trkpt lat="44.83857" lon="-0.3425">
        <ele>68</ele>
        <time>2013-10-20T14:35:05Z</time>
      </trkpt>
      <trkpt lat="44.83875" lon="-0.34301">
        <ele>67</ele>
        <time>2013-10-20T14:35:14Z</time>
      </trkpt>
      <trkpt lat="44.83892" lon="-0.34353">
        <ele>67</ele>
        <time>2013-10-20T14:35:22Z</time>
      </trkpt>
      <trkpt lat="44.83897" lon="-0.34366">
        <ele>66</ele>
        <time>2013-10-20T14:35:24Z</time>
      </trkpt>
      <trkpt lat="44.83908" lon="-0.34396">
        <ele>66</ele>
        <time>2013-10-20T14:35:30Z</time>
      </trkpt>
      <trkpt lat="44.83909" lon="-0.344">
        <ele>66</ele>
        <time>2013-10-20T14:35:31Z</time>
      </trkpt>
      <trkpt lat="44.83908" lon="-0.34404">
        <ele>66</ele>
        <time>2013-10-20T14:35:32Z</time>
      </trkpt>
      <trkpt lat="44.83907" lon="-0.34408">
        <ele>66</ele>
        <time>2013-10-20T14:35:33Z</time>
      </trkpt>
      <trkpt lat="44.83906" lon="-0.34413">
        <ele>66</ele>
        <time>2013-10-20T14:35:34Z</time>
      </trkpt>
      <trkpt lat="44.83905" lon="-0.34418">
        <ele>66</ele>
        <time>2013-10-20T14:35:35Z</time>
      </trkpt>
      <trkpt lat="44.83902" lon="-0.34439">
        <ele>67</ele>
        <time>2013-10-20T14:35:39Z</time>
      </trkpt>
      <trkpt lat="44.83902" lon="-0.34452">
        <ele>67</ele>
        <time>2013-10-20T14:35:41Z</time>
      </trkpt>
      <trkpt lat="44.83901" lon="-0.34459">
        <ele>67</ele>
        <time>2013-10-20T14:35:42Z</time>
      </trkpt>
      <trkpt lat="44.839" lon="-0.34499">
        <ele>67</ele>
        <time>2013-10-20T14:35:49Z</time>
      </trkpt>
      <trkpt lat="44.839" lon="-0.34525">
        <ele>67</ele>
        <time>2013-10-20T14:35:55Z</time>
      </trkpt>
      <trkpt lat="44.83902" lon="-0.34528">
        <ele>67</ele>
        <time>2013-10-20T14:35:56Z</time>
      </trkpt>
      <trkpt lat="44.83912" lon="-0.34526">
        <ele>67</ele>
        <time>2013-10-20T14:36:00Z</time>
      </trkpt>
      <trkpt lat="44.83921" lon="-0.3452">
        <ele>67</ele>
        <time>2013-10-20T14:36:03Z</time>
      </trkpt>
      <trkpt lat="44.83938" lon="-0.34536">
        <ele>67</ele>
        <time>2013-10-20T14:36:09Z</time>
      </trkpt>
      <trkpt lat="44.83951" lon="-0.34554">
        <ele>67</ele>
        <time>2013-10-20T14:36:14Z</time>
      </trkpt>
      <trkpt lat="44.83955" lon="-0.34563">
        <ele>67</ele>
        <time>2013-10-20T14:36:16Z</time>
      </trkpt>
      <trkpt lat="44.83972" lon="-0.34592">
        <ele>67</ele>
        <time>2013-10-20T14:36:23Z</time>
      </trkpt>
      <trkpt lat="44.83992" lon="-0.34624">
        <ele>67</ele>
        <time>2013-10-20T14:36:30Z</time>
      </trkpt>
      <trkpt lat="44.84009" lon="-0.34655">
        <ele>67</ele>
        <time>2013-10-20T14:36:37Z</time>
      </trkpt>
      <trkpt lat="44.84032" lon="-0.34695">
        <ele>65</ele>
        <time>2013-10-20T14:36:46Z</time>
      </trkpt>
      <trkpt lat="44.84038" lon="-0.34705">
        <ele>64</ele>
        <time>2013-10-20T14:36:48Z</time>
      </trkpt>
      <trkpt lat="44.84053" lon="-0.34733">
        <ele>63</ele>
        <time>2013-10-20T14:36:53Z</time>
      </trkpt>
      <trkpt lat="44.84063" lon="-0.34757">
        <ele>62</ele>
        <time>2013-10-20T14:36:59Z</time>
      </trkpt>
      <trkpt lat="44.84065" lon="-0.34778">
        <ele>61</ele>
        <time>2013-10-20T14:37:04Z</time>
      </trkpt>
      <trkpt lat="44.84077" lon="-0.34802">
        <ele>60</ele>
        <time>2013-10-20T14:37:10Z</time>
      </trkpt>
      <trkpt lat="44.84089" lon="-0.34824">
        <ele>60</ele>
        <time>2013-10-20T14:37:16Z</time>
      </trkpt>
      <trkpt lat="44.84102" lon="-0.3485">
        <ele>59</ele>
        <time>2013-10-20T14:37:23Z</time>
      </trkpt>
      <trkpt lat="44.84116" lon="-0.34874">
        <ele>59</ele>
        <time>2013-10-20T14:37:29Z</time>
      </trkpt>
      <trkpt lat="44.84138" lon="-0.34914">
        <ele>58</ele>
        <time>2013-10-20T14:37:37Z</time>
      </trkpt>
      <trkpt lat="44.84146" lon="-0.34942">
        <ele>58</ele>
        <time>2013-10-20T14:37:43Z</time>
      </trkpt>
      <trkpt lat="44.84149" lon="-0.34949">
        <ele>57</ele>
        <time>2013-10-20T14:37:46Z</time>
      </trkpt>
      <trkpt lat="44.84142" lon="-0.34961">
        <ele>57</ele>
        <time>2013-10-20T14:37:50Z</time>
      </trkpt>
      <trkpt lat="44.84106" lon="-0.34992">
        <ele>54</ele>
        <time>2013-10-20T14:37:59Z</time>
      </trkpt>
      <trkpt lat="44.84069" lon="-0.35026">
        <ele>52</ele>
        <time>2013-10-20T14:38:07Z</time>
      </trkpt>
      <trkpt lat="44.84053" lon="-0.35046">
        <ele>53</ele>
        <time>2013-10-20T14:38:11Z</time>
      </trkpt>
      <trkpt lat="44.84025" lon="-0.35098">
        <ele>54</ele>
        <time>2013-10-20T14:38:19Z</time>
      </trkpt>
      <trkpt lat="44.84004" lon="-0.35134">
        <ele>53</ele>
        <time>2013-10-20T14:38:25Z</time>
      </trkpt>
      <trkpt lat="44.83972" lon="-0.35181">
        <ele>52</ele>
        <time>2013-10-20T14:38:33Z</time>
      </trkpt>
      <trkpt lat="44.83929" lon="-0.35243">
        <ele>52</ele>
        <time>2013-10-20T14:38:43Z</time>
      </trkpt>
      <trkpt lat="44.83896" lon="-0.3529">
        <ele>54</ele>
        <time>2013-10-20T14:38:51Z</time>
      </trkpt>
      <trkpt lat="44.83869" lon="-0.35329">
        <ele>56</ele>
        <time>2013-10-20T14:38:59Z</time>
      </trkpt>
      <trkpt lat="44.83842" lon="-0.35366">
        <ele>61</ele>
        <time>2013-10-20T14:39:08Z</time>
      </trkpt>
      <trkpt lat="44.83823" lon="-0.35389">
        <ele>63</ele>
        <time>2013-10-20T14:39:15Z</time>
      </trkpt>
      <trkpt lat="44.83803" lon="-0.3541">
        <ele>64</ele>
        <time>2013-10-20T14:39:22Z</time>
      </trkpt>
      <trkpt lat="44.83788" lon="-0.35429">
        <ele>65</ele>
        <time>2013-10-20T14:39:29Z</time>
      </trkpt>
      <trkpt lat="44.83782" lon="-0.35447">
        <ele>65</ele>
        <time>2013-10-20T14:39:35Z</time>
      </trkpt>
      <trkpt lat="44.83772" lon="-0.3546">
        <ele>65</ele>
        <time>2013-10-20T14:39:41Z</time>
      </trkpt>
      <trkpt lat="44.83755" lon="-0.35475">
        <ele>65</ele>
        <time>2013-10-20T14:39:49Z</time>
      </trkpt>
      <trkpt lat="44.83751" lon="-0.35481">
        <ele>65</ele>
        <time>2013-10-20T14:39:52Z</time>
      </trkpt>
      <trkpt lat="44.83751" lon="-0.35483">
        <ele>65</ele>
        <time>2013-10-20T14:39:53Z</time>
      </trkpt>
      <trkpt lat="44.83752" lon="-0.35487">
        <ele>65</ele>
        <time>2013-10-20T14:39:59Z</time>
      </trkpt>
      <trkpt lat="44.83751" lon="-0.35488">
        <ele>65</ele>
        <time>2013-10-20T14:40:10Z</time>
      </trkpt>
      <trkpt lat="44.83755" lon="-0.35494">
        <ele>64</ele>
        <time>2013-10-20T14:40:19Z</time>
      </trkpt>
      <trkpt lat="44.8376" lon="-0.35499">
        <ele>64</ele>
        <time>2013-10-20T14:40:22Z</time>
      </trkpt>
      <trkpt lat="44.83766" lon="-0.35507">
        <ele>63</ele>
        <time>2013-10-20T14:40:30Z</time>
      </trkpt>
      <trkpt lat="44.83766" lon="-0.35507">
        <ele>63</ele>
        <time>2013-10-20T14:40:37Z</time>
      </trkpt>
      <trkpt lat="44.8377" lon="-0.35515">
        <ele>63</ele>
        <time>2013-10-20T14:40:42Z</time>
      </trkpt>
      <trkpt lat="44.8378" lon="-0.35532">
        <ele>61</ele>
        <time>2013-10-20T14:40:48Z</time>
      </trkpt>
      <trkpt lat="44.83795" lon="-0.35556">
        <ele>59</ele>
        <time>2013-10-20T14:40:53Z</time>
      </trkpt>
      <trkpt lat="44.83825" lon="-0.35607">
        <ele>55</ele>
        <time>2013-10-20T14:41:01Z</time>
      </trkpt>
      <trkpt lat="44.83843" lon="-0.35646">
        <ele>54</ele>
        <time>2013-10-20T14:41:07Z</time>
      </trkpt>
      <trkpt lat="44.83845" lon="-0.35653">
        <ele>53</ele>
        <time>2013-10-20T14:41:08Z</time>
      </trkpt>
      <trkpt lat="44.83847" lon="-0.3566">
        <ele>53</ele>
        <time>2013-10-20T14:41:09Z</time>
      </trkpt>
      <trkpt lat="44.83851" lon="-0.35679">
        <ele>53</ele>
        <time>2013-10-20T14:41:12Z</time>
      </trkpt>
      <trkpt lat="44.83853" lon="-0.35684">
        <ele>53</ele>
        <time>2013-10-20T14:41:13Z</time>
      </trkpt>
      <trkpt lat="44.83857" lon="-0.35687">
        <ele>53</ele>
        <time>2013-10-20T14:41:14Z</time>
      </trkpt>
      <trkpt lat="44.83861" lon="-0.35689">
        <ele>52</ele>
        <time>2013-10-20T14:41:15Z</time>
      </trkpt>
      <trkpt lat="44.83865" lon="-0.35688">
        <ele>52</ele>
        <time>2013-10-20T14:41:16Z</time>
      </trkpt>
      <trkpt lat="44.8387" lon="-0.35686">
        <ele>52</ele>
        <time>2013-10-20T14:41:17Z</time>
      </trkpt>
      <trkpt lat="44.83874" lon="-0.35684">
        <ele>52</ele>
        <time>2013-10-20T14:41:18Z</time>
      </trkpt>
      <trkpt lat="44.83877" lon="-0.35681">
        <ele>52</ele>
        <time>2013-10-20T14:41:19Z</time>
      </trkpt>
      <trkpt lat="44.83881" lon="-0.3568">
        <ele>52</ele>
        <time>2013-10-20T14:41:20Z</time>
      </trkpt>
      <trkpt lat="44.83885" lon="-0.35682">
        <ele>52</ele>
        <time>2013-10-20T14:41:21Z</time>
      </trkpt>
      <trkpt lat="44.83888" lon="-0.35685">
        <ele>52</ele>
        <time>2013-10-20T14:41:22Z</time>
      </trkpt>
      <trkpt lat="44.8389" lon="-0.3569">
        <ele>52</ele>
        <time>2013-10-20T14:41:23Z</time>
      </trkpt>
      <trkpt lat="44.83891" lon="-0.35696">
        <ele>52</ele>
        <time>2013-10-20T14:41:24Z</time>
      </trkpt>
      <trkpt lat="44.83891" lon="-0.35702">
        <ele>52</ele>
        <time>2013-10-20T14:41:25Z</time>
      </trkpt>
      <trkpt lat="44.8389" lon="-0.35708">
        <ele>52</ele>
        <time>2013-10-20T14:41:26Z</time>
      </trkpt>
      <trkpt lat="44.8389" lon="-0.35715">
        <ele>52</ele>
        <time>2013-10-20T14:41:27Z</time>
      </trkpt>
      <trkpt lat="44.83887" lon="-0.35752">
        <ele>51</ele>
        <time>2013-10-20T14:41:33Z</time>
      </trkpt>
      <trkpt lat="44.83887" lon="-0.35776">
        <ele>50</ele>
        <time>2013-10-20T14:41:37Z</time>
      </trkpt>
      <trkpt lat="44.83887" lon="-0.35782">
        <ele>50</ele>
        <time>2013-10-20T14:41:38Z</time>
      </trkpt>
      <trkpt lat="44.83889" lon="-0.35808">
        <ele>50</ele>
        <time>2013-10-20T14:41:43Z</time>
      </trkpt>
      <trkpt lat="44.83906" lon="-0.35827">
        <ele>48</ele>
        <time>2013-10-20T14:41:49Z</time>
      </trkpt>
      <trkpt lat="44.83932" lon="-0.35842">
        <ele>47</ele>
        <time>2013-10-20T14:41:56Z</time>
      </trkpt>
      <trkpt lat="44.83937" lon="-0.35848">
        <ele>47</ele>
        <time>2013-10-20T14:41:58Z</time>
      </trkpt>
      <trkpt lat="44.83935" lon="-0.35873">
        <ele>46</ele>
        <time>2013-10-20T14:42:03Z</time>
      </trkpt>
      <trkpt lat="44.83934" lon="-0.35879">
        <ele>46</ele>
        <time>2013-10-20T14:42:04Z</time>
      </trkpt>
      <trkpt lat="44.83932" lon="-0.35907">
        <ele>44</ele>
        <time>2013-10-20T14:42:08Z</time>
      </trkpt>
      <trkpt lat="44.83927" lon="-0.35985">
        <ele>40</ele>
        <time>2013-10-20T14:42:17Z</time>
      </trkpt>
      <trkpt lat="44.83923" lon="-0.3602">
        <ele>37</ele>
        <time>2013-10-20T14:42:22Z</time>
      </trkpt>
      <trkpt lat="44.83922" lon="-0.36024">
        <ele>37</ele>
        <time>2013-10-20T14:42:23Z</time>
      </trkpt>
      <trkpt lat="44.83905" lon="-0.36035">
        <ele>36</ele>
        <time>2013-10-20T14:42:28Z</time>
      </trkpt>
      <trkpt lat="44.83888" lon="-0.36039">
        <ele>36</ele>
        <time>2013-10-20T14:42:32Z</time>
      </trkpt>
      <trkpt lat="44.83863" lon="-0.36045">
        <ele>37</ele>
        <time>2013-10-20T14:42:38Z</time>
      </trkpt>
      <trkpt lat="44.8384" lon="-0.36055">
        <ele>37</ele>
        <time>2013-10-20T14:42:44Z</time>
      </trkpt>
      <trkpt lat="44.83837" lon="-0.36072">
        <ele>36</ele>
        <time>2013-10-20T14:42:48Z</time>
      </trkpt>
      <trkpt lat="44.83841" lon="-0.36079">
        <ele>35</ele>
        <time>2013-10-20T14:42:51Z</time>
      </trkpt>
      <trkpt lat="44.8384" lon="-0.36085">
        <ele>35</ele>
        <time>2013-10-20T14:42:55Z</time>
      </trkpt>
      <trkpt lat="44.83828" lon="-0.36087">
        <ele>35</ele>
        <time>2013-10-20T14:43:02Z</time>
      </trkpt>
      <trkpt lat="44.83823" lon="-0.36088">
        <ele>35</ele>
        <time>2013-10-20T14:43:06Z</time>
      </trkpt>
      <trkpt lat="44.83811" lon="-0.36092">
        <ele>35</ele>
        <time>2013-10-20T14:43:13Z</time>
      </trkpt>
      <trkpt lat="44.83807" lon="-0.36094">
        <ele>35</ele>
        <time>2013-10-20T14:43:15Z</time>
      </trkpt>
      <trkpt lat="44.83795" lon="-0.36099">
        <ele>35</ele>
        <time>2013-10-20T14:43:22Z</time>
      </trkpt>
      <trkpt lat="44.83772" lon="-0.36106">
        <ele>34</ele>
        <time>2013-10-20T14:43:27Z</time>
      </trkpt>
      <trkpt lat="44.83758" lon="-0.3611">
        <ele>34</ele>
        <time>2013-10-20T14:43:30Z</time>
      </trkpt>
      <trkpt lat="44.83724" lon="-0.36115">
        <ele>34</ele>
        <time>2013-10-20T14:43:36Z</time>
      </trkpt>
      <trkpt lat="44.83704" lon="-0.36115">
        <ele>34</ele>
        <time>2013-10-20T14:43:40Z</time>
      </trkpt>
      <trkpt lat="44.83683" lon="-0.36108">
        <ele>35</ele>
        <time>2013-10-20T14:43:44Z</time>
      </trkpt>
      <trkpt lat="44.83668" lon="-0.36101">
        <ele>35</ele>
        <time>2013-10-20T14:43:47Z</time>
      </trkpt>
      <trkpt lat="44.83657" lon="-0.36093">
        <ele>36</ele>
        <time>2013-10-20T14:43:49Z</time>
      </trkpt>
      <trkpt lat="44.83638" lon="-0.36088">
        <ele>35</ele>
        <time>2013-10-20T14:43:53Z</time>
      </trkpt>
      <trkpt lat="44.83633" lon="-0.36087">
        <ele>35</ele>
        <time>2013-10-20T14:43:54Z</time>
      </trkpt>
      <trkpt lat="44.83624" lon="-0.36083">
        <ele>35</ele>
        <time>2013-10-20T14:43:56Z</time>
      </trkpt>
      <trkpt lat="44.83606" lon="-0.36081">
        <ele>34</ele>
        <time>2013-10-20T14:44:00Z</time>
      </trkpt>
      <trkpt lat="44.83577" lon="-0.36079">
        <ele>32</ele>
        <time>2013-10-20T14:44:06Z</time>
      </trkpt>
      <trkpt lat="44.83536" lon="-0.36074">
        <ele>30</ele>
        <time>2013-10-20T14:44:13Z</time>
      </trkpt>
      <trkpt lat="44.8351" lon="-0.36064">
        <ele>30</ele>
        <time>2013-10-20T14:44:17Z</time>
      </trkpt>
      <trkpt lat="44.83468" lon="-0.36049">
        <ele>30</ele>
        <time>2013-10-20T14:44:24Z</time>
      </trkpt>
      <trkpt lat="44.83444" lon="-0.3604">
        <ele>30</ele>
        <time>2013-10-20T14:44:29Z</time>
      </trkpt>
      <trkpt lat="44.83422" lon="-0.36025">
        <ele>29</ele>
        <time>2013-10-20T14:44:36Z</time>
      </trkpt>
      <trkpt lat="44.83412" lon="-0.36005">
        <ele>30</ele>
        <time>2013-10-20T14:44:40Z</time>
      </trkpt>
      <trkpt lat="44.83396" lon="-0.35989">
        <ele>30</ele>
        <time>2013-10-20T14:44:45Z</time>
      </trkpt>
      <trkpt lat="44.83392" lon="-0.35986">
        <ele>30</ele>
        <time>2013-10-20T14:44:50Z</time>
      </trkpt>
      <trkpt lat="44.83392" lon="-0.35986">
        <ele>30</ele>
        <time>2013-10-20T14:45:13Z</time>
      </trkpt>
      <trkpt lat="44.83392" lon="-0.35986">
        <ele>30</ele>
        <time>2013-10-20T14:45:25Z</time>
      </trkpt>
      <trkpt lat="44.83392" lon="-0.35986">
        <ele>30</ele>
        <time>2013-10-20T14:45:33Z</time>
      </trkpt>
      <trkpt lat="44.83391" lon="-0.35985">
        <ele>30</ele>
        <time>2013-10-20T14:45:48Z</time>
      </trkpt>
      <trkpt lat="44.83391" lon="-0.35984">
        <ele>30</ele>
        <time>2013-10-20T14:46:04Z</time>
      </trkpt>
      <trkpt lat="44.83391" lon="-0.35985">
        <ele>30</ele>
        <time>2013-10-20T14:46:14Z</time>
      </trkpt>
      <trkpt lat="44.83391" lon="-0.35985">
        <ele>30</ele>
        <time>2013-10-20T14:46:25Z</time>
      </trkpt>
      <trkpt lat="44.83391" lon="-0.35985">
        <ele>30</ele>
        <time>2013-10-20T14:46:42Z</time>
      </trkpt>
      <trkpt lat="44.83391" lon="-0.35985">
        <ele>30</ele>
        <time>2013-10-20T14:46:50Z</time>
      </trkpt>
      <trkpt lat="44.83391" lon="-0.35985">
        <ele>30</ele>
        <time>2013-10-20T14:47:02Z</time>
      </trkpt>
      <trkpt lat="44.83391" lon="-0.35986">
        <ele>30</ele>
        <time>2013-10-20T14:47:16Z</time>
      </trkpt>
      <trkpt lat="44.83391" lon="-0.35986">
        <ele>30</ele>
        <time>2013-10-20T14:47:26Z</time>
      </trkpt>
      <trkpt lat="44.83389" lon="-0.35987">
        <ele>30</ele>
        <time>2013-10-20T14:47:32Z</time>
      </trkpt>
      <trkpt lat="44.83389" lon="-0.35987">
        <ele>29</ele>
        <time>2013-10-20T14:47:39Z</time>
      </trkpt>
      <trkpt lat="44.83389" lon="-0.35987">
        <ele>29</ele>
        <time>2013-10-20T14:47:51Z</time>
      </trkpt>
      <trkpt lat="44.83389" lon="-0.35987">
        <ele>29</ele>
        <time>2013-10-20T14:48:03Z</time>
      </trkpt>
      <trkpt lat="44.83389" lon="-0.35987">
        <ele>29</ele>
        <time>2013-10-20T14:48:17Z</time>
      </trkpt>
      <trkpt lat="44.83388" lon="-0.35987">
        <ele>29</ele>
        <time>2013-10-20T14:48:26Z</time>
      </trkpt>
      <trkpt lat="44.83388" lon="-0.35987">
        <ele>29</ele>
        <time>2013-10-20T14:48:33Z</time>
      </trkpt>
      <trkpt lat="44.83388" lon="-0.35988">
        <ele>29</ele>
        <time>2013-10-20T14:48:44Z</time>
      </trkpt>
      <trkpt lat="44.83388" lon="-0.35988">
        <ele>29</ele>
        <time>2013-10-20T14:48:54Z</time>
      </trkpt>
      <trkpt lat="44.83387" lon="-0.35988">
        <ele>29</ele>
        <time>2013-10-20T14:49:00Z</time>
      </trkpt>
      <trkpt lat="44.83386" lon="-0.35988">
        <ele>29</ele>
        <time>2013-10-20T14:49:14Z</time>
      </trkpt>
      <trkpt lat="44.83386" lon="-0.35989">
        <ele>29</ele>
        <time>2013-10-20T14:49:24Z</time>
      </trkpt>
      <trkpt lat="44.83383" lon="-0.36">
        <ele>28</ele>
        <time>2013-10-20T14:49:29Z</time>
      </trkpt>
      <trkpt lat="44.83372" lon="-0.36046">
        <ele>27</ele>
        <time>2013-10-20T14:49:37Z</time>
      </trkpt>
      <trkpt lat="44.83362" lon="-0.36093">
        <ele>26</ele>
        <time>2013-10-20T14:49:45Z</time>
      </trkpt>
      <trkpt lat="44.83352" lon="-0.36142">
        <ele>27</ele>
        <time>2013-10-20T14:49:52Z</time>
      </trkpt>
      <trkpt lat="44.83347" lon="-0.3617">
        <ele>27</ele>
        <time>2013-10-20T14:49:56Z</time>
      </trkpt>
      <trkpt lat="44.83337" lon="-0.3621">
        <ele>28</ele>
        <time>2013-10-20T14:50:02Z</time>
      </trkpt>
      <trkpt lat="44.83336" lon="-0.36217">
        <ele>29</ele>
        <time>2013-10-20T14:50:03Z</time>
      </trkpt>
      <trkpt lat="44.83335" lon="-0.36224">
        <ele>29</ele>
        <time>2013-10-20T14:50:04Z</time>
      </trkpt>
      <trkpt lat="44.83324" lon="-0.3628">
        <ele>32</ele>
        <time>2013-10-20T14:50:13Z</time>
      </trkpt>
      <trkpt lat="44.83318" lon="-0.36299">
        <ele>33</ele>
        <time>2013-10-20T14:50:19Z</time>
      </trkpt>
      <trkpt lat="44.83315" lon="-0.36303">
        <ele>33</ele>
        <time>2013-10-20T14:50:21Z</time>
      </trkpt>
      <trkpt lat="44.83311" lon="-0.36305">
        <ele>34</ele>
        <time>2013-10-20T14:50:23Z</time>
      </trkpt>
      <trkpt lat="44.8331" lon="-0.36304">
        <ele>34</ele>
        <time>2013-10-20T14:50:24Z</time>
      </trkpt>
      <trkpt lat="44.83294" lon="-0.36292">
        <ele>34</ele>
        <time>2013-10-20T14:50:31Z</time>
      </trkpt>
      <trkpt lat="44.83278" lon="-0.36277">
        <ele>34</ele>
        <time>2013-10-20T14:50:38Z</time>
      </trkpt>
      <trkpt lat="44.83254" lon="-0.36265">
        <ele>36</ele>
        <time>2013-10-20T14:50:46Z</time>
      </trkpt>
      <trkpt lat="44.8322" lon="-0.36275">
        <ele>38</ele>
        <time>2013-10-20T14:50:55Z</time>
      </trkpt>
      <trkpt lat="44.83198" lon="-0.36284">
        <ele>39</ele>
        <time>2013-10-20T14:51:02Z</time>
      </trkpt>
      <trkpt lat="44.83172" lon="-0.36301">
        <ele>40</ele>
        <time>2013-10-20T14:51:11Z</time>
      </trkpt>
      <trkpt lat="44.83145" lon="-0.36326">
        <ele>40</ele>
        <time>2013-10-20T14:51:21Z</time>
      </trkpt>
      <trkpt lat="44.83139" lon="-0.36332">
        <ele>40</ele>
        <time>2013-10-20T14:51:24Z</time>
      </trkpt>
      <trkpt lat="44.83136" lon="-0.36332">
        <ele>40</ele>
        <time>2013-10-20T14:51:25Z</time>
      </trkpt>
      <trkpt lat="44.83108" lon="-0.36341">
        <ele>41</ele>
        <time>2013-10-20T14:51:34Z</time>
      </trkpt>
      <trkpt lat="44.83083" lon="-0.36354">
        <ele>41</ele>
        <time>2013-10-20T14:51:42Z</time>
      </trkpt>
      <trkpt lat="44.83068" lon="-0.36346">
        <ele>41</ele>
        <time>2013-10-20T14:51:47Z</time>
      </trkpt>
      <trkpt lat="44.83048" lon="-0.36317">
        <ele>41</ele>
        <time>2013-10-20T14:51:56Z</time>
      </trkpt>
      <trkpt lat="44.83041" lon="-0.36308">
        <ele>41</ele>
        <time>2013-10-20T14:51:58Z</time>
      </trkpt>
      <trkpt lat="44.83037" lon="-0.36304">
        <ele>41</ele>
        <time>2013-10-20T14:51:59Z</time>
      </trkpt>
      <trkpt lat="44.83032" lon="-0.36301">
        <ele>41</ele>
        <time>2013-10-20T14:52:00Z</time>
      </trkpt>
      <trkpt lat="44.83027" lon="-0.36299">
        <ele>41</ele>
        <time>2013-10-20T14:52:01Z</time>
      </trkpt>
      <trkpt lat="44.83023" lon="-0.36296">
        <ele>41</ele>
        <time>2013-10-20T14:52:02Z</time>
      </trkpt>
      <trkpt lat="44.83019" lon="-0.36295">
        <ele>41</ele>
        <time>2013-10-20T14:52:03Z</time>
      </trkpt>
      <trkpt lat="44.83015" lon="-0.36294">
        <ele>41</ele>
        <time>2013-10-20T14:52:04Z</time>
      </trkpt>
      <trkpt lat="44.83011" lon="-0.3629">
        <ele>41</ele>
        <time>2013-10-20T14:52:05Z</time>
      </trkpt>
      <trkpt lat="44.8301" lon="-0.36284">
        <ele>40</ele>
        <time>2013-10-20T14:52:06Z</time>
      </trkpt>
      <trkpt lat="44.8301" lon="-0.36277">
        <ele>40</ele>
        <time>2013-10-20T14:52:07Z</time>
      </trkpt>
      <trkpt lat="44.83011" lon="-0.36269">
        <ele>40</ele>
        <time>2013-10-20T14:52:08Z</time>
      </trkpt>
      <trkpt lat="44.83012" lon="-0.3626">
        <ele>39</ele>
        <time>2013-10-20T14:52:09Z</time>
      </trkpt>
      <trkpt lat="44.83012" lon="-0.36251">
        <ele>39</ele>
        <time>2013-10-20T14:52:10Z</time>
      </trkpt>
      <trkpt lat="44.83013" lon="-0.36231">
        <ele>38</ele>
        <time>2013-10-20T14:52:12Z</time>
      </trkpt>
      <trkpt lat="44.83012" lon="-0.36222">
        <ele>37</ele>
        <time>2013-10-20T14:52:13Z</time>
      </trkpt>
      <trkpt lat="44.83009" lon="-0.36213">
        <ele>37</ele>
        <time>2013-10-20T14:52:14Z</time>
      </trkpt>
      <trkpt lat="44.83004" lon="-0.36204">
        <ele>37</ele>
        <time>2013-10-20T14:52:15Z</time>
      </trkpt>
      <trkpt lat="44.82999" lon="-0.36197">
        <ele>36</ele>
        <time>2013-10-20T14:52:16Z</time>
      </trkpt>
      <trkpt lat="44.82993" lon="-0.3619">
        <ele>36</ele>
        <time>2013-10-20T14:52:17Z</time>
      </trkpt>
      <trkpt lat="44.82987" lon="-0.36184">
        <ele>36</ele>
        <time>2013-10-20T14:52:18Z</time>
      </trkpt>
      <trkpt lat="44.82943" lon="-0.3614">
        <ele>35</ele>
        <time>2013-10-20T14:52:25Z</time>
      </trkpt>
      <trkpt lat="44.82938" lon="-0.36132">
        <ele>34</ele>
        <time>2013-10-20T14:52:26Z</time>
      </trkpt>
      <trkpt lat="44.82934" lon="-0.36124">
        <ele>34</ele>
        <time>2013-10-20T14:52:27Z</time>
      </trkpt>
      <trkpt lat="44.8293" lon="-0.36114">
        <ele>34</ele>
        <time>2013-10-20T14:52:28Z</time>
      </trkpt>
      <trkpt lat="44.82926" lon="-0.36104">
        <ele>34</ele>
        <time>2013-10-20T14:52:29Z</time>
      </trkpt>
      <trkpt lat="44.82923" lon="-0.36094">
        <ele>34</ele>
        <time>2013-10-20T14:52:30Z</time>
      </trkpt>
      <trkpt lat="44.82907" lon="-0.36042">
        <ele>33</ele>
        <time>2013-10-20T14:52:35Z</time>
      </trkpt>
      <trkpt lat="44.82903" lon="-0.36033">
        <ele>33</ele>
        <time>2013-10-20T14:52:36Z</time>
      </trkpt>
      <trkpt lat="44.82899" lon="-0.36023">
        <ele>33</ele>
        <time>2013-10-20T14:52:37Z</time>
      </trkpt>
      <trkpt lat="44.82868" lon="-0.3597">
        <ele>35</ele>
        <time>2013-10-20T14:52:44Z</time>
      </trkpt>
      <trkpt lat="44.8285" lon="-0.35938">
        <ele>36</ele>
        <time>2013-10-20T14:52:49Z</time>
      </trkpt>
      <trkpt lat="44.82847" lon="-0.35932">
        <ele>36</ele>
        <time>2013-10-20T14:52:50Z</time>
      </trkpt>
      <trkpt lat="44.82844" lon="-0.35926">
        <ele>37</ele>
        <time>2013-10-20T14:52:51Z</time>
      </trkpt>
      <trkpt lat="44.82841" lon="-0.3592">
        <ele>37</ele>
        <time>2013-10-20T14:52:52Z</time>
      </trkpt>
      <trkpt lat="44.82838" lon="-0.35915">
        <ele>37</ele>
        <time>2013-10-20T14:52:53Z</time>
      </trkpt>
      <trkpt lat="44.82821" lon="-0.35877">
        <ele>38</ele>
        <time>2013-10-20T14:52:59Z</time>
      </trkpt>
      <trkpt lat="44.82801" lon="-0.35826">
        <ele>39</ele>
        <time>2013-10-20T14:53:07Z</time>
      </trkpt>
      <trkpt lat="44.82779" lon="-0.35764">
        <ele>39</ele>
        <time>2013-10-20T14:53:16Z</time>
      </trkpt>
      <trkpt lat="44.82777" lon="-0.35757">
        <ele>39</ele>
        <time>2013-10-20T14:53:17Z</time>
      </trkpt>
      <trkpt lat="44.82759" lon="-0.35703">
        <ele>39</ele>
        <time>2013-10-20T14:53:25Z</time>
      </trkpt>
      <trkpt lat="44.82738" lon="-0.3565">
        <ele>39</ele>
        <time>2013-10-20T14:53:32Z</time>
      </trkpt>
      <trkpt lat="44.82711" lon="-0.35607">
        <ele>38</ele>
        <time>2013-10-20T14:53:38Z</time>
      </trkpt>
      <trkpt lat="44.82702" lon="-0.35592">
        <ele>37</ele>
        <time>2013-10-20T14:53:40Z</time>
      </trkpt>
      <trkpt lat="44.82696" lon="-0.35573">
        <ele>37</ele>
        <time>2013-10-20T14:53:42Z</time>
      </trkpt>
      <trkpt lat="44.82678" lon="-0.35494">
        <ele>35</ele>
        <time>2013-10-20T14:53:50Z</time>
      </trkpt>
      <trkpt lat="44.82674" lon="-0.35477">
        <ele>35</ele>
        <time>2013-10-20T14:53:52Z</time>
      </trkpt>
      <trkpt lat="44.82667" lon="-0.35459">
        <ele>34</ele>
        <time>2013-10-20T14:53:56Z</time>
      </trkpt>
      <trkpt lat="44.82648" lon="-0.35426">
        <ele>34</ele>
        <time>2013-10-20T14:54:02Z</time>
      </trkpt>
      <trkpt lat="44.82615" lon="-0.35386">
        <ele>34</ele>
        <time>2013-10-20T14:54:10Z</time>
      </trkpt>
      <trkpt lat="44.82602" lon="-0.35371">
        <ele>34</ele>
        <time>2013-10-20T14:54:13Z</time>
      </trkpt>
      <trkpt lat="44.82596" lon="-0.35367">
        <ele>34</ele>
        <time>2013-10-20T14:54:14Z</time>
      </trkpt>
      <trkpt lat="44.8259" lon="-0.35364">
        <ele>35</ele>
        <time>2013-10-20T14:54:15Z</time>
      </trkpt>
      <trkpt lat="44.82553" lon="-0.35353">
        <ele>37</ele>
        <time>2013-10-20T14:54:21Z</time>
      </trkpt>
      <trkpt lat="44.82519" lon="-0.35338">
        <ele>38</ele>
        <time>2013-10-20T14:54:29Z</time>
      </trkpt>
      <trkpt lat="44.8251" lon="-0.35333">
        <ele>39</ele>
        <time>2013-10-20T14:54:32Z</time>
      </trkpt>
      <trkpt lat="44.82507" lon="-0.35334">
        <ele>39</ele>
        <time>2013-10-20T14:54:33Z</time>
      </trkpt>
      <trkpt lat="44.82505" lon="-0.35338">
        <ele>39</ele>
        <time>2013-10-20T14:54:37Z</time>
      </trkpt>
      <trkpt lat="44.82504" lon="-0.3534">
        <ele>39</ele>
        <time>2013-10-20T14:54:38Z</time>
      </trkpt>
      <trkpt lat="44.82503" lon="-0.35341">
        <ele>39</ele>
        <time>2013-10-20T14:54:39Z</time>
      </trkpt>
      <trkpt lat="44.82495" lon="-0.35354">
        <ele>40</ele>
        <time>2013-10-20T14:54:45Z</time>
      </trkpt>
      <trkpt lat="44.82493" lon="-0.35357">
        <ele>40</ele>
        <time>2013-10-20T14:54:46Z</time>
      </trkpt>
      <trkpt lat="44.8249" lon="-0.35363">
        <ele>41</ele>
        <time>2013-10-20T14:54:48Z</time>
      </trkpt>
      <trkpt lat="44.82481" lon="-0.35378">
        <ele>42</ele>
        <time>2013-10-20T14:54:54Z</time>
      </trkpt>
      <trkpt lat="44.82477" lon="-0.35384">
        <ele>42</ele>
        <time>2013-10-20T14:54:56Z</time>
      </trkpt>
      <trkpt lat="44.82465" lon="-0.35406">
        <ele>43</ele>
        <time>2013-10-20T14:55:03Z</time>
      </trkpt>
      <trkpt lat="44.82462" lon="-0.3541">
        <ele>44</ele>
        <time>2013-10-20T14:55:04Z</time>
      </trkpt>
      <trkpt lat="44.82447" lon="-0.35434">
        <ele>45</ele>
        <time>2013-10-20T14:55:11Z</time>
      </trkpt>
      <trkpt lat="44.8244" lon="-0.35445">
        <ele>45</ele>
        <time>2013-10-20T14:55:16Z</time>
      </trkpt>
      <trkpt lat="44.82431" lon="-0.35459">
        <ele>46</ele>
        <time>2013-10-20T14:55:22Z</time>
      </trkpt>
      <trkpt lat="44.8242" lon="-0.35475">
        <ele>46</ele>
        <time>2013-10-20T14:55:27Z</time>
      </trkpt>
      <trkpt lat="44.82414" lon="-0.35485">
        <ele>47</ele>
        <time>2013-10-20T14:55:32Z</time>
      </trkpt>
      <trkpt lat="44.82405" lon="-0.35495">
        <ele>47</ele>
        <time>2013-10-20T14:55:38Z</time>
      </trkpt>
      <trkpt lat="44.82387" lon="-0.35522">
        <ele>49</ele>
        <time>2013-10-20T14:55:47Z</time>
      </trkpt>
      <trkpt lat="44.82385" lon="-0.35526">
        <ele>49</ele>
        <time>2013-10-20T14:55:48Z</time>
      </trkpt>
      <trkpt lat="44.82378" lon="-0.35535">
        <ele>50</ele>
        <time>2013-10-20T14:55:52Z</time>
      </trkpt>
      <trkpt lat="44.82363" lon="-0.35551">
        <ele>50</ele>
        <time>2013-10-20T14:55:59Z</time>
      </trkpt>
      <trkpt lat="44.82361" lon="-0.35554">
        <ele>51</ele>
        <time>2013-10-20T14:56:00Z</time>
      </trkpt>
      <trkpt lat="44.82352" lon="-0.35566">
        <ele>51</ele>
        <time>2013-10-20T14:56:04Z</time>
      </trkpt>
      <trkpt lat="44.82347" lon="-0.35571">
        <ele>51</ele>
        <time>2013-10-20T14:56:06Z</time>
      </trkpt>
      <trkpt lat="44.82334" lon="-0.35586">
        <ele>52</ele>
        <time>2013-10-20T14:56:12Z</time>
      </trkpt>
      <trkpt lat="44.82327" lon="-0.35595">
        <ele>52</ele>
        <time>2013-10-20T14:56:15Z</time>
      </trkpt>
      <trkpt lat="44.82314" lon="-0.35615">
        <ele>53</ele>
        <time>2013-10-20T14:56:22Z</time>
      </trkpt>
      <trkpt lat="44.82298" lon="-0.35631">
        <ele>54</ele>
        <time>2013-10-20T14:56:30Z</time>
      </trkpt>
      <trkpt lat="44.82286" lon="-0.35648">
        <ele>55</ele>
        <time>2013-10-20T14:56:36Z</time>
      </trkpt>
      <trkpt lat="44.82274" lon="-0.35662">
        <ele>55</ele>
        <time>2013-10-20T14:56:42Z</time>
      </trkpt>
      <trkpt lat="44.82256" lon="-0.35683">
        <ele>56</ele>
        <time>2013-10-20T14:56:48Z</time>
      </trkpt>
      <trkpt lat="44.82242" lon="-0.35705">
        <ele>56</ele>
        <time>2013-10-20T14:56:54Z</time>
      </trkpt>
      <trkpt lat="44.82226" lon="-0.35724">
        <ele>56</ele>
        <time>2013-10-20T14:57:00Z</time>
      </trkpt>
      <trkpt lat="44.82213" lon="-0.35745">
        <ele>57</ele>
        <time>2013-10-20T14:57:06Z</time>
      </trkpt>
      <trkpt lat="44.82206" lon="-0.35759">
        <ele>58</ele>
        <time>2013-10-20T14:57:11Z</time>
      </trkpt>
      <trkpt lat="44.82192" lon="-0.3577">
        <ele>58</ele>
        <time>2013-10-20T14:57:17Z</time>
      </trkpt>
      <trkpt lat="44.82164" lon="-0.35778">
        <ele>58</ele>
        <time>2013-10-20T14:57:26Z</time>
      </trkpt>
      <trkpt lat="44.82145" lon="-0.35783">
        <ele>58</ele>
        <time>2013-10-20T14:57:33Z</time>
      </trkpt>
      <trkpt lat="44.82134" lon="-0.35786">
        <ele>58</ele>
        <time>2013-10-20T14:57:39Z</time>
      </trkpt>
      <trkpt lat="44.82132" lon="-0.3578">
        <ele>58</ele>
        <time>2013-10-20T14:57:44Z</time>
      </trkpt>
      <trkpt lat="44.82131" lon="-0.35779">
        <ele>58</ele>
        <time>2013-10-20T14:57:49Z</time>
      </trkpt>
      <trkpt lat="44.82131" lon="-0.35779">
        <ele>58</ele>
        <time>2013-10-20T14:57:56Z</time>
      </trkpt>
      <trkpt lat="44.8213" lon="-0.35779">
        <ele>58</ele>
        <time>2013-10-20T14:58:06Z</time>
      </trkpt>
      <trkpt lat="44.8213" lon="-0.35779">
        <ele>58</ele>
        <time>2013-10-20T14:58:16Z</time>
      </trkpt>
      <trkpt lat="44.8213" lon="-0.35779">
        <ele>58</ele>
        <time>2013-10-20T14:58:29Z</time>
      </trkpt>
      <trkpt lat="44.8213" lon="-0.3578">
        <ele>58</ele>
        <time>2013-10-20T14:58:45Z</time>
      </trkpt>
      <trkpt lat="44.8213" lon="-0.3578">
        <ele>58</ele>
        <time>2013-10-20T14:59:00Z</time>
      </trkpt>
      <trkpt lat="44.8213" lon="-0.35779">
        <ele>58</ele>
        <time>2013-10-20T14:59:08Z</time>
      </trkpt>
      <trkpt lat="44.8213" lon="-0.3578">
        <ele>58</ele>
        <time>2013-10-20T14:59:20Z</time>
      </trkpt>
      <trkpt lat="44.8213" lon="-0.3578">
        <ele>58</ele>
        <time>2013-10-20T14:59:35Z</time>
      </trkpt>
      <trkpt lat="44.8213" lon="-0.3578">
        <ele>58</ele>
        <time>2013-10-20T14:59:47Z</time>
      </trkpt>
      <trkpt lat="44.8213" lon="-0.3578">
        <ele>58</ele>
        <time>2013-10-20T14:59:59Z</time>
      </trkpt>
      <trkpt lat="44.8213" lon="-0.35779">
        <ele>58</ele>
        <time>2013-10-20T15:00:08Z</time>
      </trkpt>
      <trkpt lat="44.8213" lon="-0.35779">
        <ele>58</ele>
        <time>2013-10-20T15:00:22Z</time>
      </trkpt>
      <trkpt lat="44.8213" lon="-0.35779">
        <ele>58</ele>
        <time>2013-10-20T15:00:35Z</time>
      </trkpt>
      <trkpt lat="44.8213" lon="-0.35779">
        <ele>58</ele>
        <time>2013-10-20T15:00:41Z</time>
      </trkpt>
      <trkpt lat="44.8213" lon="-0.35779">
        <ele>58</ele>
        <time>2013-10-20T15:00:50Z</time>
      </trkpt>
      <trkpt lat="44.82129" lon="-0.35779">
        <ele>58</ele>
        <time>2013-10-20T15:00:59Z</time>
      </trkpt>
      <trkpt lat="44.82129" lon="-0.35779">
        <ele>58</ele>
        <time>2013-10-20T15:01:10Z</time>
      </trkpt>
      <trkpt lat="44.82129" lon="-0.35779">
        <ele>58</ele>
        <time>2013-10-20T15:01:23Z</time>
      </trkpt>
      <trkpt lat="44.82125" lon="-0.35763">
        <ele>58</ele>
        <time>2013-10-20T15:01:30Z</time>
      </trkpt>
      <trkpt lat="44.82125" lon="-0.35753">
        <ele>58</ele>
        <time>2013-10-20T15:01:32Z</time>
      </trkpt>
      <trkpt lat="44.82125" lon="-0.35732">
        <ele>57</ele>
        <time>2013-10-20T15:01:35Z</time>
      </trkpt>
      <trkpt lat="44.82122" lon="-0.35687">
        <ele>56</ele>
        <time>2013-10-20T15:01:40Z</time>
      </trkpt>
      <trkpt lat="44.82115" lon="-0.35621">
        <ele>54</ele>
        <time>2013-10-20T15:01:46Z</time>
      </trkpt>
      <trkpt lat="44.82106" lon="-0.35557">
        <ele>53</ele>
        <time>2013-10-20T15:01:52Z</time>
      </trkpt>
      <trkpt lat="44.82083" lon="-0.35504">
        <ele>53</ele>
        <time>2013-10-20T15:01:58Z</time>
      </trkpt>
      <trkpt lat="44.82045" lon="-0.35439">
        <ele>52</ele>
        <time>2013-10-20T15:02:07Z</time>
      </trkpt>
      <trkpt lat="44.82017" lon="-0.35398">
        <ele>51</ele>
        <time>2013-10-20T15:02:15Z</time>
      </trkpt>
      <trkpt lat="44.81995" lon="-0.35376">
        <ele>50</ele>
        <time>2013-10-20T15:02:21Z</time>
      </trkpt>
      <trkpt lat="44.81976" lon="-0.35358">
        <ele>49</ele>
        <time>2013-10-20T15:02:27Z</time>
      </trkpt>
      <trkpt lat="44.81964" lon="-0.35345">
        <ele>48</ele>
        <time>2013-10-20T15:02:34Z</time>
      </trkpt>
      <trkpt lat="44.81961" lon="-0.35343">
        <ele>48</ele>
        <time>2013-10-20T15:02:40Z</time>
      </trkpt>
      <trkpt lat="44.81958" lon="-0.35339">
        <ele>47</ele>
        <time>2013-10-20T15:02:47Z</time>
      </trkpt>
      <trkpt lat="44.81953" lon="-0.35334">
        <ele>47</ele>
        <time>2013-10-20T15:02:54Z</time>
      </trkpt>
      <trkpt lat="44.8195" lon="-0.3533">
        <ele>47</ele>
        <time>2013-10-20T15:02:59Z</time>
      </trkpt>
      <trkpt lat="44.81946" lon="-0.35325">
        <ele>47</ele>
        <time>2013-10-20T15:03:04Z</time>
      </trkpt>
      <trkpt lat="44.81945" lon="-0.35323">
        <ele>47</ele>
        <time>2013-10-20T15:03:05Z</time>
      </trkpt>
      <trkpt lat="44.81943" lon="-0.35322">
        <ele>46</ele>
        <time>2013-10-20T15:03:06Z</time>
      </trkpt>
      <trkpt lat="44.81941" lon="-0.3532">
        <ele>46</ele>
        <time>2013-10-20T15:03:07Z</time>
      </trkpt>
      <trkpt lat="44.81939" lon="-0.35318">
        <ele>46</ele>
        <time>2013-10-20T15:03:08Z</time>
      </trkpt>
      <trkpt lat="44.81936" lon="-0.35317">
        <ele>46</ele>
        <time>2013-10-20T15:03:09Z</time>
      </trkpt>
      <trkpt lat="44.8192" lon="-0.35299">
        <ele>43</ele>
        <time>2013-10-20T15:03:15Z</time>
      </trkpt>
      <trkpt lat="44.81917" lon="-0.35294">
        <ele>42</ele>
        <time>2013-10-20T15:03:16Z</time>
      </trkpt>
      <trkpt lat="44.81914" lon="-0.3529">
        <ele>41</ele>
        <time>2013-10-20T15:03:17Z</time>
      </trkpt>
      <trkpt lat="44.8191" lon="-0.35289">
        <ele>41</ele>
        <time>2013-10-20T15:03:18Z</time>
      </trkpt>
      <trkpt lat="44.81907" lon="-0.3529">
        <ele>40</ele>
        <time>2013-10-20T15:03:19Z</time>
      </trkpt>
      <trkpt lat="44.81893" lon="-0.35303">
        <ele>40</ele>
        <time>2013-10-20T15:03:24Z</time>
      </trkpt>
      <trkpt lat="44.81881" lon="-0.35326">
        <ele>40</ele>
        <time>2013-10-20T15:03:29Z</time>
      </trkpt>
      <trkpt lat="44.81872" lon="-0.35336">
        <ele>39</ele>
        <time>2013-10-20T15:03:32Z</time>
      </trkpt>
      <trkpt lat="44.81868" lon="-0.35336">
        <ele>39</ele>
        <time>2013-10-20T15:03:33Z</time>
      </trkpt>
      <trkpt lat="44.81865" lon="-0.35334">
        <ele>39</ele>
        <time>2013-10-20T15:03:34Z</time>
      </trkpt>
      <trkpt lat="44.81863" lon="-0.35332">
        <ele>39</ele>
        <time>2013-10-20T15:03:35Z</time>
      </trkpt>
      <trkpt lat="44.8186" lon="-0.35328">
        <ele>38</ele>
        <time>2013-10-20T15:03:36Z</time>
      </trkpt>
      <trkpt lat="44.81859" lon="-0.35324">
        <ele>38</ele>
        <time>2013-10-20T15:03:37Z</time>
      </trkpt>
      <trkpt lat="44.81857" lon="-0.3532">
        <ele>38</ele>
        <time>2013-10-20T15:03:38Z</time>
      </trkpt>
      <trkpt lat="44.81855" lon="-0.35317">
        <ele>38</ele>
        <time>2013-10-20T15:03:39Z</time>
      </trkpt>
      <trkpt lat="44.81845" lon="-0.35304">
        <ele>38</ele>
        <time>2013-10-20T15:03:44Z</time>
      </trkpt>
      <trkpt lat="44.81833" lon="-0.35286">
        <ele>38</ele>
        <time>2013-10-20T15:03:50Z</time>
      </trkpt>
      <trkpt lat="44.81822" lon="-0.35275">
        <ele>39</ele>
        <time>2013-10-20T15:03:56Z</time>
      </trkpt>
      <trkpt lat="44.81819" lon="-0.35269">
        <ele>39</ele>
        <time>2013-10-20T15:03:58Z</time>
      </trkpt>
      <trkpt lat="44.81819" lon="-0.35262">
        <ele>39</ele>
        <time>2013-10-20T15:04:01Z</time>
      </trkpt>
      <trkpt lat="44.81819" lon="-0.35246">
        <ele>40</ele>
        <time>2013-10-20T15:04:08Z</time>
      </trkpt>
      <trkpt lat="44.8182" lon="-0.35238">
        <ele>39</ele>
        <time>2013-10-20T15:04:14Z</time>
      </trkpt>
      <trkpt lat="44.8182" lon="-0.35234">
        <ele>39</ele>
        <time>2013-10-20T15:04:24Z</time>
      </trkpt>
      <trkpt lat="44.8182" lon="-0.35232">
        <ele>39</ele>
        <time>2013-10-20T15:04:32Z</time>
      </trkpt>
      <trkpt lat="44.81821" lon="-0.35224">
        <ele>39</ele>
        <time>2013-10-20T15:04:37Z</time>
      </trkpt>
      <trkpt lat="44.81822" lon="-0.35221">
        <ele>39</ele>
        <time>2013-10-20T15:04:43Z</time>
      </trkpt>
      <trkpt lat="44.81824" lon="-0.35217">
        <ele>39</ele>
        <time>2013-10-20T15:04:54Z</time>
      </trkpt>
      <trkpt lat="44.81824" lon="-0.35217">
        <ele>39</ele>
        <time>2013-10-20T15:05:09Z</time>
      </trkpt>
      <trkpt lat="44.81823" lon="-0.35217">
        <ele>39</ele>
        <time>2013-10-20T15:05:22Z</time>
      </trkpt>
      <trkpt lat="44.81823" lon="-0.35216">
        <ele>39</ele>
        <time>2013-10-20T15:05:39Z</time>
      </trkpt>
      <trkpt lat="44.81823" lon="-0.35216">
        <ele>39</ele>
        <time>2013-10-20T15:05:51Z</time>
      </trkpt>
      <trkpt lat="44.81823" lon="-0.35216">
        <ele>39</ele>
        <time>2013-10-20T15:06:05Z</time>
      </trkpt>
      <trkpt lat="44.81823" lon="-0.35215">
        <ele>39</ele>
        <time>2013-10-20T15:06:16Z</time>
      </trkpt>
      <trkpt lat="44.81827" lon="-0.35202">
        <ele>39</ele>
        <time>2013-10-20T15:06:20Z</time>
      </trkpt>
      <trkpt lat="44.81832" lon="-0.35187">
        <ele>38</ele>
        <time>2013-10-20T15:06:23Z</time>
      </trkpt>
      <trkpt lat="44.81832" lon="-0.35158">
        <ele>38</ele>
        <time>2013-10-20T15:06:28Z</time>
      </trkpt>
      <trkpt lat="44.81829" lon="-0.35148">
        <ele>38</ele>
        <time>2013-10-20T15:06:31Z</time>
      </trkpt>
      <trkpt lat="44.81821" lon="-0.3513">
        <ele>37</ele>
        <time>2013-10-20T15:06:38Z</time>
      </trkpt>
      <trkpt lat="44.81819" lon="-0.35126">
        <ele>37</ele>
        <time>2013-10-20T15:06:39Z</time>
      </trkpt>
      <trkpt lat="44.81805" lon="-0.35099">
        <ele>37</ele>
        <time>2013-10-20T15:06:45Z</time>
      </trkpt>
      <trkpt lat="44.81792" lon="-0.3508">
        <ele>37</ele>
        <time>2013-10-20T15:06:49Z</time>
      </trkpt>
      <trkpt lat="44.81771" lon="-0.35068">
        <ele>37</ele>
        <time>2013-10-20T15:06:54Z</time>
      </trkpt>
      <trkpt lat="44.81752" lon="-0.35071">
        <ele>37</ele>
        <time>2013-10-20T15:06:58Z</time>
      </trkpt>
      <trkpt lat="44.81744" lon="-0.35072">
        <ele>37</ele>
        <time>2013-10-20T15:07:00Z</time>
      </trkpt>
      <trkpt lat="44.81719" lon="-0.35082">
        <ele>38</ele>
        <time>2013-10-20T15:07:05Z</time>
      </trkpt>
      <trkpt lat="44.81706" lon="-0.35086">
        <ele>38</ele>
        <time>2013-10-20T15:07:07Z</time>
      </trkpt>
      <trkpt lat="44.81658" lon="-0.35103">
        <ele>37</ele>
        <time>2013-10-20T15:07:14Z</time>
      </trkpt>
      <trkpt lat="44.81652" lon="-0.35105">
        <ele>37</ele>
        <time>2013-10-20T15:07:15Z</time>
      </trkpt>
      <trkpt lat="44.81629" lon="-0.35106">
        <ele>37</ele>
        <time>2013-10-20T15:07:20Z</time>
      </trkpt>
      <trkpt lat="44.81611" lon="-0.35105">
        <ele>37</ele>
        <time>2013-10-20T15:07:26Z</time>
      </trkpt>
      <trkpt lat="44.8161" lon="-0.35087">
        <ele>36</ele>
        <time>2013-10-20T15:07:33Z</time>
      </trkpt>
      <trkpt lat="44.8161" lon="-0.35063">
        <ele>36</ele>
        <time>2013-10-20T15:07:42Z</time>
      </trkpt>
      <trkpt lat="44.8161" lon="-0.3506">
        <ele>36</ele>
        <time>2013-10-20T15:07:43Z</time>
      </trkpt>
      <trkpt lat="44.81611" lon="-0.35046">
        <ele>35</ele>
        <time>2013-10-20T15:07:48Z</time>
      </trkpt>
      <trkpt lat="44.81612" lon="-0.35011">
        <ele>37</ele>
        <time>2013-10-20T15:07:58Z</time>
      </trkpt>
      <trkpt lat="44.81612" lon="-0.34991">
        <ele>38</ele>
        <time>2013-10-20T15:08:05Z</time>
      </trkpt>
      <trkpt lat="44.81616" lon="-0.34965">
        <ele>39</ele>
        <time>2013-10-20T15:08:13Z</time>
      </trkpt>
      <trkpt lat="44.81624" lon="-0.34938">
        <ele>41</ele>
        <time>2013-10-20T15:08:21Z</time>
      </trkpt>
      <trkpt lat="44.81625" lon="-0.34936">
        <ele>41</ele>
        <time>2013-10-20T15:08:22Z</time>
      </trkpt>
      <trkpt lat="44.8163" lon="-0.34923">
        <ele>41</ele>
        <time>2013-10-20T15:08:26Z</time>
      </trkpt>
      <trkpt lat="44.81642" lon="-0.34897">
        <ele>42</ele>
        <time>2013-10-20T15:08:33Z</time>
      </trkpt>
      <trkpt lat="44.81658" lon="-0.34865">
        <ele>43</ele>
        <time>2013-10-20T15:08:41Z</time>
      </trkpt>
      <trkpt lat="44.81659" lon="-0.34855">
        <ele>44</ele>
        <time>2013-10-20T15:08:43Z</time>
      </trkpt>
      <trkpt lat="44.81657" lon="-0.34852">
        <ele>44</ele>
        <time>2013-10-20T15:08:44Z</time>
      </trkpt>
      <trkpt lat="44.81654" lon="-0.34851">
        <ele>45</ele>
        <time>2013-10-20T15:08:45Z</time>
      </trkpt>
      <trkpt lat="44.81652" lon="-0.34853">
        <ele>45</ele>
        <time>2013-10-20T15:08:46Z</time>
      </trkpt>
      <trkpt lat="44.8165" lon="-0.34855">
        <ele>45</ele>
        <time>2013-10-20T15:08:47Z</time>
      </trkpt>
      <trkpt lat="44.81648" lon="-0.34858">
        <ele>45</ele>
        <time>2013-10-20T15:08:48Z</time>
      </trkpt>
      <trkpt lat="44.81645" lon="-0.34859">
        <ele>46</ele>
        <time>2013-10-20T15:08:49Z</time>
      </trkpt>
      <trkpt lat="44.81643" lon="-0.3486">
        <ele>46</ele>
        <time>2013-10-20T15:08:50Z</time>
      </trkpt>
      <trkpt lat="44.81625" lon="-0.34867">
        <ele>47</ele>
        <time>2013-10-20T15:08:58Z</time>
      </trkpt>
      <trkpt lat="44.81605" lon="-0.34869">
        <ele>48</ele>
        <time>2013-10-20T15:09:05Z</time>
      </trkpt>
      <trkpt lat="44.81603" lon="-0.3487">
        <ele>48</ele>
        <time>2013-10-20T15:09:06Z</time>
      </trkpt>
      <trkpt lat="44.81601" lon="-0.3487">
        <ele>49</ele>
        <time>2013-10-20T15:09:07Z</time>
      </trkpt>
      <trkpt lat="44.81598" lon="-0.3487">
        <ele>49</ele>
        <time>2013-10-20T15:09:08Z</time>
      </trkpt>
      <trkpt lat="44.81595" lon="-0.3487">
        <ele>49</ele>
        <time>2013-10-20T15:09:09Z</time>
      </trkpt>
      <trkpt lat="44.81592" lon="-0.34871">
        <ele>49</ele>
        <time>2013-10-20T15:09:10Z</time>
      </trkpt>
      <trkpt lat="44.8157" lon="-0.34871">
        <ele>48</ele>
        <time>2013-10-20T15:09:17Z</time>
      </trkpt>
      <trkpt lat="44.81551" lon="-0.34865">
        <ele>48</ele>
        <time>2013-10-20T15:09:23Z</time>
      </trkpt>
      <trkpt lat="44.81532" lon="-0.34846">
        <ele>49</ele>
        <time>2013-10-20T15:09:30Z</time>
      </trkpt>
      <trkpt lat="44.81505" lon="-0.34828">
        <ele>48</ele>
        <time>2013-10-20T15:09:38Z</time>
      </trkpt>
      <trkpt lat="44.81492" lon="-0.34822">
        <ele>47</ele>
        <time>2013-10-20T15:09:41Z</time>
      </trkpt>
      <trkpt lat="44.81483" lon="-0.34819">
        <ele>47</ele>
        <time>2013-10-20T15:09:43Z</time>
      </trkpt>
      <trkpt lat="44.81449" lon="-0.34796">
        <ele>46</ele>
        <time>2013-10-20T15:09:50Z</time>
      </trkpt>
      <trkpt lat="44.81405" lon="-0.34766">
        <ele>46</ele>
        <time>2013-10-20T15:09:58Z</time>
      </trkpt>
      <trkpt lat="44.81395" lon="-0.3476">
        <ele>47</ele>
        <time>2013-10-20T15:10:00Z</time>
      </trkpt>
      <trkpt lat="44.8138" lon="-0.34752">
        <ele>47</ele>
        <time>2013-10-20T15:10:03Z</time>
      </trkpt>
      <trkpt lat="44.81375" lon="-0.3475">
        <ele>47</ele>
        <time>2013-10-20T15:10:04Z</time>
      </trkpt>
      <trkpt lat="44.81359" lon="-0.34743">
        <ele>48</ele>
        <time>2013-10-20T15:10:07Z</time>
      </trkpt>
      <trkpt lat="44.81354" lon="-0.34742">
        <ele>48</ele>
        <time>2013-10-20T15:10:08Z</time>
      </trkpt>
      <trkpt lat="44.81349" lon="-0.34741">
        <ele>48</ele>
        <time>2013-10-20T15:10:09Z</time>
      </trkpt>
      <trkpt lat="44.81344" lon="-0.3474">
        <ele>48</ele>
        <time>2013-10-20T15:10:10Z</time>
      </trkpt>
      <trkpt lat="44.8134" lon="-0.34741">
        <ele>48</ele>
        <time>2013-10-20T15:10:11Z</time>
      </trkpt>
      <trkpt lat="44.81335" lon="-0.34742">
        <ele>48</ele>
        <time>2013-10-20T15:10:12Z</time>
      </trkpt>
      <trkpt lat="44.81331" lon="-0.34743">
        <ele>48</ele>
        <time>2013-10-20T15:10:13Z</time>
      </trkpt>
      <trkpt lat="44.81327" lon="-0.34744">
        <ele>48</ele>
        <time>2013-10-20T15:10:14Z</time>
      </trkpt>
      <trkpt lat="44.81317" lon="-0.34744">
        <ele>48</ele>
        <time>2013-10-20T15:10:20Z</time>
      </trkpt>
      <trkpt lat="44.81307" lon="-0.34741">
        <ele>48</ele>
        <time>2013-10-20T15:10:27Z</time>
      </trkpt>
      <trkpt lat="44.81293" lon="-0.34736">
        <ele>48</ele>
        <time>2013-10-20T15:10:34Z</time>
      </trkpt>
      <trkpt lat="44.81276" lon="-0.34728">
        <ele>48</ele>
        <time>2013-10-20T15:10:40Z</time>
      </trkpt>
      <trkpt lat="44.81256" lon="-0.3471">
        <ele>49</ele>
        <time>2013-10-20T15:10:47Z</time>
      </trkpt>
      <trkpt lat="44.81253" lon="-0.34705">
        <ele>49</ele>
        <time>2013-10-20T15:10:48Z</time>
      </trkpt>
      <trkpt lat="44.8125" lon="-0.347">
        <ele>49</ele>
        <time>2013-10-20T15:10:49Z</time>
      </trkpt>
      <trkpt lat="44.81242" lon="-0.3469">
        <ele>49</ele>
        <time>2013-10-20T15:10:51Z</time>
      </trkpt>
      <trkpt lat="44.81239" lon="-0.34686">
        <ele>49</ele>
        <time>2013-10-20T15:10:52Z</time>
      </trkpt>
      <trkpt lat="44.81236" lon="-0.34681">
        <ele>49</ele>
        <time>2013-10-20T15:10:53Z</time>
      </trkpt>
      <trkpt lat="44.81233" lon="-0.34677">
        <ele>49</ele>
        <time>2013-10-20T15:10:54Z</time>
      </trkpt>
      <trkpt lat="44.81229" lon="-0.34672">
        <ele>49</ele>
        <time>2013-10-20T15:10:55Z</time>
      </trkpt>
      <trkpt lat="44.81225" lon="-0.34667">
        <ele>49</ele>
        <time>2013-10-20T15:10:56Z</time>
      </trkpt>
      <trkpt lat="44.8122" lon="-0.34662">
        <ele>49</ele>
        <time>2013-10-20T15:10:57Z</time>
      </trkpt>
      <trkpt lat="44.81215" lon="-0.34658">
        <ele>49</ele>
        <time>2013-10-20T15:10:58Z</time>
      </trkpt>
      <trkpt lat="44.81205" lon="-0.3465">
        <ele>49</ele>
        <time>2013-10-20T15:11:00Z</time>
      </trkpt>
      <trkpt lat="44.81199" lon="-0.34647">
        <ele>49</ele>
        <time>2013-10-20T15:11:01Z</time>
      </trkpt>
      <trkpt lat="44.81193" lon="-0.34643">
        <ele>49</ele>
        <time>2013-10-20T15:11:02Z</time>
      </trkpt>
      <trkpt lat="44.81188" lon="-0.34639">
        <ele>50</ele>
        <time>2013-10-20T15:11:03Z</time>
      </trkpt>
      <trkpt lat="44.81182" lon="-0.34635">
        <ele>50</ele>
        <time>2013-10-20T15:11:04Z</time>
      </trkpt>
      <trkpt lat="44.81176" lon="-0.34631">
        <ele>50</ele>
        <time>2013-10-20T15:11:05Z</time>
      </trkpt>
      <trkpt lat="44.81129" lon="-0.34605">
        <ele>51</ele>
        <time>2013-10-20T15:11:13Z</time>
      </trkpt>
      <trkpt lat="44.81111" lon="-0.34594">
        <ele>51</ele>
        <time>2013-10-20T15:11:16Z</time>
      </trkpt>
      <trkpt lat="44.81105" lon="-0.34591">
        <ele>52</ele>
        <time>2013-10-20T15:11:17Z</time>
      </trkpt>
      <trkpt lat="44.81099" lon="-0.34588">
        <ele>52</ele>
        <time>2013-10-20T15:11:18Z</time>
      </trkpt>
      <trkpt lat="44.81087" lon="-0.34582">
        <ele>53</ele>
        <time>2013-10-20T15:11:20Z</time>
      </trkpt>
      <trkpt lat="44.81076" lon="-0.34579">
        <ele>53</ele>
        <time>2013-10-20T15:11:22Z</time>
      </trkpt>
      <trkpt lat="44.81061" lon="-0.34577">
        <ele>53</ele>
        <time>2013-10-20T15:11:25Z</time>
      </trkpt>
      <trkpt lat="44.81056" lon="-0.34576">
        <ele>53</ele>
        <time>2013-10-20T15:11:26Z</time>
      </trkpt>
      <trkpt lat="44.81051" lon="-0.34576">
        <ele>53</ele>
        <time>2013-10-20T15:11:27Z</time>
      </trkpt>
      <trkpt lat="44.81021" lon="-0.34574">
        <ele>51</ele>
        <time>2013-10-20T15:11:34Z</time>
      </trkpt>
      <trkpt lat="44.81001" lon="-0.34564">
        <ele>50</ele>
        <time>2013-10-20T15:11:39Z</time>
      </trkpt>
      <trkpt lat="44.80997" lon="-0.3456">
        <ele>50</ele>
        <time>2013-10-20T15:11:40Z</time>
      </trkpt>
      <trkpt lat="44.80988" lon="-0.34549">
        <ele>49</ele>
        <time>2013-10-20T15:11:42Z</time>
      </trkpt>
      <trkpt lat="44.80975" lon="-0.34538">
        <ele>49</ele>
        <time>2013-10-20T15:11:45Z</time>
      </trkpt>
      <trkpt lat="44.80963" lon="-0.34531">
        <ele>50</ele>
        <time>2013-10-20T15:11:49Z</time>
      </trkpt>
      <trkpt lat="44.80947" lon="-0.34525">
        <ele>52</ele>
        <time>2013-10-20T15:11:54Z</time>
      </trkpt>
      <trkpt lat="44.80945" lon="-0.34523">
        <ele>52</ele>
        <time>2013-10-20T15:11:55Z</time>
      </trkpt>
      <trkpt lat="44.80944" lon="-0.34522">
        <ele>53</ele>
        <time>2013-10-20T15:11:56Z</time>
      </trkpt>
      <trkpt lat="44.80942" lon="-0.34521">
        <ele>53</ele>
        <time>2013-10-20T15:11:57Z</time>
      </trkpt>
      <trkpt lat="44.8094" lon="-0.34521">
        <ele>53</ele>
        <time>2013-10-20T15:11:58Z</time>
      </trkpt>
      <trkpt lat="44.80938" lon="-0.3452">
        <ele>54</ele>
        <time>2013-10-20T15:11:59Z</time>
      </trkpt>
      <trkpt lat="44.80936" lon="-0.3452">
        <ele>54</ele>
        <time>2013-10-20T15:12:00Z</time>
      </trkpt>
      <trkpt lat="44.80934" lon="-0.34519">
        <ele>54</ele>
        <time>2013-10-20T15:12:01Z</time>
      </trkpt>
      <trkpt lat="44.80931" lon="-0.34519">
        <ele>54</ele>
        <time>2013-10-20T15:12:03Z</time>
      </trkpt>
      <trkpt lat="44.80929" lon="-0.34518">
        <ele>54</ele>
        <time>2013-10-20T15:12:04Z</time>
      </trkpt>
      <trkpt lat="44.80927" lon="-0.34517">
        <ele>54</ele>
        <time>2013-10-20T15:12:05Z</time>
      </trkpt>
      <trkpt lat="44.80925" lon="-0.34517">
        <ele>55</ele>
        <time>2013-10-20T15:12:06Z</time>
      </trkpt>
      <trkpt lat="44.80922" lon="-0.34515">
        <ele>55</ele>
        <time>2013-10-20T15:12:07Z</time>
      </trkpt>
      <trkpt lat="44.8092" lon="-0.34514">
        <ele>55</ele>
        <time>2013-10-20T15:12:08Z</time>
      </trkpt>
      <trkpt lat="44.80917" lon="-0.34513">
        <ele>55</ele>
        <time>2013-10-20T15:12:09Z</time>
      </trkpt>
      <trkpt lat="44.80913" lon="-0.34512">
        <ele>55</ele>
        <time>2013-10-20T15:12:10Z</time>
      </trkpt>
      <trkpt lat="44.8091" lon="-0.34511">
        <ele>55</ele>
        <time>2013-10-20T15:12:11Z</time>
      </trkpt>
      <trkpt lat="44.8088" lon="-0.34506">
        <ele>55</ele>
        <time>2013-10-20T15:12:18Z</time>
      </trkpt>
      <trkpt lat="44.80875" lon="-0.34505">
        <ele>55</ele>
        <time>2013-10-20T15:12:19Z</time>
      </trkpt>
      <trkpt lat="44.80871" lon="-0.34505">
        <ele>55</ele>
        <time>2013-10-20T15:12:20Z</time>
      </trkpt>
      <trkpt lat="44.80866" lon="-0.34505">
        <ele>55</ele>
        <time>2013-10-20T15:12:21Z</time>
      </trkpt>
      <trkpt lat="44.80823" lon="-0.34508">
        <ele>53</ele>
        <time>2013-10-20T15:12:30Z</time>
      </trkpt>
      <trkpt lat="44.80814" lon="-0.34508">
        <ele>53</ele>
        <time>2013-10-20T15:12:32Z</time>
      </trkpt>
      <trkpt lat="44.80805" lon="-0.3451">
        <ele>53</ele>
        <time>2013-10-20T15:12:34Z</time>
      </trkpt>
      <trkpt lat="44.808" lon="-0.34508">
        <ele>53</ele>
        <time>2013-10-20T15:12:35Z</time>
      </trkpt>
      <trkpt lat="44.80767" lon="-0.34483">
        <ele>52</ele>
        <time>2013-10-20T15:12:43Z</time>
      </trkpt>
      <trkpt lat="44.80738" lon="-0.34451">
        <ele>51</ele>
        <time>2013-10-20T15:12:49Z</time>
      </trkpt>
      <trkpt lat="44.80707" lon="-0.34426">
        <ele>52</ele>
        <time>2013-10-20T15:12:55Z</time>
      </trkpt>
      <trkpt lat="44.80686" lon="-0.34408">
        <ele>54</ele>
        <time>2013-10-20T15:13:01Z</time>
      </trkpt>
      <trkpt lat="44.80668" lon="-0.34397">
        <ele>56</ele>
        <time>2013-10-20T15:13:07Z</time>
      </trkpt>
      <trkpt lat="44.80652" lon="-0.34384">
        <ele>55</ele>
        <time>2013-10-20T15:13:14Z</time>
      </trkpt>
      <trkpt lat="44.80643" lon="-0.34368">
        <ele>56</ele>
        <time>2013-10-20T15:13:20Z</time>
      </trkpt>
      <trkpt lat="44.80642" lon="-0.34364">
        <ele>56</ele>
        <time>2013-10-20T15:13:22Z</time>
      </trkpt>
      <trkpt lat="44.80641" lon="-0.34363">
        <ele>56</ele>
        <time>2013-10-20T15:13:23Z</time>
      </trkpt>
      <trkpt lat="44.8064" lon="-0.34362">
        <ele>56</ele>
        <time>2013-10-20T15:13:24Z</time>
      </trkpt>
      <trkpt lat="44.80638" lon="-0.34361">
        <ele>56</ele>
        <time>2013-10-20T15:13:25Z</time>
      </trkpt>
      <trkpt lat="44.80637" lon="-0.3436">
        <ele>56</ele>
        <time>2013-10-20T15:13:26Z</time>
      </trkpt>
      <trkpt lat="44.80635" lon="-0.3436">
        <ele>56</ele>
        <time>2013-10-20T15:13:27Z</time>
      </trkpt>
      <trkpt lat="44.80634" lon="-0.34359">
        <ele>56</ele>
        <time>2013-10-20T15:13:28Z</time>
      </trkpt>
      <trkpt lat="44.80633" lon="-0.34358">
        <ele>56</ele>
        <time>2013-10-20T15:13:29Z</time>
      </trkpt>
      <trkpt lat="44.80631" lon="-0.34357">
        <ele>55</ele>
        <time>2013-10-20T15:13:30Z</time>
      </trkpt>
      <trkpt lat="44.8063" lon="-0.34356">
        <ele>55</ele>
        <time>2013-10-20T15:13:31Z</time>
      </trkpt>
      <trkpt lat="44.80623" lon="-0.34347">
        <ele>55</ele>
        <time>2013-10-20T15:13:37Z</time>
      </trkpt>
      <trkpt lat="44.80618" lon="-0.34338">
        <ele>55</ele>
        <time>2013-10-20T15:13:42Z</time>
      </trkpt>
      <trkpt lat="44.80617" lon="-0.34336">
        <ele>55</ele>
        <time>2013-10-20T15:13:43Z</time>
      </trkpt>
      <trkpt lat="44.80614" lon="-0.34332">
        <ele>55</ele>
        <time>2013-10-20T15:13:50Z</time>
      </trkpt>
      <trkpt lat="44.80615" lon="-0.34332">
        <ele>55</ele>
        <time>2013-10-20T15:14:01Z</time>
      </trkpt>
      <trkpt lat="44.80615" lon="-0.34331">
        <ele>55</ele>
        <time>2013-10-20T15:14:12Z</time>
      </trkpt>
      <trkpt lat="44.80614" lon="-0.3433">
        <ele>55</ele>
        <time>2013-10-20T15:14:22Z</time>
      </trkpt>
      <trkpt lat="44.80614" lon="-0.3433">
        <ele>55</ele>
        <time>2013-10-20T15:14:34Z</time>
      </trkpt>
      <trkpt lat="44.80614" lon="-0.3433">
        <ele>55</ele>
        <time>2013-10-20T15:14:45Z</time>
      </trkpt>
      <trkpt lat="44.80614" lon="-0.3433">
        <ele>55</ele>
        <time>2013-10-20T15:14:55Z</time>
      </trkpt>
      <trkpt lat="44.80614" lon="-0.34331">
        <ele>55</ele>
        <time>2013-10-20T15:15:14Z</time>
      </trkpt>
      <trkpt lat="44.80614" lon="-0.3433">
        <ele>55</ele>
        <time>2013-10-20T15:15:23Z</time>
      </trkpt>
      <trkpt lat="44.80614" lon="-0.3433">
        <ele>55</ele>
        <time>2013-10-20T15:15:36Z</time>
      </trkpt>
      <trkpt lat="44.80614" lon="-0.3433">
        <ele>55</ele>
        <time>2013-10-20T15:15:47Z</time>
      </trkpt>
      <trkpt lat="44.80614" lon="-0.3433">
        <ele>55</ele>
        <time>2013-10-20T15:16:00Z</time>
      </trkpt>
      <trkpt lat="44.80614" lon="-0.3433">
        <ele>55</ele>
        <time>2013-10-20T15:16:11Z</time>
      </trkpt>
      <trkpt lat="44.80614" lon="-0.34331">
        <ele>55</ele>
        <time>2013-10-20T15:16:24Z</time>
      </trkpt>
      <trkpt lat="44.80614" lon="-0.3433">
        <ele>55</ele>
        <time>2013-10-20T15:16:37Z</time>
      </trkpt>
      <trkpt lat="44.8061" lon="-0.34325">
        <ele>55</ele>
        <time>2013-10-20T15:16:43Z</time>
      </trkpt>
      <trkpt lat="44.80599" lon="-0.34308">
        <ele>54</ele>
        <time>2013-10-20T15:16:48Z</time>
      </trkpt>
      <trkpt lat="44.80587" lon="-0.34292">
        <ele>52</ele>
        <time>2013-10-20T15:16:51Z</time>
      </trkpt>
      <trkpt lat="44.80563" lon="-0.34248">
        <ele>49</ele>
        <time>2013-10-20T15:16:56Z</time>
      </trkpt>
      <trkpt lat="44.80532" lon="-0.34182">
        <ele>49</ele>
        <time>2013-10-20T15:17:03Z</time>
      </trkpt>
      <trkpt lat="44.80505" lon="-0.34135">
        <ele>53</ele>
        <time>2013-10-20T15:17:09Z</time>
      </trkpt>
      <trkpt lat="44.80495" lon="-0.34113">
        <ele>55</ele>
        <time>2013-10-20T15:17:13Z</time>
      </trkpt>
      <trkpt lat="44.80488" lon="-0.34099">
        <ele>56</ele>
        <time>2013-10-20T15:17:18Z</time>
      </trkpt>
      <trkpt lat="44.80478" lon="-0.34074">
        <ele>57</ele>
        <time>2013-10-20T15:17:24Z</time>
      </trkpt>
      <trkpt lat="44.80466" lon="-0.34043">
        <ele>58</ele>
        <time>2013-10-20T15:17:31Z</time>
      </trkpt>
      <trkpt lat="44.80453" lon="-0.34021">
        <ele>55</ele>
        <time>2013-10-20T15:17:35Z</time>
      </trkpt>
      <trkpt lat="44.80448" lon="-0.34015">
        <ele>55</ele>
        <time>2013-10-20T15:17:36Z</time>
      </trkpt>
      <trkpt lat="44.80423" lon="-0.33973">
        <ele>51</ele>
        <time>2013-10-20T15:17:41Z</time>
      </trkpt>
      <trkpt lat="44.80405" lon="-0.33946">
        <ele>51</ele>
        <time>2013-10-20T15:17:44Z</time>
      </trkpt>
      <trkpt lat="44.80398" lon="-0.33939">
        <ele>51</ele>
        <time>2013-10-20T15:17:45Z</time>
      </trkpt>
      <trkpt lat="44.80392" lon="-0.33933">
        <ele>52</ele>
        <time>2013-10-20T15:17:46Z</time>
      </trkpt>
      <trkpt lat="44.80385" lon="-0.33928">
        <ele>52</ele>
        <time>2013-10-20T15:17:47Z</time>
      </trkpt>
      <trkpt lat="44.80379" lon="-0.33924">
        <ele>53</ele>
        <time>2013-10-20T15:17:48Z</time>
      </trkpt>
      <trkpt lat="44.80359" lon="-0.33909">
        <ele>55</ele>
        <time>2013-10-20T15:17:52Z</time>
      </trkpt>
      <trkpt lat="44.80354" lon="-0.33906">
        <ele>55</ele>
        <time>2013-10-20T15:17:53Z</time>
      </trkpt>
      <trkpt lat="44.80327" lon="-0.33887">
        <ele>59</ele>
        <time>2013-10-20T15:18:00Z</time>
      </trkpt>
      <trkpt lat="44.80312" lon="-0.33876">
        <ele>60</ele>
        <time>2013-10-20T15:18:07Z</time>
      </trkpt>
      <trkpt lat="44.803" lon="-0.3387">
        <ele>60</ele>
        <time>2013-10-20T15:18:14Z</time>
      </trkpt>
      <trkpt lat="44.80294" lon="-0.33866">
        <ele>60</ele>
        <time>2013-10-20T15:18:20Z</time>
      </trkpt>
      <trkpt lat="44.80293" lon="-0.33866">
        <ele>60</ele>
        <time>2013-10-20T15:18:25Z</time>
      </trkpt>
      <trkpt lat="44.80293" lon="-0.33865">
        <ele>60</ele>
        <time>2013-10-20T15:18:36Z</time>
      </trkpt>
      <trkpt lat="44.80294" lon="-0.33864">
        <ele>61</ele>
        <time>2013-10-20T15:18:46Z</time>
      </trkpt>
      <trkpt lat="44.80293" lon="-0.33864">
        <ele>61</ele>
        <time>2013-10-20T15:18:57Z</time>
      </trkpt>
      <trkpt lat="44.80294" lon="-0.33865">
        <ele>61</ele>
        <time>2013-10-20T15:19:10Z</time>
      </trkpt>
      <trkpt lat="44.80293" lon="-0.33865">
        <ele>61</ele>
        <time>2013-10-20T15:19:19Z</time>
      </trkpt>
      <trkpt lat="44.80293" lon="-0.33865">
        <ele>61</ele>
        <time>2013-10-20T15:19:20Z</time>
      </trkpt>
      <trkpt lat="44.80292" lon="-0.33862">
        <ele>61</ele>
        <time>2013-10-20T15:19:23Z</time>
      </trkpt>
      <trkpt lat="44.80293" lon="-0.3386">
        <ele>61</ele>
        <time>2013-10-20T15:19:24Z</time>
      </trkpt>
      <trkpt lat="44.80297" lon="-0.33849">
        <ele>62</ele>
        <time>2013-10-20T15:19:30Z</time>
      </trkpt>
      <trkpt lat="44.80308" lon="-0.33829">
        <ele>63</ele>
        <time>2013-10-20T15:19:38Z</time>
      </trkpt>
      <trkpt lat="44.80318" lon="-0.33806">
        <ele>65</ele>
        <time>2013-10-20T15:19:45Z</time>
      </trkpt>
      <trkpt lat="44.80337" lon="-0.33768">
        <ele>68</ele>
        <time>2013-10-20T15:19:56Z</time>
      </trkpt>
      <trkpt lat="44.80348" lon="-0.33744">
        <ele>70</ele>
        <time>2013-10-20T15:20:05Z</time>
      </trkpt>
      <trkpt lat="44.80343" lon="-0.33717">
        <ele>70</ele>
        <time>2013-10-20T15:20:14Z</time>
      </trkpt>
      <trkpt lat="44.80332" lon="-0.33689">
        <ele>71</ele>
        <time>2013-10-20T15:20:23Z</time>
      </trkpt>
      <trkpt lat="44.80319" lon="-0.33663">
        <ele>72</ele>
        <time>2013-10-20T15:20:31Z</time>
      </trkpt>
      <trkpt lat="44.80296" lon="-0.33624">
        <ele>72</ele>
        <time>2013-10-20T15:20:43Z</time>
      </trkpt>
      <trkpt lat="44.8028" lon="-0.33599">
        <ele>72</ele>
        <time>2013-10-20T15:20:51Z</time>
      </trkpt>
      <trkpt lat="44.80274" lon="-0.3357">
        <ele>73</ele>
        <time>2013-10-20T15:20:59Z</time>
      </trkpt>
      <trkpt lat="44.80272" lon="-0.3354">
        <ele>75</ele>
        <time>2013-10-20T15:21:07Z</time>
      </trkpt>
      <trkpt lat="44.80271" lon="-0.33518">
        <ele>77</ele>
        <time>2013-10-20T15:21:13Z</time>
      </trkpt>
      <trkpt lat="44.80269" lon="-0.33489">
        <ele>78</ele>
        <time>2013-10-20T15:21:22Z</time>
      </trkpt>
      <trkpt lat="44.80267" lon="-0.3347">
        <ele>80</ele>
        <time>2013-10-20T15:21:29Z</time>
      </trkpt>
      <trkpt lat="44.80265" lon="-0.33453">
        <ele>81</ele>
        <time>2013-10-20T15:21:36Z</time>
      </trkpt>
      <trkpt lat="44.80264" lon="-0.33437">
        <ele>82</ele>
        <time>2013-10-20T15:21:42Z</time>
      </trkpt>
      <trkpt lat="44.80264" lon="-0.33435">
        <ele>82</ele>
        <time>2013-10-20T15:21:43Z</time>
      </trkpt>
      <trkpt lat="44.80263" lon="-0.3341">
        <ele>84</ele>
        <time>2013-10-20T15:21:52Z</time>
      </trkpt>
      <trkpt lat="44.80263" lon="-0.33405">
        <ele>84</ele>
        <time>2013-10-20T15:21:54Z</time>
      </trkpt>
      <trkpt lat="44.80263" lon="-0.33403">
        <ele>84</ele>
        <time>2013-10-20T15:21:55Z</time>
      </trkpt>
      <trkpt lat="44.80261" lon="-0.3338">
        <ele>86</ele>
        <time>2013-10-20T15:22:04Z</time>
      </trkpt>
      <trkpt lat="44.8026" lon="-0.33375">
        <ele>86</ele>
        <time>2013-10-20T15:22:06Z</time>
      </trkpt>
      <trkpt lat="44.80259" lon="-0.33366">
        <ele>87</ele>
        <time>2013-10-20T15:22:10Z</time>
      </trkpt>
      <trkpt lat="44.80255" lon="-0.33347">
        <ele>88</ele>
        <time>2013-10-20T15:22:17Z</time>
      </trkpt>
      <trkpt lat="44.80257" lon="-0.33318">
        <ele>91</ele>
        <time>2013-10-20T15:22:25Z</time>
      </trkpt>
      <trkpt lat="44.80259" lon="-0.33297">
        <ele>93</ele>
        <time>2013-10-20T15:22:32Z</time>
      </trkpt>
      <trkpt lat="44.80264" lon="-0.33276">
        <ele>96</ele>
        <time>2013-10-20T15:22:39Z</time>
      </trkpt>
      <trkpt lat="44.80276" lon="-0.33258">
        <ele>98</ele>
        <time>2013-10-20T15:22:48Z</time>
      </trkpt>
      <trkpt lat="44.8029" lon="-0.33243">
        <ele>99</ele>
        <time>2013-10-20T15:22:57Z</time>
      </trkpt>
      <trkpt lat="44.803" lon="-0.33235">
        <ele>99</ele>
        <time>2013-10-20T15:23:03Z</time>
      </trkpt>
      <trkpt lat="44.8031" lon="-0.33222">
        <ele>100</ele>
        <time>2013-10-20T15:23:10Z</time>
      </trkpt>
      <trkpt lat="44.80321" lon="-0.33211">
        <ele>100</ele>
        <time>2013-10-20T15:23:16Z</time>
      </trkpt>
      <trkpt lat="44.80328" lon="-0.33203">
        <ele>100</ele>
        <time>2013-10-20T15:23:19Z</time>
      </trkpt>
      <trkpt lat="44.80343" lon="-0.33175">
        <ele>99</ele>
        <time>2013-10-20T15:23:26Z</time>
      </trkpt>
      <trkpt lat="44.80345" lon="-0.3317">
        <ele>99</ele>
        <time>2013-10-20T15:23:27Z</time>
      </trkpt>
      <trkpt lat="44.80347" lon="-0.33165">
        <ele>99</ele>
        <time>2013-10-20T15:23:28Z</time>
      </trkpt>
      <trkpt lat="44.80359" lon="-0.33132">
        <ele>98</ele>
        <time>2013-10-20T15:23:34Z</time>
      </trkpt>
      <trkpt lat="44.8038" lon="-0.33072">
        <ele>98</ele>
        <time>2013-10-20T15:23:44Z</time>
      </trkpt>
      <trkpt lat="44.80401" lon="-0.33007">
        <ele>99</ele>
        <time>2013-10-20T15:23:54Z</time>
      </trkpt>
      <trkpt lat="44.8042" lon="-0.32957">
        <ele>100</ele>
        <time>2013-10-20T15:24:02Z</time>
      </trkpt>
      <trkpt lat="44.80434" lon="-0.32924">
        <ele>101</ele>
        <time>2013-10-20T15:24:09Z</time>
      </trkpt>
      <trkpt lat="44.8044" lon="-0.32914">
        <ele>101</ele>
        <time>2013-10-20T15:24:14Z</time>
      </trkpt>
      <trkpt lat="44.80441" lon="-0.32911">
        <ele>102</ele>
        <time>2013-10-20T15:24:20Z</time>
      </trkpt>
      <trkpt lat="44.8044" lon="-0.3291">
        <ele>102</ele>
        <time>2013-10-20T15:24:30Z</time>
      </trkpt>
      <trkpt lat="44.80441" lon="-0.32908">
        <ele>102</ele>
        <time>2013-10-20T15:24:31Z</time>
      </trkpt>
      <trkpt lat="44.80442" lon="-0.32905">
        <ele>102</ele>
        <time>2013-10-20T15:24:32Z</time>
      </trkpt>
      <trkpt lat="44.80444" lon="-0.32902">
        <ele>102</ele>
        <time>2013-10-20T15:24:33Z</time>
      </trkpt>
      <trkpt lat="44.80445" lon="-0.32898">
        <ele>102</ele>
        <time>2013-10-20T15:24:34Z</time>
      </trkpt>
      <trkpt lat="44.80447" lon="-0.32895">
        <ele>102</ele>
        <time>2013-10-20T15:24:35Z</time>
      </trkpt>
      <trkpt lat="44.80448" lon="-0.32891">
        <ele>102</ele>
        <time>2013-10-20T15:24:36Z</time>
      </trkpt>
      <trkpt lat="44.8045" lon="-0.32887">
        <ele>102</ele>
        <time>2013-10-20T15:24:37Z</time>
      </trkpt>
      <trkpt lat="44.80453" lon="-0.32883">
        <ele>103</ele>
        <time>2013-10-20T15:24:38Z</time>
      </trkpt>
      <trkpt lat="44.80456" lon="-0.32878">
        <ele>103</ele>
        <time>2013-10-20T15:24:39Z</time>
      </trkpt>
      <trkpt lat="44.80472" lon="-0.32852">
        <ele>104</ele>
        <time>2013-10-20T15:24:44Z</time>
      </trkpt>
      <trkpt lat="44.80485" lon="-0.32831">
        <ele>104</ele>
        <time>2013-10-20T15:24:50Z</time>
      </trkpt>
      <trkpt lat="44.80499" lon="-0.3281">
        <ele>105</ele>
        <time>2013-10-20T15:24:59Z</time>
      </trkpt>
      <trkpt lat="44.80511" lon="-0.32791">
        <ele>105</ele>
        <time>2013-10-20T15:25:07Z</time>
      </trkpt>
      <trkpt lat="44.80523" lon="-0.32775">
        <ele>105</ele>
        <time>2013-10-20T15:25:15Z</time>
      </trkpt>
      <trkpt lat="44.80534" lon="-0.32757">
        <ele>105</ele>
        <time>2013-10-20T15:25:22Z</time>
      </trkpt>
      <trkpt lat="44.80544" lon="-0.3273">
        <ele>104</ele>
        <time>2013-10-20T15:25:29Z</time>
      </trkpt>
      <trkpt lat="44.80554" lon="-0.327">
        <ele>103</ele>
        <time>2013-10-20T15:25:36Z</time>
      </trkpt>
      <trkpt lat="44.80552" lon="-0.32687">
        <ele>103</ele>
        <time>2013-10-20T15:25:41Z</time>
      </trkpt>
      <trkpt lat="44.80551" lon="-0.32685">
        <ele>103</ele>
        <time>2013-10-20T15:25:42Z</time>
      </trkpt>
      <trkpt lat="44.8055" lon="-0.32683">
        <ele>103</ele>
        <time>2013-10-20T15:25:43Z</time>
      </trkpt>
      <trkpt lat="44.80549" lon="-0.32682">
        <ele>103</ele>
        <time>2013-10-20T15:25:44Z</time>
      </trkpt>
      <trkpt lat="44.80548" lon="-0.3268">
        <ele>103</ele>
        <time>2013-10-20T15:25:45Z</time>
      </trkpt>
      <trkpt lat="44.80547" lon="-0.32678">
        <ele>103</ele>
        <time>2013-10-20T15:25:46Z</time>
      </trkpt>
      <trkpt lat="44.80545" lon="-0.32676">
        <ele>103</ele>
        <time>2013-10-20T15:25:47Z</time>
      </trkpt>
      <trkpt lat="44.80533" lon="-0.32659">
        <ele>104</ele>
        <time>2013-10-20T15:25:55Z</time>
      </trkpt>
      <trkpt lat="44.80517" lon="-0.3264">
        <ele>105</ele>
        <time>2013-10-20T15:26:03Z</time>
      </trkpt>
      <trkpt lat="44.80509" lon="-0.32629">
        <ele>105</ele>
        <time>2013-10-20T15:26:09Z</time>
      </trkpt>
      <trkpt lat="44.80507" lon="-0.32626">
        <ele>105</ele>
        <time>2013-10-20T15:26:11Z</time>
      </trkpt>
      <trkpt lat="44.80506" lon="-0.32625">
        <ele>105</ele>
        <time>2013-10-20T15:26:12Z</time>
      </trkpt>
      <trkpt lat="44.80498" lon="-0.32613">
        <ele>106</ele>
        <time>2013-10-20T15:26:19Z</time>
      </trkpt>
      <trkpt lat="44.80496" lon="-0.32611">
        <ele>106</ele>
        <time>2013-10-20T15:26:20Z</time>
      </trkpt>
      <trkpt lat="44.80495" lon="-0.32609">
        <ele>106</ele>
        <time>2013-10-20T15:26:21Z</time>
      </trkpt>
      <trkpt lat="44.80494" lon="-0.32608">
        <ele>106</ele>
        <time>2013-10-20T15:26:22Z</time>
      </trkpt>
      <trkpt lat="44.80493" lon="-0.32606">
        <ele>106</ele>
        <time>2013-10-20T15:26:23Z</time>
      </trkpt>
      <trkpt lat="44.80492" lon="-0.32603">
        <ele>106</ele>
        <time>2013-10-20T15:26:24Z</time>
      </trkpt>
      <trkpt lat="44.80485" lon="-0.32592">
        <ele>106</ele>
        <time>2013-10-20T15:26:29Z</time>
      </trkpt>
      <trkpt lat="44.80484" lon="-0.32589">
        <ele>106</ele>
        <time>2013-10-20T15:26:30Z</time>
      </trkpt>
      <trkpt lat="44.80483" lon="-0.32587">
        <ele>106</ele>
        <time>2013-10-20T15:26:31Z</time>
      </trkpt>
      <trkpt lat="44.80482" lon="-0.32585">
        <ele>106</ele>
        <time>2013-10-20T15:26:32Z</time>
      </trkpt>
      <trkpt lat="44.80481" lon="-0.32583">
        <ele>106</ele>
        <time>2013-10-20T15:26:33Z</time>
      </trkpt>
      <trkpt lat="44.80479" lon="-0.32581">
        <ele>106</ele>
        <time>2013-10-20T15:26:34Z</time>
      </trkpt>
      <trkpt lat="44.80477" lon="-0.32579">
        <ele>106</ele>
        <time>2013-10-20T15:26:35Z</time>
      </trkpt>
      <trkpt lat="44.80476" lon="-0.32577">
        <ele>106</ele>
        <time>2013-10-20T15:26:36Z</time>
      </trkpt>
      <trkpt lat="44.80465" lon="-0.3256">
        <ele>106</ele>
        <time>2013-10-20T15:26:43Z</time>
      </trkpt>
      <trkpt lat="44.80452" lon="-0.32538">
        <ele>105</ele>
        <time>2013-10-20T15:26:50Z</time>
      </trkpt>
      <trkpt lat="44.80435" lon="-0.32511">
        <ele>104</ele>
        <time>2013-10-20T15:26:57Z</time>
      </trkpt>
      <trkpt lat="44.80432" lon="-0.32506">
        <ele>104</ele>
        <time>2013-10-20T15:26:58Z</time>
      </trkpt>
      <trkpt lat="44.80429" lon="-0.32501">
        <ele>104</ele>
        <time>2013-10-20T15:26:59Z</time>
      </trkpt>
      <trkpt lat="44.80427" lon="-0.32495">
        <ele>104</ele>
        <time>2013-10-20T15:27:00Z</time>
      </trkpt>
      <trkpt lat="44.80425" lon="-0.3249">
        <ele>104</ele>
        <time>2013-10-20T15:27:01Z</time>
      </trkpt>
      <trkpt lat="44.80422" lon="-0.32484">
        <ele>103</ele>
        <time>2013-10-20T15:27:02Z</time>
      </trkpt>
      <trkpt lat="44.80418" lon="-0.32478">
        <ele>103</ele>
        <time>2013-10-20T15:27:03Z</time>
      </trkpt>
      <trkpt lat="44.80416" lon="-0.32472">
        <ele>103</ele>
        <time>2013-10-20T15:27:04Z</time>
      </trkpt>
      <trkpt lat="44.80413" lon="-0.32466">
        <ele>103</ele>
        <time>2013-10-20T15:27:05Z</time>
      </trkpt>
      <trkpt lat="44.80387" lon="-0.32423">
        <ele>101</ele>
        <time>2013-10-20T15:27:11Z</time>
      </trkpt>
      <trkpt lat="44.80352" lon="-0.32369">
        <ele>100</ele>
        <time>2013-10-20T15:27:18Z</time>
      </trkpt>
      <trkpt lat="44.80298" lon="-0.32293">
        <ele>97</ele>
        <time>2013-10-20T15:27:28Z</time>
      </trkpt>
      <trkpt lat="44.80269" lon="-0.32247">
        <ele>97</ele>
        <time>2013-10-20T15:27:35Z</time>
      </trkpt>
      <trkpt lat="44.80261" lon="-0.32229">
        <ele>97</ele>
        <time>2013-10-20T15:27:38Z</time>
      </trkpt>
      <trkpt lat="44.80257" lon="-0.32225">
        <ele>97</ele>
        <time>2013-10-20T15:27:39Z</time>
      </trkpt>
      <trkpt lat="44.80252" lon="-0.32222">
        <ele>97</ele>
        <time>2013-10-20T15:27:40Z</time>
      </trkpt>
      <trkpt lat="44.80247" lon="-0.32221">
        <ele>97</ele>
        <time>2013-10-20T15:27:41Z</time>
      </trkpt>
      <trkpt lat="44.80243" lon="-0.32218">
        <ele>96</ele>
        <time>2013-10-20T15:27:42Z</time>
      </trkpt>
      <trkpt lat="44.80234" lon="-0.32213">
        <ele>96</ele>
        <time>2013-10-20T15:27:44Z</time>
      </trkpt>
      <trkpt lat="44.80229" lon="-0.3221">
        <ele>96</ele>
        <time>2013-10-20T15:27:45Z</time>
      </trkpt>
      <trkpt lat="44.80224" lon="-0.32207">
        <ele>96</ele>
        <time>2013-10-20T15:27:46Z</time>
      </trkpt>
      <trkpt lat="44.80196" lon="-0.32186">
        <ele>97</ele>
        <time>2013-10-20T15:27:52Z</time>
      </trkpt>
      <trkpt lat="44.80191" lon="-0.32184">
        <ele>97</ele>
        <time>2013-10-20T15:27:53Z</time>
      </trkpt>
      <trkpt lat="44.80186" lon="-0.32185">
        <ele>97</ele>
        <time>2013-10-20T15:27:54Z</time>
      </trkpt>
      <trkpt lat="44.80171" lon="-0.32191">
        <ele>96</ele>
        <time>2013-10-20T15:27:57Z</time>
      </trkpt>
      <trkpt lat="44.80165" lon="-0.32194">
        <ele>96</ele>
        <time>2013-10-20T15:27:58Z</time>
      </trkpt>
      <trkpt lat="44.8016" lon="-0.32198">
        <ele>96</ele>
        <time>2013-10-20T15:27:59Z</time>
      </trkpt>
      <trkpt lat="44.80147" lon="-0.3221">
        <ele>96</ele>
        <time>2013-10-20T15:28:02Z</time>
      </trkpt>
      <trkpt lat="44.80138" lon="-0.32219">
        <ele>95</ele>
        <time>2013-10-20T15:28:04Z</time>
      </trkpt>
      <trkpt lat="44.80118" lon="-0.32246">
        <ele>94</ele>
        <time>2013-10-20T15:28:09Z</time>
      </trkpt>
      <trkpt lat="44.80096" lon="-0.32276">
        <ele>92</ele>
        <time>2013-10-20T15:28:15Z</time>
      </trkpt>
      <trkpt lat="44.80091" lon="-0.32281">
        <ele>92</ele>
        <time>2013-10-20T15:28:17Z</time>
      </trkpt>
      <trkpt lat="44.80075" lon="-0.32298">
        <ele>91</ele>
        <time>2013-10-20T15:28:21Z</time>
      </trkpt>
      <trkpt lat="44.80059" lon="-0.3232">
        <ele>91</ele>
        <time>2013-10-20T15:28:25Z</time>
      </trkpt>
      <trkpt lat="44.8003" lon="-0.32366">
        <ele>89</ele>
        <time>2013-10-20T15:28:32Z</time>
      </trkpt>
      <trkpt lat="44.80018" lon="-0.32384">
        <ele>89</ele>
        <time>2013-10-20T15:28:35Z</time>
      </trkpt>
      <trkpt lat="44.79995" lon="-0.32421">
        <ele>89</ele>
        <time>2013-10-20T15:28:41Z</time>
      </trkpt>
      <trkpt lat="44.79978" lon="-0.32454">
        <ele>88</ele>
        <time>2013-10-20T15:28:46Z</time>
      </trkpt>
      <trkpt lat="44.79961" lon="-0.32493">
        <ele>88</ele>
        <time>2013-10-20T15:28:51Z</time>
      </trkpt>
      <trkpt lat="44.79954" lon="-0.32524">
        <ele>86</ele>
        <time>2013-10-20T15:28:54Z</time>
      </trkpt>
      <trkpt lat="44.79938" lon="-0.32564">
        <ele>84</ele>
        <time>2013-10-20T15:28:58Z</time>
      </trkpt>
      <trkpt lat="44.79916" lon="-0.32595">
        <ele>82</ele>
        <time>2013-10-20T15:29:02Z</time>
      </trkpt>
      <trkpt lat="44.79891" lon="-0.32615">
        <ele>82</ele>
        <time>2013-10-20T15:29:06Z</time>
      </trkpt>
      <trkpt lat="44.79859" lon="-0.32626">
        <ele>84</ele>
        <time>2013-10-20T15:29:11Z</time>
      </trkpt>
      <trkpt lat="44.79826" lon="-0.32656">
        <ele>85</ele>
        <time>2013-10-20T15:29:17Z</time>
      </trkpt>
      <trkpt lat="44.79807" lon="-0.32682">
        <ele>85</ele>
        <time>2013-10-20T15:29:21Z</time>
      </trkpt>
      <trkpt lat="44.79789" lon="-0.3271">
        <ele>83</ele>
        <time>2013-10-20T15:29:25Z</time>
      </trkpt>
      <trkpt lat="44.79769" lon="-0.32748">
        <ele>80</ele>
        <time>2013-10-20T15:29:30Z</time>
      </trkpt>
      <trkpt lat="44.79755" lon="-0.32774">
        <ele>78</ele>
        <time>2013-10-20T15:29:33Z</time>
      </trkpt>
      <trkpt lat="44.7975" lon="-0.32783">
        <ele>77</ele>
        <time>2013-10-20T15:29:34Z</time>
      </trkpt>
      <trkpt lat="44.79745" lon="-0.32791">
        <ele>76</ele>
        <time>2013-10-20T15:29:35Z</time>
      </trkpt>
      <trkpt lat="44.79731" lon="-0.32818">
        <ele>74</ele>
        <time>2013-10-20T15:29:39Z</time>
      </trkpt>
      <trkpt lat="44.79729" lon="-0.32825">
        <ele>73</ele>
        <time>2013-10-20T15:29:40Z</time>
      </trkpt>
      <trkpt lat="44.79729" lon="-0.32832">
        <ele>72</ele>
        <time>2013-10-20T15:29:41Z</time>
      </trkpt>
      <trkpt lat="44.79731" lon="-0.32849">
        <ele>71</ele>
        <time>2013-10-20T15:29:43Z</time>
      </trkpt>
      <trkpt lat="44.79732" lon="-0.32859">
        <ele>70</ele>
        <time>2013-10-20T15:29:44Z</time>
      </trkpt>
      <trkpt lat="44.79733" lon="-0.32869">
        <ele>69</ele>
        <time>2013-10-20T15:29:45Z</time>
      </trkpt>
      <trkpt lat="44.79733" lon="-0.32879">
        <ele>68</ele>
        <time>2013-10-20T15:29:46Z</time>
      </trkpt>
      <trkpt lat="44.79732" lon="-0.32888">
        <ele>68</ele>
        <time>2013-10-20T15:29:47Z</time>
      </trkpt>
      <trkpt lat="44.79727" lon="-0.32937">
        <ele>64</ele>
        <time>2013-10-20T15:29:53Z</time>
      </trkpt>
      <trkpt lat="44.79724" lon="-0.32961">
        <ele>62</ele>
        <time>2013-10-20T15:29:56Z</time>
      </trkpt>
      <trkpt lat="44.79723" lon="-0.32968">
        <ele>61</ele>
        <time>2013-10-20T15:29:57Z</time>
      </trkpt>
      <trkpt lat="44.79721" lon="-0.32975">
        <ele>61</ele>
        <time>2013-10-20T15:29:58Z</time>
      </trkpt>
      <trkpt lat="44.79718" lon="-0.32999">
        <ele>59</ele>
        <time>2013-10-20T15:30:01Z</time>
      </trkpt>
      <trkpt lat="44.79716" lon="-0.33006">
        <ele>58</ele>
        <time>2013-10-20T15:30:02Z</time>
      </trkpt>
      <trkpt lat="44.79714" lon="-0.33027">
        <ele>57</ele>
        <time>2013-10-20T15:30:05Z</time>
      </trkpt>
      <trkpt lat="44.79712" lon="-0.33042">
        <ele>56</ele>
        <time>2013-10-20T15:30:07Z</time>
      </trkpt>
      <trkpt lat="44.79712" lon="-0.33049">
        <ele>56</ele>
        <time>2013-10-20T15:30:08Z</time>
      </trkpt>
      <trkpt lat="44.79713" lon="-0.33055">
        <ele>55</ele>
        <time>2013-10-20T15:30:09Z</time>
      </trkpt>
      <trkpt lat="44.79715" lon="-0.33061">
        <ele>55</ele>
        <time>2013-10-20T15:30:10Z</time>
      </trkpt>
      <trkpt lat="44.79717" lon="-0.33067">
        <ele>55</ele>
        <time>2013-10-20T15:30:11Z</time>
      </trkpt>
      <trkpt lat="44.79718" lon="-0.33074">
        <ele>55</ele>
        <time>2013-10-20T15:30:12Z</time>
      </trkpt>
      <trkpt lat="44.79721" lon="-0.33087">
        <ele>54</ele>
        <time>2013-10-20T15:30:14Z</time>
      </trkpt>
      <trkpt lat="44.7973" lon="-0.33112">
        <ele>53</ele>
        <time>2013-10-20T15:30:18Z</time>
      </trkpt>
      <trkpt lat="44.79733" lon="-0.33124">
        <ele>52</ele>
        <time>2013-10-20T15:30:22Z</time>
      </trkpt>
      <trkpt lat="44.79732" lon="-0.33126">
        <ele>52</ele>
        <time>2013-10-20T15:30:23Z</time>
      </trkpt>
      <trkpt lat="44.79732" lon="-0.33128">
        <ele>52</ele>
        <time>2013-10-20T15:30:25Z</time>
      </trkpt>
      <trkpt lat="44.79728" lon="-0.33137">
        <ele>52</ele>
        <time>2013-10-20T15:30:30Z</time>
      </trkpt>
      <trkpt lat="44.79727" lon="-0.33139">
        <ele>52</ele>
        <time>2013-10-20T15:30:38Z</time>
      </trkpt>
      <trkpt lat="44.79728" lon="-0.33139">
        <ele>52</ele>
        <time>2013-10-20T15:30:50Z</time>
      </trkpt>
      <trkpt lat="44.79729" lon="-0.33137">
        <ele>52</ele>
        <time>2013-10-20T15:31:00Z</time>
      </trkpt>
      <trkpt lat="44.79728" lon="-0.33137">
        <ele>52</ele>
        <time>2013-10-20T15:31:12Z</time>
      </trkpt>
      <trkpt lat="44.79728" lon="-0.33138">
        <ele>52</ele>
        <time>2013-10-20T15:31:20Z</time>
      </trkpt>
      <trkpt lat="44.79728" lon="-0.33138">
        <ele>52</ele>
        <time>2013-10-20T15:31:30Z</time>
      </trkpt>
      <trkpt lat="44.79729" lon="-0.33139">
        <ele>52</ele>
        <time>2013-10-20T15:31:31Z</time>
      </trkpt>
      <trkpt lat="44.79735" lon="-0.33141">
        <ele>52</ele>
        <time>2013-10-20T15:31:38Z</time>
      </trkpt>
      <trkpt lat="44.79737" lon="-0.33142">
        <ele>52</ele>
        <time>2013-10-20T15:31:45Z</time>
      </trkpt>
      <trkpt lat="44.79739" lon="-0.33147">
        <ele>53</ele>
        <time>2013-10-20T15:31:52Z</time>
      </trkpt>
      <trkpt lat="44.79741" lon="-0.33153">
        <ele>53</ele>
        <time>2013-10-20T15:32:00Z</time>
      </trkpt>
      <trkpt lat="44.79742" lon="-0.33155">
        <ele>53</ele>
        <time>2013-10-20T15:32:03Z</time>
      </trkpt>
      <trkpt lat="44.79744" lon="-0.33158">
        <ele>53</ele>
        <time>2013-10-20T15:32:05Z</time>
      </trkpt>
      <trkpt lat="44.79746" lon="-0.33163">
        <ele>53</ele>
        <time>2013-10-20T15:32:08Z</time>
      </trkpt>
      <trkpt lat="44.79749" lon="-0.33168">
        <ele>53</ele>
        <time>2013-10-20T15:32:15Z</time>
      </trkpt>
      <trkpt lat="44.79754" lon="-0.33175">
        <ele>54</ele>
        <time>2013-10-20T15:32:22Z</time>
      </trkpt>
      <trkpt lat="44.79755" lon="-0.33177">
        <ele>54</ele>
        <time>2013-10-20T15:32:23Z</time>
      </trkpt>
      <trkpt lat="44.79763" lon="-0.33188">
        <ele>55</ele>
        <time>2013-10-20T15:32:29Z</time>
      </trkpt>
      <trkpt lat="44.79776" lon="-0.33208">
        <ele>57</ele>
        <time>2013-10-20T15:32:38Z</time>
      </trkpt>
      <trkpt lat="44.79779" lon="-0.33213">
        <ele>58</ele>
        <time>2013-10-20T15:32:41Z</time>
      </trkpt>
      <trkpt lat="44.79784" lon="-0.33224">
        <ele>58</ele>
        <time>2013-10-20T15:32:48Z</time>
      </trkpt>
      <trkpt lat="44.79784" lon="-0.33225">
        <ele>59</ele>
        <time>2013-10-20T15:32:53Z</time>
      </trkpt>
      <trkpt lat="44.7979" lon="-0.33231">
        <ele>59</ele>
        <time>2013-10-20T15:32:58Z</time>
      </trkpt>
      <trkpt lat="44.79803" lon="-0.3325">
        <ele>61</ele>
        <time>2013-10-20T15:33:08Z</time>
      </trkpt>
      <trkpt lat="44.79809" lon="-0.33258">
        <ele>61</ele>
        <time>2013-10-20T15:33:12Z</time>
      </trkpt>
      <trkpt lat="44.7982" lon="-0.33273">
        <ele>60</ele>
        <time>2013-10-20T15:33:20Z</time>
      </trkpt>
      <trkpt lat="44.79831" lon="-0.33289">
        <ele>60</ele>
        <time>2013-10-20T15:33:27Z</time>
      </trkpt>
      <trkpt lat="44.79845" lon="-0.33311">
        <ele>60</ele>
        <time>2013-10-20T15:33:35Z</time>
      </trkpt>
      <trkpt lat="44.79861" lon="-0.33333">
        <ele>60</ele>
        <time>2013-10-20T15:33:44Z</time>
      </trkpt>
      <trkpt lat="44.79881" lon="-0.33357">
        <ele>61</ele>
        <time>2013-10-20T15:33:53Z</time>
      </trkpt>
      <trkpt lat="44.79895" lon="-0.33372">
        <ele>62</ele>
        <time>2013-10-20T15:33:59Z</time>
      </trkpt>
      <trkpt lat="44.79912" lon="-0.33393">
        <ele>62</ele>
        <time>2013-10-20T15:34:07Z</time>
      </trkpt>
      <trkpt lat="44.79932" lon="-0.33417">
        <ele>62</ele>
        <time>2013-10-20T15:34:16Z</time>
      </trkpt>
      <trkpt lat="44.79953" lon="-0.33443">
        <ele>62</ele>
        <time>2013-10-20T15:34:25Z</time>
      </trkpt>
      <trkpt lat="44.79972" lon="-0.33468">
        <ele>62</ele>
        <time>2013-10-20T15:34:33Z</time>
      </trkpt>
      <trkpt lat="44.79987" lon="-0.33486">
        <ele>62</ele>
        <time>2013-10-20T15:34:39Z</time>
      </trkpt>
      <trkpt lat="44.80004" lon="-0.33507">
        <ele>62</ele>
        <time>2013-10-20T15:34:46Z</time>
      </trkpt>
      <trkpt lat="44.8002" lon="-0.33527">
        <ele>62</ele>
        <time>2013-10-20T15:34:53Z</time>
      </trkpt>
      <trkpt lat="44.80035" lon="-0.33546">
        <ele>62</ele>
        <time>2013-10-20T15:35:01Z</time>
      </trkpt>
      <trkpt lat="44.80046" lon="-0.33564">
        <ele>62</ele>
        <time>2013-10-20T15:35:07Z</time>
      </trkpt>
      <trkpt lat="44.80055" lon="-0.33566">
        <ele>62</ele>
        <time>2013-10-20T15:35:10Z</time>
      </trkpt>
      <trkpt lat="44.80062" lon="-0.33559">
        <ele>62</ele>
        <time>2013-10-20T15:35:15Z</time>
      </trkpt>
      <trkpt lat="44.80073" lon="-0.33545">
        <ele>63</ele>
        <time>2013-10-20T15:35:22Z</time>
      </trkpt>
      <trkpt lat="44.80083" lon="-0.33526">
        <ele>65</ele>
        <time>2013-10-20T15:35:30Z</time>
      </trkpt>
      <trkpt lat="44.80091" lon="-0.33508">
        <ele>66</ele>
        <time>2013-10-20T15:35:38Z</time>
      </trkpt>
      <trkpt lat="44.80098" lon="-0.33493">
        <ele>67</ele>
        <time>2013-10-20T15:35:46Z</time>
      </trkpt>
      <trkpt lat="44.80099" lon="-0.33491">
        <ele>67</ele>
        <time>2013-10-20T15:35:48Z</time>
      </trkpt>
      <trkpt lat="44.80105" lon="-0.33486">
        <ele>67</ele>
        <time>2013-10-20T15:35:51Z</time>
      </trkpt>
      <trkpt lat="44.80121" lon="-0.3349">
        <ele>67</ele>
        <time>2013-10-20T15:35:56Z</time>
      </trkpt>
      <trkpt lat="44.80139" lon="-0.33504">
        <ele>66</ele>
        <time>2013-10-20T15:36:01Z</time>
      </trkpt>
      <trkpt lat="44.80143" lon="-0.33506">
        <ele>65</ele>
        <time>2013-10-20T15:36:02Z</time>
      </trkpt>
      <trkpt lat="44.80147" lon="-0.33509">
        <ele>65</ele>
        <time>2013-10-20T15:36:03Z</time>
      </trkpt>
      <trkpt lat="44.80161" lon="-0.33516">
        <ele>66</ele>
        <time>2013-10-20T15:36:07Z</time>
      </trkpt>
      <trkpt lat="44.80173" lon="-0.33532">
        <ele>66</ele>
        <time>2013-10-20T15:36:12Z</time>
      </trkpt>
      <trkpt lat="44.80198" lon="-0.33541">
        <ele>67</ele>
        <time>2013-10-20T15:36:21Z</time>
      </trkpt>
      <trkpt lat="44.80215" lon="-0.33545">
        <ele>68</ele>
        <time>2013-10-20T15:36:28Z</time>
      </trkpt>
      <trkpt lat="44.80231" lon="-0.33551">
        <ele>69</ele>
        <time>2013-10-20T15:36:35Z</time>
      </trkpt>
      <trkpt lat="44.80242" lon="-0.33554">
        <ele>71</ele>
        <time>2013-10-20T15:36:41Z</time>
      </trkpt>
      <trkpt lat="44.80252" lon="-0.33555">
        <ele>72</ele>
        <time>2013-10-20T15:36:47Z</time>
      </trkpt>
      <trkpt lat="44.80262" lon="-0.33553">
        <ele>73</ele>
        <time>2013-10-20T15:36:53Z</time>
      </trkpt>
      <trkpt lat="44.80269" lon="-0.33553">
        <ele>74</ele>
        <time>2013-10-20T15:36:58Z</time>
      </trkpt>
      <trkpt lat="44.80276" lon="-0.33561">
        <ele>74</ele>
        <time>2013-10-20T15:37:03Z</time>
      </trkpt>
      <trkpt lat="44.80279" lon="-0.33588">
        <ele>72</ele>
        <time>2013-10-20T15:37:08Z</time>
      </trkpt>
      <trkpt lat="44.80281" lon="-0.33594">
        <ele>72</ele>
        <time>2013-10-20T15:37:09Z</time>
      </trkpt>
      <trkpt lat="44.80284" lon="-0.33601">
        <ele>72</ele>
        <time>2013-10-20T15:37:10Z</time>
      </trkpt>
      <trkpt lat="44.80287" lon="-0.33607">
        <ele>72</ele>
        <time>2013-10-20T15:37:11Z</time>
      </trkpt>
      <trkpt lat="44.80291" lon="-0.33613">
        <ele>72</ele>
        <time>2013-10-20T15:37:12Z</time>
      </trkpt>
      <trkpt lat="44.80294" lon="-0.33618">
        <ele>72</ele>
        <time>2013-10-20T15:37:13Z</time>
      </trkpt>
      <trkpt lat="44.80298" lon="-0.33623">
        <ele>72</ele>
        <time>2013-10-20T15:37:14Z</time>
      </trkpt>
      <trkpt lat="44.80329" lon="-0.33673">
        <ele>71</ele>
        <time>2013-10-20T15:37:23Z</time>
      </trkpt>
      <trkpt lat="44.80348" lon="-0.33722">
        <ele>70</ele>
        <time>2013-10-20T15:37:30Z</time>
      </trkpt>
      <trkpt lat="44.8035" lon="-0.33728">
        <ele>70</ele>
        <time>2013-10-20T15:37:31Z</time>
      </trkpt>
      <trkpt lat="44.80352" lon="-0.33741">
        <ele>70</ele>
        <time>2013-10-20T15:37:33Z</time>
      </trkpt>
      <trkpt lat="44.80351" lon="-0.33748">
        <ele>70</ele>
        <time>2013-10-20T15:37:34Z</time>
      </trkpt>
      <trkpt lat="44.80349" lon="-0.33755">
        <ele>69</ele>
        <time>2013-10-20T15:37:35Z</time>
      </trkpt>
      <trkpt lat="44.80346" lon="-0.33761">
        <ele>69</ele>
        <time>2013-10-20T15:37:36Z</time>
      </trkpt>
      <trkpt lat="44.80343" lon="-0.33768">
        <ele>69</ele>
        <time>2013-10-20T15:37:37Z</time>
      </trkpt>
      <trkpt lat="44.80321" lon="-0.33812">
        <ele>65</ele>
        <time>2013-10-20T15:37:43Z</time>
      </trkpt>
      <trkpt lat="44.80307" lon="-0.33836">
        <ele>63</ele>
        <time>2013-10-20T15:37:48Z</time>
      </trkpt>
      <trkpt lat="44.80301" lon="-0.33847">
        <ele>62</ele>
        <time>2013-10-20T15:37:54Z</time>
      </trkpt>
      <trkpt lat="44.803" lon="-0.33847">
        <ele>62</ele>
        <time>2013-10-20T15:38:02Z</time>
      </trkpt>
      <trkpt lat="44.80296" lon="-0.33857">
        <ele>61</ele>
        <time>2013-10-20T15:38:10Z</time>
      </trkpt>
      <trkpt lat="44.80295" lon="-0.33861">
        <ele>61</ele>
        <time>2013-10-20T15:38:17Z</time>
      </trkpt>
      <trkpt lat="44.80294" lon="-0.33861">
        <ele>61</ele>
        <time>2013-10-20T15:38:31Z</time>
      </trkpt>
      <trkpt lat="44.80294" lon="-0.33861">
        <ele>61</ele>
        <time>2013-10-20T15:38:38Z</time>
      </trkpt>
      <trkpt lat="44.80293" lon="-0.33862">
        <ele>61</ele>
        <time>2013-10-20T15:38:39Z</time>
      </trkpt>
      <trkpt lat="44.80292" lon="-0.33864">
        <ele>61</ele>
        <time>2013-10-20T15:38:40Z</time>
      </trkpt>
      <trkpt lat="44.8028" lon="-0.33887">
        <ele>59</ele>
        <time>2013-10-20T15:38:46Z</time>
      </trkpt>
      <trkpt lat="44.80264" lon="-0.33921">
        <ele>57</ele>
        <time>2013-10-20T15:38:51Z</time>
      </trkpt>
      <trkpt lat="44.80241" lon="-0.33975">
        <ele>52</ele>
        <time>2013-10-20T15:38:57Z</time>
      </trkpt>
      <trkpt lat="44.80212" lon="-0.3404">
        <ele>48</ele>
        <time>2013-10-20T15:39:03Z</time>
      </trkpt>
      <trkpt lat="44.80207" lon="-0.34052">
        <ele>47</ele>
        <time>2013-10-20T15:39:04Z</time>
      </trkpt>
      <trkpt lat="44.80204" lon="-0.34066">
        <ele>46</ele>
        <time>2013-10-20T15:39:05Z</time>
      </trkpt>
      <trkpt lat="44.80196" lon="-0.34131">
        <ele>44</ele>
        <time>2013-10-20T15:39:10Z</time>
      </trkpt>
      <trkpt lat="44.80185" lon="-0.34219">
        <ele>44</ele>
        <time>2013-10-20T15:39:18Z</time>
      </trkpt>
      <trkpt lat="44.80169" lon="-0.34272">
        <ele>46</ele>
        <time>2013-10-20T15:39:24Z</time>
      </trkpt>
      <trkpt lat="44.8017" lon="-0.34278">
        <ele>47</ele>
        <time>2013-10-20T15:39:25Z</time>
      </trkpt>
      <trkpt lat="44.80173" lon="-0.34283">
        <ele>47</ele>
        <time>2013-10-20T15:39:26Z</time>
      </trkpt>
      <trkpt lat="44.80178" lon="-0.34285">
        <ele>47</ele>
        <time>2013-10-20T15:39:27Z</time>
      </trkpt>
      <trkpt lat="44.80183" lon="-0.34285">
        <ele>47</ele>
        <time>2013-10-20T15:39:28Z</time>
      </trkpt>
      <trkpt lat="44.80188" lon="-0.34284">
        <ele>47</ele>
        <time>2013-10-20T15:39:29Z</time>
      </trkpt>
      <trkpt lat="44.80207" lon="-0.34282">
        <ele>47</ele>
        <time>2013-10-20T15:39:33Z</time>
      </trkpt>
      <trkpt lat="44.80212" lon="-0.34282">
        <ele>47</ele>
        <time>2013-10-20T15:39:34Z</time>
      </trkpt>
      <trkpt lat="44.80228" lon="-0.34285">
        <ele>47</ele>
        <time>2013-10-20T15:39:37Z</time>
      </trkpt>
      <trkpt lat="44.80246" lon="-0.34293">
        <ele>47</ele>
        <time>2013-10-20T15:39:41Z</time>
      </trkpt>
      <trkpt lat="44.80258" lon="-0.34302">
        <ele>48</ele>
        <time>2013-10-20T15:39:44Z</time>
      </trkpt>
      <trkpt lat="44.80265" lon="-0.3431">
        <ele>48</ele>
        <time>2013-10-20T15:39:46Z</time>
      </trkpt>
      <trkpt lat="44.80269" lon="-0.34314">
        <ele>49</ele>
        <time>2013-10-20T15:39:47Z</time>
      </trkpt>
      <trkpt lat="44.80272" lon="-0.34318">
        <ele>49</ele>
        <time>2013-10-20T15:39:48Z</time>
      </trkpt>
      <trkpt lat="44.80275" lon="-0.34323">
        <ele>49</ele>
        <time>2013-10-20T15:39:49Z</time>
      </trkpt>
      <trkpt lat="44.80279" lon="-0.34328">
        <ele>50</ele>
        <time>2013-10-20T15:39:50Z</time>
      </trkpt>
      <trkpt lat="44.80303" lon="-0.34369">
        <ele>52</ele>
        <time>2013-10-20T15:39:58Z</time>
      </trkpt>
      <trkpt lat="44.80321" lon="-0.34397">
        <ele>52</ele>
        <time>2013-10-20T15:40:05Z</time>
      </trkpt>
      <trkpt lat="44.80323" lon="-0.34417">
        <ele>53</ele>
        <time>2013-10-20T15:40:10Z</time>
      </trkpt>
      <trkpt lat="44.8032" lon="-0.34421">
        <ele>53</ele>
        <time>2013-10-20T15:40:11Z</time>
      </trkpt>
      <trkpt lat="44.80298" lon="-0.34451">
        <ele>54</ele>
        <time>2013-10-20T15:40:20Z</time>
      </trkpt>
      <trkpt lat="44.80278" lon="-0.34481">
        <ele>55</ele>
        <time>2013-10-20T15:40:29Z</time>
      </trkpt>
      <trkpt lat="44.80256" lon="-0.3451">
        <ele>57</ele>
        <time>2013-10-20T15:40:38Z</time>
      </trkpt>
      <trkpt lat="44.80239" lon="-0.34534">
        <ele>58</ele>
        <time>2013-10-20T15:40:45Z</time>
      </trkpt>
      <trkpt lat="44.80214" lon="-0.34566">
        <ele>59</ele>
        <time>2013-10-20T15:40:55Z</time>
      </trkpt>
      <trkpt lat="44.80202" lon="-0.34582">
        <ele>60</ele>
        <time>2013-10-20T15:41:01Z</time>
      </trkpt>
      <trkpt lat="44.80191" lon="-0.34597">
        <ele>60</ele>
        <time>2013-10-20T15:41:06Z</time>
      </trkpt>
      <trkpt lat="44.80171" lon="-0.34622">
        <ele>61</ele>
        <time>2013-10-20T15:41:14Z</time>
      </trkpt>
      <trkpt lat="44.8015" lon="-0.34647">
        <ele>62</ele>
        <time>2013-10-20T15:41:23Z</time>
      </trkpt>
      <trkpt lat="44.80132" lon="-0.34669">
        <ele>62</ele>
        <time>2013-10-20T15:41:31Z</time>
      </trkpt>
      <trkpt lat="44.80112" lon="-0.34692">
        <ele>64</ele>
        <time>2013-10-20T15:41:39Z</time>
      </trkpt>
      <trkpt lat="44.80095" lon="-0.34711">
        <ele>65</ele>
        <time>2013-10-20T15:41:46Z</time>
      </trkpt>
      <trkpt lat="44.80084" lon="-0.34728">
        <ele>66</ele>
        <time>2013-10-20T15:41:51Z</time>
      </trkpt>
      <trkpt lat="44.80073" lon="-0.34739">
        <ele>66</ele>
        <time>2013-10-20T15:41:56Z</time>
      </trkpt>
      <trkpt lat="44.80072" lon="-0.34741">
        <ele>66</ele>
        <time>2013-10-20T15:41:57Z</time>
      </trkpt>
      <trkpt lat="44.8007" lon="-0.34744">
        <ele>66</ele>
        <time>2013-10-20T15:41:58Z</time>
      </trkpt>
      <trkpt lat="44.80059" lon="-0.34755">
        <ele>66</ele>
        <time>2013-10-20T15:42:02Z</time>
      </trkpt>
      <trkpt lat="44.80056" lon="-0.34759">
        <ele>66</ele>
        <time>2013-10-20T15:42:03Z</time>
      </trkpt>
      <trkpt lat="44.80052" lon="-0.34763">
        <ele>66</ele>
        <time>2013-10-20T15:42:04Z</time>
      </trkpt>
      <trkpt lat="44.80043" lon="-0.3477">
        <ele>65</ele>
        <time>2013-10-20T15:42:06Z</time>
      </trkpt>
      <trkpt lat="44.80039" lon="-0.34773">
        <ele>65</ele>
        <time>2013-10-20T15:42:07Z</time>
      </trkpt>
      <trkpt lat="44.80033" lon="-0.34776">
        <ele>65</ele>
        <time>2013-10-20T15:42:08Z</time>
      </trkpt>
      <trkpt lat="44.80027" lon="-0.3478">
        <ele>64</ele>
        <time>2013-10-20T15:42:09Z</time>
      </trkpt>
      <trkpt lat="44.80021" lon="-0.34783">
        <ele>64</ele>
        <time>2013-10-20T15:42:10Z</time>
      </trkpt>
      <trkpt lat="44.80014" lon="-0.34786">
        <ele>63</ele>
        <time>2013-10-20T15:42:11Z</time>
      </trkpt>
      <trkpt lat="44.79968" lon="-0.34798">
        <ele>58</ele>
        <time>2013-10-20T15:42:16Z</time>
      </trkpt>
      <trkpt lat="44.79904" lon="-0.34801">
        <ele>54</ele>
        <time>2013-10-20T15:42:23Z</time>
      </trkpt>
      <trkpt lat="44.79873" lon="-0.34802">
        <ele>55</ele>
        <time>2013-10-20T15:42:27Z</time>
      </trkpt>
      <trkpt lat="44.79845" lon="-0.34807">
        <ele>56</ele>
        <time>2013-10-20T15:42:32Z</time>
      </trkpt>
      <trkpt lat="44.79839" lon="-0.34809">
        <ele>56</ele>
        <time>2013-10-20T15:42:33Z</time>
      </trkpt>
      <trkpt lat="44.79834" lon="-0.34811">
        <ele>57</ele>
        <time>2013-10-20T15:42:34Z</time>
      </trkpt>
      <trkpt lat="44.7983" lon="-0.34813">
        <ele>57</ele>
        <time>2013-10-20T15:42:35Z</time>
      </trkpt>
      <trkpt lat="44.7982" lon="-0.34818">
        <ele>58</ele>
        <time>2013-10-20T15:42:37Z</time>
      </trkpt>
      <trkpt lat="44.79794" lon="-0.34831">
        <ele>59</ele>
        <time>2013-10-20T15:42:43Z</time>
      </trkpt>
      <trkpt lat="44.79765" lon="-0.34851">
        <ele>61</ele>
        <time>2013-10-20T15:42:51Z</time>
      </trkpt>
      <trkpt lat="44.79733" lon="-0.3488">
        <ele>63</ele>
        <time>2013-10-20T15:43:00Z</time>
      </trkpt>
      <trkpt lat="44.79711" lon="-0.34899">
        <ele>64</ele>
        <time>2013-10-20T15:43:07Z</time>
      </trkpt>
      <trkpt lat="44.79694" lon="-0.34916">
        <ele>66</ele>
        <time>2013-10-20T15:43:13Z</time>
      </trkpt>
      <trkpt lat="44.79672" lon="-0.34927">
        <ele>67</ele>
        <time>2013-10-20T15:43:20Z</time>
      </trkpt>
      <trkpt lat="44.79651" lon="-0.34929">
        <ele>68</ele>
        <time>2013-10-20T15:43:28Z</time>
      </trkpt>
      <trkpt lat="44.79637" lon="-0.34924">
        <ele>70</ele>
        <time>2013-10-20T15:43:35Z</time>
      </trkpt>
      <trkpt lat="44.79634" lon="-0.34924">
        <ele>70</ele>
        <time>2013-10-20T15:43:36Z</time>
      </trkpt>
      <trkpt lat="44.79633" lon="-0.34923">
        <ele>70</ele>
        <time>2013-10-20T15:43:37Z</time>
      </trkpt>
      <trkpt lat="44.7963" lon="-0.34922">
        <ele>70</ele>
        <time>2013-10-20T15:43:38Z</time>
      </trkpt>
      <trkpt lat="44.79629" lon="-0.34922">
        <ele>70</ele>
        <time>2013-10-20T15:43:39Z</time>
      </trkpt>
      <trkpt lat="44.79628" lon="-0.34921">
        <ele>70</ele>
        <time>2013-10-20T15:43:40Z</time>
      </trkpt>
      <trkpt lat="44.79618" lon="-0.3492">
        <ele>71</ele>
        <time>2013-10-20T15:43:46Z</time>
      </trkpt>
      <trkpt lat="44.79614" lon="-0.34921">
        <ele>72</ele>
        <time>2013-10-20T15:43:53Z</time>
      </trkpt>
      <trkpt lat="44.79611" lon="-0.34925">
        <ele>72</ele>
        <time>2013-10-20T15:43:59Z</time>
      </trkpt>
      <trkpt lat="44.79607" lon="-0.34931">
        <ele>73</ele>
        <time>2013-10-20T15:44:06Z</time>
      </trkpt>
      <trkpt lat="44.79601" lon="-0.3494">
        <ele>74</ele>
        <time>2013-10-20T15:44:12Z</time>
      </trkpt>
      <trkpt lat="44.79599" lon="-0.34942">
        <ele>74</ele>
        <time>2013-10-20T15:44:13Z</time>
      </trkpt>
      <trkpt lat="44.79598" lon="-0.34943">
        <ele>74</ele>
        <time>2013-10-20T15:44:14Z</time>
      </trkpt>
      <trkpt lat="44.79596" lon="-0.34943">
        <ele>75</ele>
        <time>2013-10-20T15:44:15Z</time>
      </trkpt>
      <trkpt lat="44.79594" lon="-0.34943">
        <ele>75</ele>
        <time>2013-10-20T15:44:16Z</time>
      </trkpt>
      <trkpt lat="44.79589" lon="-0.34946">
        <ele>76</ele>
        <time>2013-10-20T15:44:20Z</time>
      </trkpt>
      <trkpt lat="44.79586" lon="-0.34947">
        <ele>76</ele>
        <time>2013-10-20T15:44:21Z</time>
      </trkpt>
      <trkpt lat="44.79584" lon="-0.34948">
        <ele>76</ele>
        <time>2013-10-20T15:44:22Z</time>
      </trkpt>
      <trkpt lat="44.79582" lon="-0.3495">
        <ele>76</ele>
        <time>2013-10-20T15:44:23Z</time>
      </trkpt>
      <trkpt lat="44.79581" lon="-0.34951">
        <ele>77</ele>
        <time>2013-10-20T15:44:24Z</time>
      </trkpt>
      <trkpt lat="44.7958" lon="-0.34952">
        <ele>77</ele>
        <time>2013-10-20T15:44:25Z</time>
      </trkpt>
      <trkpt lat="44.79578" lon="-0.34952">
        <ele>77</ele>
        <time>2013-10-20T15:44:26Z</time>
      </trkpt>
      <trkpt lat="44.79576" lon="-0.34954">
        <ele>77</ele>
        <time>2013-10-20T15:44:28Z</time>
      </trkpt>
      <trkpt lat="44.79575" lon="-0.34954">
        <ele>77</ele>
        <time>2013-10-20T15:44:29Z</time>
      </trkpt>
      <trkpt lat="44.79574" lon="-0.34955">
        <ele>77</ele>
        <time>2013-10-20T15:44:30Z</time>
      </trkpt>
      <trkpt lat="44.79565" lon="-0.34957">
        <ele>79</ele>
        <time>2013-10-20T15:44:36Z</time>
      </trkpt>
      <trkpt lat="44.79556" lon="-0.34956">
        <ele>80</ele>
        <time>2013-10-20T15:44:44Z</time>
      </trkpt>
      <trkpt lat="44.79548" lon="-0.34957">
        <ele>81</ele>
        <time>2013-10-20T15:44:52Z</time>
      </trkpt>
      <trkpt lat="44.79542" lon="-0.34957">
        <ele>82</ele>
        <time>2013-10-20T15:44:59Z</time>
      </trkpt>
      <trkpt lat="44.79536" lon="-0.34955">
        <ele>83</ele>
        <time>2013-10-20T15:45:06Z</time>
      </trkpt>
      <trkpt lat="44.79531" lon="-0.34954">
        <ele>83</ele>
        <time>2013-10-20T15:45:12Z</time>
      </trkpt>
      <trkpt lat="44.79524" lon="-0.34951">
        <ele>84</ele>
        <time>2013-10-20T15:45:19Z</time>
      </trkpt>
      <trkpt lat="44.79522" lon="-0.34951">
        <ele>84</ele>
        <time>2013-10-20T15:45:20Z</time>
      </trkpt>
      <trkpt lat="44.79521" lon="-0.3495">
        <ele>85</ele>
        <time>2013-10-20T15:45:21Z</time>
      </trkpt>
      <trkpt lat="44.79512" lon="-0.34945">
        <ele>86</ele>
        <time>2013-10-20T15:45:28Z</time>
      </trkpt>
      <trkpt lat="44.7951" lon="-0.34946">
        <ele>86</ele>
        <time>2013-10-20T15:45:29Z</time>
      </trkpt>
      <trkpt lat="44.795" lon="-0.34945">
        <ele>87</ele>
        <time>2013-10-20T15:45:36Z</time>
      </trkpt>
      <trkpt lat="44.7949" lon="-0.34953">
        <ele>88</ele>
        <time>2013-10-20T15:45:42Z</time>
      </trkpt>
      <trkpt lat="44.79484" lon="-0.34966">
        <ele>89</ele>
        <time>2013-10-20T15:45:49Z</time>
      </trkpt>
      <trkpt lat="44.79484" lon="-0.34967">
        <ele>89</ele>
        <time>2013-10-20T15:45:50Z</time>
      </trkpt>
      <trkpt lat="44.79482" lon="-0.34976">
        <ele>90</ele>
        <time>2013-10-20T15:45:56Z</time>
      </trkpt>
      <trkpt lat="44.79478" lon="-0.34994">
        <ele>91</ele>
        <time>2013-10-20T15:46:06Z</time>
      </trkpt>
      <trkpt lat="44.79475" lon="-0.35007">
        <ele>91</ele>
        <time>2013-10-20T15:46:13Z</time>
      </trkpt>
      <trkpt lat="44.79474" lon="-0.3502">
        <ele>91</ele>
        <time>2013-10-20T15:46:19Z</time>
      </trkpt>
      <trkpt lat="44.79471" lon="-0.35041">
        <ele>91</ele>
        <time>2013-10-20T15:46:26Z</time>
      </trkpt>
      <trkpt lat="44.79468" lon="-0.35079">
        <ele>91</ele>
        <time>2013-10-20T15:46:37Z</time>
      </trkpt>
      <trkpt lat="44.79471" lon="-0.35108">
        <ele>92</ele>
        <time>2013-10-20T15:46:46Z</time>
      </trkpt>
      <trkpt lat="44.79476" lon="-0.35136">
        <ele>93</ele>
        <time>2013-10-20T15:46:55Z</time>
      </trkpt>
      <trkpt lat="44.7948" lon="-0.35161">
        <ele>94</ele>
        <time>2013-10-20T15:47:03Z</time>
      </trkpt>
      <trkpt lat="44.79482" lon="-0.35189">
        <ele>96</ele>
        <time>2013-10-20T15:47:11Z</time>
      </trkpt>
      <trkpt lat="44.79484" lon="-0.35215">
        <ele>97</ele>
        <time>2013-10-20T15:47:19Z</time>
      </trkpt>
      <trkpt lat="44.79484" lon="-0.35244">
        <ele>98</ele>
        <time>2013-10-20T15:47:28Z</time>
      </trkpt>
      <trkpt lat="44.79483" lon="-0.35276">
        <ele>99</ele>
        <time>2013-10-20T15:47:38Z</time>
      </trkpt>
      <trkpt lat="44.79482" lon="-0.35305">
        <ele>99</ele>
        <time>2013-10-20T15:47:47Z</time>
      </trkpt>
      <trkpt lat="44.79482" lon="-0.35337">
        <ele>100</ele>
        <time>2013-10-20T15:47:55Z</time>
      </trkpt>
      <trkpt lat="44.79481" lon="-0.35376">
        <ele>101</ele>
        <time>2013-10-20T15:48:03Z</time>
      </trkpt>
      <trkpt lat="44.79481" lon="-0.35408">
        <ele>101</ele>
        <time>2013-10-20T15:48:11Z</time>
      </trkpt>
      <trkpt lat="44.7948" lon="-0.35433">
        <ele>100</ele>
        <time>2013-10-20T15:48:18Z</time>
      </trkpt>
      <trkpt lat="44.79475" lon="-0.35447">
        <ele>100</ele>
        <time>2013-10-20T15:48:24Z</time>
      </trkpt>
      <trkpt lat="44.79474" lon="-0.35448">
        <ele>100</ele>
        <time>2013-10-20T15:48:25Z</time>
      </trkpt>
      <trkpt lat="44.79467" lon="-0.35453">
        <ele>100</ele>
        <time>2013-10-20T15:48:33Z</time>
      </trkpt>
      <trkpt lat="44.79463" lon="-0.35454">
        <ele>100</ele>
        <time>2013-10-20T15:48:41Z</time>
      </trkpt>
      <trkpt lat="44.79463" lon="-0.35454">
        <ele>100</ele>
        <time>2013-10-20T15:48:51Z</time>
      </trkpt>
      <trkpt lat="44.79463" lon="-0.35453">
        <ele>100</ele>
        <time>2013-10-20T15:49:05Z</time>
      </trkpt>
      <trkpt lat="44.79463" lon="-0.35451">
        <ele>100</ele>
        <time>2013-10-20T15:49:09Z</time>
      </trkpt>
      <trkpt lat="44.79464" lon="-0.3545">
        <ele>100</ele>
        <time>2013-10-20T15:49:10Z</time>
      </trkpt>
      <trkpt lat="44.79465" lon="-0.35449">
        <ele>100</ele>
        <time>2013-10-20T15:49:11Z</time>
      </trkpt>
      <trkpt lat="44.79473" lon="-0.35444">
        <ele>100</ele>
        <time>2013-10-20T15:49:18Z</time>
      </trkpt>
      <trkpt lat="44.7948" lon="-0.3544">
        <ele>100</ele>
        <time>2013-10-20T15:49:24Z</time>
      </trkpt>
      <trkpt lat="44.79481" lon="-0.35438">
        <ele>100</ele>
        <time>2013-10-20T15:49:25Z</time>
      </trkpt>
      <trkpt lat="44.79481" lon="-0.35436">
        <ele>100</ele>
        <time>2013-10-20T15:49:26Z</time>
      </trkpt>
      <trkpt lat="44.79481" lon="-0.35434">
        <ele>100</ele>
        <time>2013-10-20T15:49:27Z</time>
      </trkpt>
      <trkpt lat="44.7948" lon="-0.35432">
        <ele>100</ele>
        <time>2013-10-20T15:49:28Z</time>
      </trkpt>
      <trkpt lat="44.7948" lon="-0.35429">
        <ele>100</ele>
        <time>2013-10-20T15:49:29Z</time>
      </trkpt>
      <trkpt lat="44.7948" lon="-0.35426">
        <ele>100</ele>
        <time>2013-10-20T15:49:30Z</time>
      </trkpt>
      <trkpt lat="44.7948" lon="-0.35424">
        <ele>100</ele>
        <time>2013-10-20T15:49:31Z</time>
      </trkpt>
      <trkpt lat="44.79481" lon="-0.35406">
        <ele>101</ele>
        <time>2013-10-20T15:49:38Z</time>
      </trkpt>
      <trkpt lat="44.79483" lon="-0.35387">
        <ele>101</ele>
        <time>2013-10-20T15:49:44Z</time>
      </trkpt>
      <trkpt lat="44.79482" lon="-0.35357">
        <ele>100</ele>
        <time>2013-10-20T15:49:52Z</time>
      </trkpt>
      <trkpt lat="44.79482" lon="-0.35315">
        <ele>100</ele>
        <time>2013-10-20T15:50:02Z</time>
      </trkpt>
      <trkpt lat="44.79483" lon="-0.35269">
        <ele>99</ele>
        <time>2013-10-20T15:50:10Z</time>
      </trkpt>
      <trkpt lat="44.79483" lon="-0.35263">
        <ele>98</ele>
        <time>2013-10-20T15:50:11Z</time>
      </trkpt>
      <trkpt lat="44.79483" lon="-0.35257">
        <ele>98</ele>
        <time>2013-10-20T15:50:12Z</time>
      </trkpt>
      <trkpt lat="44.7948" lon="-0.35228">
        <ele>97</ele>
        <time>2013-10-20T15:50:17Z</time>
      </trkpt>
      <trkpt lat="44.79478" lon="-0.35179">
        <ele>96</ele>
        <time>2013-10-20T15:50:24Z</time>
      </trkpt>
      <trkpt lat="44.79478" lon="-0.35173">
        <ele>95</ele>
        <time>2013-10-20T15:50:25Z</time>
      </trkpt>
      <trkpt lat="44.79471" lon="-0.35134">
        <ele>93</ele>
        <time>2013-10-20T15:50:32Z</time>
      </trkpt>
      <trkpt lat="44.79468" lon="-0.3511">
        <ele>93</ele>
        <time>2013-10-20T15:50:39Z</time>
      </trkpt>
      <trkpt lat="44.79466" lon="-0.35095">
        <ele>92</ele>
        <time>2013-10-20T15:50:46Z</time>
      </trkpt>
      <trkpt lat="44.79466" lon="-0.3508">
        <ele>92</ele>
        <time>2013-10-20T15:50:53Z</time>
      </trkpt>
      <trkpt lat="44.79467" lon="-0.35062">
        <ele>91</ele>
        <time>2013-10-20T15:51:01Z</time>
      </trkpt>
      <trkpt lat="44.79468" lon="-0.35059">
        <ele>91</ele>
        <time>2013-10-20T15:51:08Z</time>
      </trkpt>
      <trkpt lat="44.79469" lon="-0.35057">
        <ele>91</ele>
        <time>2013-10-20T15:51:19Z</time>
      </trkpt>
      <trkpt lat="44.79469" lon="-0.35056">
        <ele>91</ele>
        <time>2013-10-20T15:51:33Z</time>
      </trkpt>
      <trkpt lat="44.79468" lon="-0.35057">
        <ele>91</ele>
        <time>2013-10-20T15:51:54Z</time>
      </trkpt>
      <trkpt lat="44.79468" lon="-0.35058">
        <ele>91</ele>
        <time>2013-10-20T15:52:04Z</time>
      </trkpt>
      <trkpt lat="44.79468" lon="-0.35058">
        <ele>91</ele>
        <time>2013-10-20T15:52:11Z</time>
      </trkpt>
      <trkpt lat="44.79468" lon="-0.35063">
        <ele>91</ele>
        <time>2013-10-20T15:52:18Z</time>
      </trkpt>
      <trkpt lat="44.79467" lon="-0.35065">
        <ele>91</ele>
        <time>2013-10-20T15:52:19Z</time>
      </trkpt>
      <trkpt lat="44.79467" lon="-0.35068">
        <ele>91</ele>
        <time>2013-10-20T15:52:20Z</time>
      </trkpt>
      <trkpt lat="44.79467" lon="-0.35071">
        <ele>91</ele>
        <time>2013-10-20T15:52:21Z</time>
      </trkpt>
      <trkpt lat="44.79467" lon="-0.35074">
        <ele>91</ele>
        <time>2013-10-20T15:52:22Z</time>
      </trkpt>
      <trkpt lat="44.79466" lon="-0.35078">
        <ele>92</ele>
        <time>2013-10-20T15:52:23Z</time>
      </trkpt>
      <trkpt lat="44.79466" lon="-0.35081">
        <ele>92</ele>
        <time>2013-10-20T15:52:24Z</time>
      </trkpt>
      <trkpt lat="44.7947" lon="-0.35116">
        <ele>93</ele>
        <time>2013-10-20T15:52:32Z</time>
      </trkpt>
      <trkpt lat="44.79475" lon="-0.35151">
        <ele>94</ele>
        <time>2013-10-20T15:52:40Z</time>
      </trkpt>
      <trkpt lat="44.79481" lon="-0.35194">
        <ele>96</ele>
        <time>2013-10-20T15:52:49Z</time>
      </trkpt>
      <trkpt lat="44.79483" lon="-0.35232">
        <ele>97</ele>
        <time>2013-10-20T15:52:57Z</time>
      </trkpt>
      <trkpt lat="44.79483" lon="-0.35268">
        <ele>99</ele>
        <time>2013-10-20T15:53:05Z</time>
      </trkpt>
      <trkpt lat="44.79482" lon="-0.35309">
        <ele>99</ele>
        <time>2013-10-20T15:53:14Z</time>
      </trkpt>
      <trkpt lat="44.79481" lon="-0.35341">
        <ele>100</ele>
        <time>2013-10-20T15:53:21Z</time>
      </trkpt>
      <trkpt lat="44.79482" lon="-0.35379">
        <ele>101</ele>
        <time>2013-10-20T15:53:29Z</time>
      </trkpt>
      <trkpt lat="44.79482" lon="-0.35415">
        <ele>100</ele>
        <time>2013-10-20T15:53:37Z</time>
      </trkpt>
      <trkpt lat="44.79479" lon="-0.35436">
        <ele>100</ele>
        <time>2013-10-20T15:53:42Z</time>
      </trkpt>
      <trkpt lat="44.79478" lon="-0.35439">
        <ele>100</ele>
        <time>2013-10-20T15:53:43Z</time>
      </trkpt>
      <trkpt lat="44.79477" lon="-0.35441">
        <ele>100</ele>
        <time>2013-10-20T15:53:44Z</time>
      </trkpt>
      <trkpt lat="44.79475" lon="-0.35443">
        <ele>100</ele>
        <time>2013-10-20T15:53:45Z</time>
      </trkpt>
      <trkpt lat="44.79473" lon="-0.35444">
        <ele>100</ele>
        <time>2013-10-20T15:53:46Z</time>
      </trkpt>
      <trkpt lat="44.79472" lon="-0.35445">
        <ele>100</ele>
        <time>2013-10-20T15:53:47Z</time>
      </trkpt>
      <trkpt lat="44.7947" lon="-0.35446">
        <ele>100</ele>
        <time>2013-10-20T15:53:48Z</time>
      </trkpt>
      <trkpt lat="44.79468" lon="-0.35447">
        <ele>100</ele>
        <time>2013-10-20T15:53:49Z</time>
      </trkpt>
      <trkpt lat="44.79448" lon="-0.35456">
        <ele>100</ele>
        <time>2013-10-20T15:53:56Z</time>
      </trkpt>
      <trkpt lat="44.7942" lon="-0.35468">
        <ele>101</ele>
        <time>2013-10-20T15:54:04Z</time>
      </trkpt>
      <trkpt lat="44.79379" lon="-0.35483">
        <ele>101</ele>
        <time>2013-10-20T15:54:14Z</time>
      </trkpt>
      <trkpt lat="44.79341" lon="-0.35499">
        <ele>101</ele>
        <time>2013-10-20T15:54:22Z</time>
      </trkpt>
      <trkpt lat="44.79291" lon="-0.35516">
        <ele>101</ele>
        <time>2013-10-20T15:54:33Z</time>
      </trkpt>
      <trkpt lat="44.79263" lon="-0.35527">
        <ele>101</ele>
        <time>2013-10-20T15:54:40Z</time>
      </trkpt>
      <trkpt lat="44.79233" lon="-0.35538">
        <ele>102</ele>
        <time>2013-10-20T15:54:47Z</time>
      </trkpt>
      <trkpt lat="44.79198" lon="-0.35548">
        <ele>102</ele>
        <time>2013-10-20T15:54:55Z</time>
      </trkpt>
      <trkpt lat="44.79141" lon="-0.35555">
        <ele>101</ele>
        <time>2013-10-20T15:55:06Z</time>
      </trkpt>
      <trkpt lat="44.79085" lon="-0.35559">
        <ele>100</ele>
        <time>2013-10-20T15:55:16Z</time>
      </trkpt>
      <trkpt lat="44.79062" lon="-0.35563">
        <ele>99</ele>
        <time>2013-10-20T15:55:22Z</time>
      </trkpt>
      <trkpt lat="44.79048" lon="-0.35558">
        <ele>98</ele>
        <time>2013-10-05T14:50:11Z</time>
      </trkpt>
      <trkpt lat="44.79034" lon="-0.35541">
        <ele>98</ele>
        <time>2013-10-05T14:50:18Z</time>
      </trkpt>
      <trkpt lat="44.79014" lon="-0.35513">
        <ele>97</ele>
        <time>2013-10-05T14:50:27Z</time>
      </trkpt>
      <trkpt lat="44.78989" lon="-0.35482">
        <ele>96</ele>
        <time>2013-10-05T14:50:37Z</time>
      </trkpt>
      <trkpt lat="44.78979" lon="-0.35459">
        <ele>96</ele>
        <time>2013-10-05T14:50:44Z</time>
      </trkpt>
      <trkpt lat="44.78963" lon="-0.35437">
        <ele>96</ele>
        <time>2013-10-05T14:50:50Z</time>
      </trkpt>
      <trkpt lat="44.78932" lon="-0.35397">
        <ele>96</ele>
        <time>2013-10-05T14:51:01Z</time>
      </trkpt>
      <trkpt lat="44.78929" lon="-0.35396">
        <ele>96</ele>
        <time>2013-10-05T14:51:03Z</time>
      </trkpt>
      <trkpt lat="44.78924" lon="-0.35404">
        <ele>96</ele>
        <time>2013-10-05T14:51:08Z</time>
      </trkpt>
      <trkpt lat="44.78917" lon="-0.35425">
        <ele>95</ele>
        <time>2013-10-05T14:51:17Z</time>
      </trkpt>
      <trkpt lat="44.78912" lon="-0.3543">
        <ele>94</ele>
        <time>2013-10-05T14:51:25Z</time>
      </trkpt>
      <trkpt lat="44.78911" lon="-0.35432">
        <ele>94</ele>
        <time>2013-10-05T14:51:38Z</time>
      </trkpt>
      <trkpt lat="44.78911" lon="-0.35432">
        <ele>94</ele>
        <time>2013-10-05T14:51:41Z</time>
      </trkpt>
      <trkpt lat="44.78893" lon="-0.35421">
        <ele>94</ele>
        <time>2013-10-05T14:51:50Z</time>
      </trkpt>
      <trkpt lat="44.78867" lon="-0.35404">
        <ele>92</ele>
        <time>2013-10-05T14:52:00Z</time>
      </trkpt>
      <trkpt lat="44.78844" lon="-0.35382">
        <ele>90</ele>
        <time>2013-10-05T14:52:09Z</time>
      </trkpt>
      <trkpt lat="44.78838" lon="-0.35363">
        <ele>90</ele>
        <time>2013-10-05T14:52:17Z</time>
      </trkpt>
      <trkpt lat="44.78831" lon="-0.3534">
        <ele>89</ele>
        <time>2013-10-05T14:52:23Z</time>
      </trkpt>
      <trkpt lat="44.78817" lon="-0.35309">
        <ele>87</ele>
        <time>2013-10-05T14:52:30Z</time>
      </trkpt>
      <trkpt lat="44.78799" lon="-0.35285">
        <ele>86</ele>
        <time>2013-10-05T14:52:37Z</time>
      </trkpt>
      <trkpt lat="44.78771" lon="-0.35258">
        <ele>83</ele>
        <time>2013-10-05T14:52:43Z</time>
      </trkpt>
      <trkpt lat="44.78751" lon="-0.35236">
        <ele>81</ele>
        <time>2013-10-05T14:52:49Z</time>
      </trkpt>
      <trkpt lat="44.78719" lon="-0.35208">
        <ele>75</ele>
        <time>2013-10-05T14:52:58Z</time>
      </trkpt>
      <trkpt lat="44.78689" lon="-0.35157">
        <ele>70</ele>
        <time>2013-10-05T14:53:08Z</time>
      </trkpt>
      <trkpt lat="44.78675" lon="-0.35141">
        <ele>70</ele>
        <time>2013-10-05T14:53:14Z</time>
      </trkpt>
      <trkpt lat="44.7867" lon="-0.35143">
        <ele>69</ele>
        <time>2013-10-05T14:53:21Z</time>
      </trkpt>
      <trkpt lat="44.78668" lon="-0.35144">
        <ele>69</ele>
        <time>2013-10-05T14:53:31Z</time>
      </trkpt>
      <trkpt lat="44.78667" lon="-0.35143">
        <ele>69</ele>
        <time>2013-10-05T14:53:32Z</time>
      </trkpt>
      <trkpt lat="44.78656" lon="-0.35131">
        <ele>70</ele>
        <time>2013-10-05T14:53:42Z</time>
      </trkpt>
      <trkpt lat="44.7865" lon="-0.35125">
        <ele>71</ele>
        <time>2013-10-05T14:53:48Z</time>
      </trkpt>
      <trkpt lat="44.78647" lon="-0.35122">
        <ele>71</ele>
        <time>2013-10-05T14:53:49Z</time>
      </trkpt>
      <trkpt lat="44.78645" lon="-0.35121">
        <ele>72</ele>
        <time>2013-10-05T14:53:50Z</time>
      </trkpt>
      <trkpt lat="44.78642" lon="-0.35119">
        <ele>72</ele>
        <time>2013-10-05T14:53:51Z</time>
      </trkpt>
      <trkpt lat="44.7864" lon="-0.35117">
        <ele>72</ele>
        <time>2013-10-05T14:53:52Z</time>
      </trkpt>
      <trkpt lat="44.78623" lon="-0.35099">
        <ele>75</ele>
        <time>2013-10-05T14:54:02Z</time>
      </trkpt>
      <trkpt lat="44.78608" lon="-0.35088">
        <ele>78</ele>
        <time>2013-10-05T14:54:11Z</time>
      </trkpt>
      <trkpt lat="44.78597" lon="-0.35074">
        <ele>79</ele>
        <time>2013-10-05T14:54:20Z</time>
      </trkpt>
      <trkpt lat="44.78584" lon="-0.35063">
        <ele>82</ele>
        <time>2013-10-05T14:54:30Z</time>
      </trkpt>
      <trkpt lat="44.78575" lon="-0.35051">
        <ele>83</ele>
        <time>2013-10-05T14:54:40Z</time>
      </trkpt>
      <trkpt lat="44.78557" lon="-0.35039">
        <ele>84</ele>
        <time>2013-10-05T14:54:52Z</time>
      </trkpt>
      <trkpt lat="44.78544" lon="-0.35027">
        <ele>86</ele>
        <time>2013-10-05T14:55:03Z</time>
      </trkpt>
      <trkpt lat="44.78532" lon="-0.35012">
        <ele>88</ele>
        <time>2013-10-05T14:55:14Z</time>
      </trkpt>
      <trkpt lat="44.78521" lon="-0.34999">
        <ele>88</ele>
        <time>2013-10-05T14:55:24Z</time>
      </trkpt>
      <trkpt lat="44.78506" lon="-0.34981">
        <ele>90</ele>
        <time>2013-10-05T14:55:37Z</time>
      </trkpt>
      <trkpt lat="44.78495" lon="-0.34968">
        <ele>91</ele>
        <time>2013-10-05T14:55:48Z</time>
      </trkpt>
      <trkpt lat="44.78483" lon="-0.34956">
        <ele>92</ele>
        <time>2013-10-05T14:55:59Z</time>
      </trkpt>
      <trkpt lat="44.78472" lon="-0.3495">
        <ele>92</ele>
        <time>2013-10-05T14:56:10Z</time>
      </trkpt>
      <trkpt lat="44.78461" lon="-0.3494">
        <ele>93</ele>
        <time>2013-10-05T14:56:21Z</time>
      </trkpt>
      <trkpt lat="44.78459" lon="-0.34939">
        <ele>93</ele>
        <time>2013-10-05T14:56:27Z</time>
      </trkpt>
      <trkpt lat="44.78459" lon="-0.34936">
        <ele>93</ele>
        <time>2013-10-05T14:56:31Z</time>
      </trkpt>
      <trkpt lat="44.78461" lon="-0.3493">
        <ele>94</ele>
        <time>2013-10-05T14:56:39Z</time>
      </trkpt>
      <trkpt lat="44.78462" lon="-0.34929">
        <ele>94</ele>
        <time>2013-10-05T14:56:56Z</time>
      </trkpt>
      <trkpt lat="44.78462" lon="-0.3493">
        <ele>93</ele>
        <time>2013-10-05T14:57:19Z</time>
      </trkpt>
      <trkpt lat="44.78462" lon="-0.3493">
        <ele>94</ele>
        <time>2013-10-05T14:57:38Z</time>
      </trkpt>
      <trkpt lat="44.78463" lon="-0.3493">
        <ele>93</ele>
        <time>2013-10-05T14:57:57Z</time>
      </trkpt>
      <trkpt lat="44.78463" lon="-0.34932">
        <ele>93</ele>
        <time>2013-10-05T14:58:16Z</time>
      </trkpt>
      <trkpt lat="44.78462" lon="-0.34934">
        <ele>93</ele>
        <time>2013-10-05T14:58:24Z</time>
      </trkpt>
      <trkpt lat="44.7846" lon="-0.34934">
        <ele>93</ele>
        <time>2013-10-05T14:58:29Z</time>
      </trkpt>
      <trkpt lat="44.78442" lon="-0.34928">
        <ele>94</ele>
        <time>2013-10-05T14:58:39Z</time>
      </trkpt>
      <trkpt lat="44.78424" lon="-0.34926">
        <ele>94</ele>
        <time>2013-10-05T14:58:45Z</time>
      </trkpt>
      <trkpt lat="44.78401" lon="-0.34917">
        <ele>95</ele>
        <time>2013-10-05T14:58:56Z</time>
      </trkpt>
      <trkpt lat="44.78382" lon="-0.34911">
        <ele>96</ele>
        <time>2013-10-05T14:59:06Z</time>
      </trkpt>
      <trkpt lat="44.78365" lon="-0.34906">
        <ele>96</ele>
        <time>2013-10-05T14:59:14Z</time>
      </trkpt>
      <trkpt lat="44.78348" lon="-0.34901">
        <ele>96</ele>
        <time>2013-10-05T14:59:23Z</time>
      </trkpt>
      <trkpt lat="44.78331" lon="-0.34896">
        <ele>96</ele>
        <time>2013-10-05T14:59:32Z</time>
      </trkpt>
      <trkpt lat="44.78314" lon="-0.34888">
        <ele>96</ele>
        <time>2013-10-05T14:59:40Z</time>
      </trkpt>
      <trkpt lat="44.78293" lon="-0.34875">
        <ele>96</ele>
        <time>2013-10-05T14:59:50Z</time>
      </trkpt>
      <trkpt lat="44.78272" lon="-0.34863">
        <ele>96</ele>
        <time>2013-10-05T14:59:59Z</time>
      </trkpt>
      <trkpt lat="44.78251" lon="-0.3485">
        <ele>96</ele>
        <time>2013-10-05T15:00:08Z</time>
      </trkpt>
      <trkpt lat="44.78239" lon="-0.34842">
        <ele>97</ele>
        <time>2013-10-05T15:00:15Z</time>
      </trkpt>
      <trkpt lat="44.78231" lon="-0.3485">
        <ele>97</ele>
        <time>2013-10-05T15:00:20Z</time>
      </trkpt>
      <trkpt lat="44.78206" lon="-0.34869">
        <ele>98</ele>
        <time>2013-10-05T15:00:30Z</time>
      </trkpt>
      <trkpt lat="44.78186" lon="-0.34881">
        <ele>99</ele>
        <time>2013-10-05T15:00:37Z</time>
      </trkpt>
      <trkpt lat="44.78159" lon="-0.34897">
        <ele>100</ele>
        <time>2013-10-05T15:00:46Z</time>
      </trkpt>
      <trkpt lat="44.7813" lon="-0.34917">
        <ele>101</ele>
        <time>2013-10-05T15:00:55Z</time>
      </trkpt>
      <trkpt lat="44.78101" lon="-0.34935">
        <ele>101</ele>
        <time>2013-10-05T15:01:04Z</time>
      </trkpt>
      <trkpt lat="44.78065" lon="-0.34953">
        <ele>101</ele>
        <time>2013-10-05T15:01:14Z</time>
      </trkpt>
      <trkpt lat="44.78037" lon="-0.34964">
        <ele>102</ele>
        <time>2013-10-05T15:01:22Z</time>
      </trkpt>
      <trkpt lat="44.78002" lon="-0.34971">
        <ele>103</ele>
        <time>2013-10-05T15:01:32Z</time>
      </trkpt>
      <trkpt lat="44.77979" lon="-0.34978">
        <ele>103</ele>
        <time>2013-10-05T15:01:39Z</time>
      </trkpt>
      <trkpt lat="44.77947" lon="-0.34992">
        <ele>103</ele>
        <time>2013-10-05T15:01:49Z</time>
      </trkpt>
      <trkpt lat="44.77933" lon="-0.35012">
        <ele>103</ele>
        <time>2013-10-05T15:01:55Z</time>
      </trkpt>
      <trkpt lat="44.77914" lon="-0.35049">
        <ele>103</ele>
        <time>2013-10-05T15:02:04Z</time>
      </trkpt>
      <trkpt lat="44.77894" lon="-0.35054">
        <ele>103</ele>
        <time>2013-10-05T15:02:10Z</time>
      </trkpt>
      <trkpt lat="44.77863" lon="-0.35044">
        <ele>102</ele>
        <time>2013-10-05T15:02:19Z</time>
      </trkpt>
      <trkpt lat="44.77828" lon="-0.35035">
        <ele>102</ele>
        <time>2013-10-05T15:02:28Z</time>
      </trkpt>
      <trkpt lat="44.77824" lon="-0.35034">
        <ele>102</ele>
        <time>2013-10-05T15:02:29Z</time>
      </trkpt>
      <trkpt lat="44.77792" lon="-0.35034">
        <ele>102</ele>
        <time>2013-10-05T15:02:36Z</time>
      </trkpt>
      <trkpt lat="44.77773" lon="-0.35036">
        <ele>101</ele>
        <time>2013-10-05T15:02:40Z</time>
      </trkpt>
      <trkpt lat="44.77769" lon="-0.35037">
        <ele>101</ele>
        <time>2013-10-05T15:02:41Z</time>
      </trkpt>
      <trkpt lat="44.77767" lon="-0.35038">
        <ele>101</ele>
        <time>2013-10-05T15:02:42Z</time>
      </trkpt>
      <trkpt lat="44.77765" lon="-0.3504">
        <ele>101</ele>
        <time>2013-10-05T15:02:43Z</time>
      </trkpt>
      <trkpt lat="44.77764" lon="-0.35041">
        <ele>101</ele>
        <time>2013-10-05T15:02:44Z</time>
      </trkpt>
      <trkpt lat="44.77763" lon="-0.35043">
        <ele>101</ele>
        <time>2013-10-05T15:02:45Z</time>
      </trkpt>
      <trkpt lat="44.77751" lon="-0.35042">
        <ele>101</ele>
        <time>2013-10-05T15:02:51Z</time>
      </trkpt>
      <trkpt lat="44.77738" lon="-0.35034">
        <ele>101</ele>
        <time>2013-10-05T15:02:55Z</time>
      </trkpt>
      <trkpt lat="44.77701" lon="-0.35005">
        <ele>100</ele>
        <time>2013-10-05T15:03:05Z</time>
      </trkpt>
      <trkpt lat="44.77664" lon="-0.34984">
        <ele>98</ele>
        <time>2013-10-05T15:03:15Z</time>
      </trkpt>
    </trkseg>
  </trk>
</gpx>